[[{"header":{"parameterUnit":"m.s-1","parameterCategory":1,"la1":30.6,"la2":29.2853,"lo1":-89.7004,"lo2":-87.6739,"dy":0.0162,"dx":0.0183,"nx":112,"ny":82,"refTime":"2026-03-29T00:00:00:Z","depth":0,"parameterNumber":2,"parameterNumberName":"U-component_of_WINDS"},"data":[0.0,0.0,0.0,0.0,0.0,0.0,0.0,0.0,0.0,0.0,0.0,0.0,0.0,0.0,0.0,0.0,0.0,0.0,0.0,0.0,0.0,0.0,0.0,0.0,0.0,0.0,0.0,0.0,0.0,0.0,0.0,0.0,0.0,0.0,0.0,0.0,0.0,0.0,0.0,0.0,0.0,0.0,0.0,0.0,0.0,0.0,0.0,0.0,0.0,0.0,0.0,0.0,0.0,0.0,0.0,0.0,0.0,0.0,0.0,0.0,0.0,0.0,0.0,0.0,0.0,0.0,0.0,0.0,0.0,0.0,0.0,0.0,0.0,0.0,0.0,0.0,0.0,0.0,0.0,0.0,0.0,0.0,0.0,0.0,0.0,0.0,0.0,0.0,0.0,0.0,-2.5591,-2.8229,-3.1613,-3.338,-3.2721,-3.1839,-2.9463,-2.5038,0.0,0.0,0.0,0.0,0.0,0.0,0.0,0.0,0.0,0.0,0.0,0.0,0.0,0.0,0.0,0.0,0.0,0.0,0.0,0.0,0.0,0.0,0.0,0.0,0.0,0.0,0.0,0.0,0.0,0.0,0.0,0.0,0.0,0.0,0.0,0.0,0.0,0.0,0.0,0.0,0.0,0.0,0.0,0.0,0.0,0.0,0.0,0.0,0.0,0.0,0.0,0.0,0.0,0.0,0.0,0.0,0.0,0.0,0.0,0.0,0.0,0.0,0.0,0.0,0.0,0.0,0.0,0.0,0.0,0.0,0.0,0.0,0.0,0.0,0.0,0.0,0.0,0.0,0.0,0.0,0.0,0.0,0.0,0.0,0.0,0.0,0.0,0.0,0.0,0.0,0.0,0.0,0.0,0.0,0.0,0.0,0.0,0.0,0.0,0.0,0.0,0.0,0.0,0.0,-2.6652,-3.2033,-3.3665,-3.4099,-3.341,-3.1689,-2.9175,-2.5674,0.0,0.0,0.0,0.0,0.0,0.0,0.0,0.0,0.0,0.0,0.0,0.0,0.0,0.0,0.0,0.0,0.0,0.0,0.0,0.0,0.0,0.0,0.0,0.0,0.0,0.0,0.0,0.0,0.0,0.0,0.0,0.0,0.0,0.0,0.0,0.0,0.0,0.0,0.0,0.0,0.0,0.0,0.0,0.0,0.0,0.0,0.0,0.0,0.0,0.0,0.0,0.0,0.0,0.0,0.0,0.0,0.0,0.0,0.0,0.0,0.0,0.0,0.0,0.0,0.0,0.0,0.0,0.0,0.0,0.0,0.0,0.0,0.0,0.0,0.0,0.0,0.0,0.0,0.0,0.0,0.0,0.0,0.0,0.0,0.0,0.0,0.0,0.0,0.0,0.0,0.0,0.0,0.0,0.0,0.0,0.0,0.0,0.0,0.0,0.0,0.0,0.0,0.0,-2.5839,-2.8637,-3.3499,-3.4637,-3.4622,-3.3589,-3.2332,-2.9879,-2.5854,-2.3796,0.0,0.0,0.0,0.0,0.0,0.0,0.0,0.0,0.0,0.0,0.0,0.0,0.0,0.0,0.0,0.0,0.0,0.0,0.0,0.0,0.0,0.0,0.0,0.0,0.0,0.0,0.0,0.0,0.0,0.0,0.0,0.0,0.0,0.0,0.0,0.0,0.0,0.0,0.0,0.0,0.0,0.0,0.0,0.0,0.0,0.0,0.0,0.0,0.0,0.0,0.0,0.0,0.0,0.0,0.0,0.0,0.0,0.0,0.0,0.0,0.0,0.0,0.0,0.0,0.0,0.0,0.0,0.0,0.0,0.0,0.0,0.0,0.0,0.0,0.0,0.0,0.0,0.0,0.0,0.0,0.0,0.0,0.0,0.0,0.0,0.0,0.0,0.0,0.0,0.0,0.0,0.0,0.0,0.0,0.0,0.0,0.0,0.0,0.0,0.0,0.0,0.0,-2.9041,-3.0851,-3.4337,-3.519,-3.4966,-3.3604,-3.2467,-3.0043,-2.5869,-2.3325,0.0,0.0,0.0,0.0,0.0,0.0,0.0,0.0,0.0,0.0,0.0,0.0,0.0,0.0,0.0,0.0,0.0,0.0,0.0,0.0,0.0,0.0,0.0,0.0,0.0,0.0,0.0,0.0,0.0,0.0,0.0,0.0,0.0,0.0,0.0,0.0,0.0,0.0,0.0,0.0,0.0,0.0,0.0,0.0,0.0,0.0,0.0,0.0,0.0,0.0,0.0,0.0,0.0,0.0,0.0,0.0,0.0,0.0,0.0,0.0,0.0,0.0,0.0,0.0,0.0,0.0,0.0,0.0,0.0,0.0,0.0,0.0,0.0,0.0,0.0,0.0,0.0,0.0,0.0,0.0,0.0,0.0,0.0,0.0,0.0,0.0,0.0,0.0,0.0,0.0,0.0,0.0,0.0,0.0,0.0,0.0,0.0,0.0,0.0,0.0,0.0,0.0,-3.0342,-3.3066,-3.5205,-3.5474,-3.4966,-3.3604,-3.121,-2.8592,-2.5794,-2.2009,0.0,0.0,0.0,0.0,0.0,0.0,0.0,0.0,0.0,0.0,0.0,0.0,0.0,0.0,0.0,0.0,0.0,0.0,0.0,0.0,0.0,0.0,0.0,0.0,0.0,0.0,0.0,0.0,0.0,0.0,0.0,0.0,0.0,0.0,0.0,0.0,0.0,0.0,0.0,0.0,0.0,0.0,0.0,0.0,0.0,0.0,0.0,0.0,0.0,0.0,0.0,0.0,0.0,0.0,0.0,0.0,0.0,0.0,0.0,0.0,0.0,0.0,0.0,0.0,0.0,0.0,0.0,0.0,0.0,0.0,0.0,0.0,0.0,0.0,0.0,0.0,0.0,0.0,0.0,0.0,0.0,0.0,0.0,0.0,0.0,0.0,0.0,0.0,0.0,0.0,0.0,0.0,0.0,0.0,0.0,0.0,0.0,0.0,0.0,0.0,0.0,0.0,-2.9729,-3.2347,-3.5205,-3.5504,-3.4966,-3.3604,-3.2213,-2.9759,-2.5854,0.0,0.0,0.0,0.0,0.0,0.0,0.0,0.0,0.0,0.0,0.0,0.0,0.0,0.0,0.0,0.0,0.0,0.0,0.0,0.0,0.0,0.0,0.0,0.0,0.0,0.0,0.0,0.0,0.0,0.0,0.0,0.0,0.0,0.0,0.0,0.0,0.0,0.0,0.0,0.0,0.0,0.0,0.0,0.0,0.0,0.0,0.0,0.0,0.0,0.0,0.0,0.0,0.0,0.0,0.0,0.0,0.0,0.0,0.0,0.0,0.0,0.0,0.0,0.0,0.0,0.0,0.0,0.0,0.0,0.0,0.0,0.0,0.0,0.0,0.0,0.0,0.0,0.0,0.0,0.0,0.0,0.0,0.0,0.0,0.0,0.0,0.0,0.0,0.0,0.0,0.0,0.0,0.0,0.0,0.0,0.0,0.0,0.0,0.0,0.0,0.0,0.0,-2.7076,-2.9849,-3.2497,-3.522,-3.5504,-3.4966,-3.3604,-3.2317,-2.9879,-2.5854,0.0,0.0,0.0,0.0,0.0,0.0,0.0,0.0,0.0,0.0,0.0,0.0,0.0,0.0,0.0,0.0,0.0,0.0,0.0,0.0,0.0,0.0,0.0,0.0,0.0,0.0,0.0,0.0,0.0,0.0,0.0,0.0,0.0,0.0,0.0,0.0,0.0,0.0,0.0,0.0,0.0,0.0,0.0,0.0,0.0,0.0,0.0,0.0,0.0,0.0,0.0,0.0,0.0,0.0,0.0,0.0,0.0,0.0,0.0,0.0,0.0,0.0,0.0,0.0,0.0,0.0,0.0,0.0,0.0,0.0,0.0,0.0,0.0,0.0,0.0,0.0,0.0,0.0,0.0,0.0,0.0,0.0,0.0,0.0,0.0,0.0,0.0,0.0,0.0,0.0,0.0,0.0,0.0,0.0,0.0,0.0,0.0,0.0,0.0,0.0,0.0,0.0,-2.7255,-3.1031,-3.4008,-3.537,-3.5504,-3.4966,-3.3619,-3.1106,-2.8457,0.0,0.0,0.0,0.0,0.0,0.0,0.0,0.0,0.0,0.0,0.0,0.0,0.0,0.0,0.0,0.0,0.0,0.0,0.0,0.0,0.0,0.0,0.0,0.0,0.0,0.0,0.0,0.0,0.0,0.0,0.0,0.0,0.0,0.0,0.0,0.0,0.0,0.0,0.0,0.0,0.0,0.0,0.0,0.0,0.0,0.0,0.0,0.0,0.0,0.0,0.0,0.0,0.0,0.0,0.0,0.0,0.0,0.0,0.0,0.0,0.0,0.0,0.0,0.0,0.0,0.0,0.0,0.0,0.0,0.0,0.0,0.0,0.0,0.0,0.0,0.0,0.0,0.0,0.0,0.0,0.0,0.0,0.0,0.0,0.0,0.0,0.0,0.0,0.0,0.0,0.0,0.0,0.0,0.0,0.0,0.0,0.0,0.0,0.0,0.0,0.0,0.0,0.0,-2.7255,-3.1031,-3.4008,-3.537,-3.5504,-3.5145,-3.4294,-3.2213,-2.9624,-2.6497,0.0,0.0,0.0,0.0,0.0,0.0,0.0,0.0,0.0,0.0,0.0,0.0,0.0,0.0,0.0,0.0,0.0,0.0,0.0,0.0,0.0,0.0,0.0,0.0,0.0,0.0,0.0,0.0,0.0,0.0,0.0,0.0,0.0,0.0,0.0,0.0,0.0,0.0,0.0,0.0,0.0,0.0,0.0,0.0,0.0,0.0,0.0,0.0,0.0,0.0,0.0,0.0,0.0,0.0,0.0,0.0,0.0,0.0,0.0,0.0,0.0,0.0,0.0,0.0,0.0,0.0,0.0,0.0,0.0,0.0,0.0,0.0,0.0,0.0,0.0,0.0,0.0,0.0,0.0,0.0,0.0,0.0,0.0,0.0,0.0,0.0,0.0,0.0,0.0,0.0,0.0,0.0,0.0,0.0,0.0,0.0,0.0,0.0,0.0,0.0,0.0,0.0,-2.7255,-3.1031,-3.4008,-3.537,-3.5504,-3.5235,-3.4563,-3.2901,-3.0374,-2.6811,0.0,0.0,0.0,0.0,0.0,0.0,0.0,0.0,0.0,0.0,0.0,0.0,0.0,0.0,0.0,0.0,0.0,0.0,0.0,0.0,0.0,0.0,0.0,0.0,0.0,0.0,0.0,0.0,0.0,0.0,0.0,0.0,0.0,0.0,0.0,0.0,0.0,0.0,0.0,0.0,0.0,0.0,0.0,0.0,0.0,0.0,0.0,0.0,0.0,0.0,0.0,0.0,0.0,0.0,0.0,0.0,0.0,0.0,0.0,0.0,0.0,0.0,0.0,0.0,0.0,0.0,0.0,0.0,0.0,0.0,0.0,0.0,0.0,0.0,0.0,0.0,0.0,0.0,0.0,0.0,0.0,0.0,0.0,0.0,0.0,0.0,0.0,0.0,0.0,0.0,0.0,0.0,0.0,0.0,0.0,0.0,0.0,0.0,0.0,0.0,0.0,0.0,-2.7255,-3.1031,-3.4008,-3.537,-3.5504,-3.525,-3.4653,-3.3305,-3.0896,-2.7136,0.0,0.0,0.0,0.0,0.0,0.0,0.0,0.0,0.0,0.0,0.0,0.0,0.0,0.0,0.0,0.0,0.0,0.0,0.0,0.0,0.0,0.0,0.0,0.0,0.0,0.0,0.0,0.0,0.0,0.0,0.0,0.0,0.0,0.0,0.0,0.0,0.0,0.0,0.0,0.0,0.0,0.0,0.0,0.0,0.0,0.0,0.0,0.0,0.0,0.0,0.0,0.0,0.0,0.0,0.0,0.0,0.0,0.0,0.0,0.0,-2.7859,-2.5914,0.0,0.0,0.0,0.0,0.0,0.0,0.0,0.0,0.0,0.0,0.0,0.0,0.0,0.0,0.0,0.0,0.0,0.0,0.0,0.0,0.0,0.0,0.0,0.0,0.0,0.0,0.0,0.0,0.0,0.0,0.0,0.0,0.0,0.0,0.0,0.0,0.0,0.0,0.0,0.0,-2.733,-3.1031,-3.4008,-3.537,-3.5504,-3.5444,-3.5295,-3.3574,-3.1495,-2.9101,-2.5465,0.0,0.0,0.0,0.0,0.0,0.0,0.0,0.0,0.0,0.0,0.0,0.0,0.0,0.0,0.0,0.0,0.0,0.0,0.0,0.0,0.0,0.0,0.0,0.0,0.0,0.0,0.0,0.0,0.0,0.0,0.0,0.0,0.0,0.0,0.0,0.0,0.0,0.0,0.0,0.0,0.0,0.0,0.0,0.0,0.0,0.0,0.0,0.0,0.0,0.0,0.0,0.0,0.0,0.0,0.0,0.0,0.0,0.0,0.0,-3.2422,-3.0415,0.0,0.0,0.0,0.0,0.0,0.0,0.0,0.0,0.0,0.0,0.0,0.0,0.0,0.0,0.0,0.0,0.0,0.0,0.0,0.0,0.0,0.0,0.0,0.0,0.0,0.0,0.0,0.0,0.0,0.0,0.0,0.0,0.0,0.0,0.0,0.0,0.0,0.0,0.0,0.0,-2.7814,-3.1509,-3.4367,-3.54,-3.5504,-3.5504,-3.5504,-3.4247,-3.2467,-3.0178,-2.7171,0.0,0.0,0.0,0.0,0.0,0.0,0.0,0.0,0.0,0.0,0.0,0.0,0.0,0.0,0.0,0.0,0.0,0.0,0.0,0.0,0.0,0.0,0.0,0.0,0.0,0.0,0.0,0.0,0.0,0.0,0.0,0.0,0.0,0.0,0.0,0.0,0.0,0.0,0.0,0.0,0.0,0.0,0.0,0.0,0.0,0.0,0.0,0.0,0.0,0.0,0.0,0.0,0.0,-3.8467,-3.9155,-3.8063,-3.9364,-4.0187,-4.0435,-3.7719,-3.6088,-3.519,-3.3215,0.0,0.0,0.0,0.0,0.0,0.0,0.0,0.0,0.0,0.0,0.0,0.0,0.0,0.0,0.0,0.0,0.0,0.0,0.0,0.0,0.0,0.0,-2.9953,-2.9834,-3.0612,-3.0417,-2.6907,0.0,0.0,0.0,0.0,0.0,0.0,0.0,0.0,0.0,0.0,0.0,-2.8667,-3.2197,-3.4773,-3.5429,-3.5504,-3.5504,-3.5504,-3.4876,-3.347,-3.1001,-2.9037,-2.6327,0.0,0.0,0.0,0.0,0.0,0.0,0.0,0.0,0.0,0.0,0.0,0.0,0.0,0.0,0.0,0.0,0.0,0.0,0.0,0.0,0.0,0.0,0.0,0.0,0.0,0.0,0.0,0.0,0.0,0.0,0.0,0.0,-2.545,-2.6791,0.0,0.0,0.0,0.0,0.0,0.0,0.0,0.0,0.0,0.0,0.0,0.0,0.0,-3.6133,-3.6761,-3.9888,-4.1153,-4.0554,-4.3733,-4.4885,-4.4182,-4.5529,-4.5873,-4.5394,-4.4945,0.0,-3.8616,-3.6641,0.0,0.0,0.0,0.0,0.0,0.0,0.0,0.0,0.0,0.0,0.0,0.0,0.0,0.0,0.0,0.0,0.0,0.0,0.0,0.0,0.0,0.0,-3.5295,-3.4741,-3.4726,-3.4382,-3.2691,-2.931,-2.6093,-2.441,-2.3752,-2.2802,0.0,0.0,0.0,0.0,0.0,0.0,-2.9998,-3.2751,-3.4773,-3.5429,-3.5504,-3.5504,-3.5504,-3.4876,-3.3844,-3.2347,-3.0402,-2.8334,-2.6033,-2.3691,0.0,0.0,0.0,0.0,0.0,0.0,0.0,0.0,0.0,0.0,0.0,0.0,0.0,0.0,0.0,0.0,0.0,0.0,0.0,0.0,0.0,0.0,0.0,0.0,0.0,0.0,0.0,0.0,0.0,-2.5435,-2.7634,-2.8618,-2.9101,-2.8816,0.0,0.0,0.0,0.0,0.0,0.0,0.0,0.0,0.0,-3.6776,-3.911,-4.0816,-4.1833,-4.4407,-4.5364,-4.4736,-4.6935,-4.7623,-4.701,-4.7967,-4.8252,-4.7982,-4.7982,-4.6411,-4.3614,-4.0516,-3.8063,-3.6058,0.0,0.0,0.0,0.0,-3.323,-3.317,-3.5026,-3.5415,-3.4876,-3.338,0.0,0.0,0.0,0.0,0.0,0.0,0.0,-3.13,-3.2796,-3.4831,-3.6507,-3.6567,-3.6866,-3.6866,-3.5908,-3.3829,-3.121,-2.8023,-2.7769,-2.6936,-2.3483,-2.3759,0.0,0.0,0.0,-2.9804,-3.1435,-3.3634,-3.5175,-3.5474,-3.5504,-3.5504,-3.5504,-3.5235,-3.4637,-3.3679,-3.2108,-3.0492,-2.8861,-2.6273,-2.3961,0.0,0.0,0.0,0.0,0.0,0.0,0.0,0.0,0.0,0.0,0.0,0.0,0.0,0.0,0.0,0.0,0.0,0.0,0.0,0.0,0.0,0.0,0.0,0.0,0.0,0.0,0.0,0.0,-2.7684,-2.9849,-3.0535,-3.1898,-3.1929,0.0,0.0,0.0,0.0,0.0,0.0,-3.522,-3.7749,-3.9709,-4.0876,-4.3314,-4.5065,-4.6052,-4.7698,-4.8297,-4.7818,-4.897,-4.9254,-4.8805,-4.9464,-4.9673,-4.9508,-4.9508,-4.8865,-4.7534,-4.4077,-4.1459,-3.9499,-3.7883,-3.6851,-3.6405,-3.7375,-3.7434,-3.7389,-3.9993,-4.0472,-3.9634,-3.7838,-3.6582,-3.5235,-3.2437,0.0,0.0,0.0,0.0,-3.3051,-3.5385,-3.69,-3.7853,-3.8317,-3.8661,-3.8721,-3.8063,-3.7419,-3.5759,-3.1658,-3.148,-3.0748,-2.6787,-2.6946,0.0,-2.7146,-2.9355,-3.1509,-3.2841,-3.4472,-3.5504,-3.5504,-3.5504,-3.5504,-3.5504,-3.5504,-3.5205,-3.4548,-3.3395,-3.2168,-3.0821,-2.8562,-2.6408,-2.4403,0.0,0.0,0.0,0.0,0.0,0.0,0.0,0.0,0.0,0.0,0.0,0.0,0.0,0.0,0.0,0.0,0.0,0.0,0.0,0.0,0.0,0.0,0.0,0.0,0.0,0.0,0.0,0.0,0.0,-3.3215,-3.504,0.0,0.0,0.0,0.0,-3.4264,-3.6626,-3.8661,-3.9978,-4.2536,-4.4287,-4.4975,-4.698,-4.8072,-4.8132,-4.8895,-4.9239,-4.9224,-4.9868,-5.0121,-5.0121,-5.0825,-5.0734,-5.0136,-5.0136,-4.9808,-4.906,-4.6935,-4.4859,-4.2976,-4.2297,-4.1647,-4.104,-4.1153,-4.1115,-4.1205,-4.2021,-4.1871,-4.1369,-4.1886,-3.952,-3.6507,-3.6896,-3.525,0.0,0.0,-3.703,-3.8317,-3.9738,-4.0621,-4.1145,-4.1175,-4.0726,-4.0127,-3.9454,-3.8781,-3.7494,-3.4788,-3.3784,-3.2721,-3.0567,0.0,-3.0522,-3.1107,-3.1884,-3.2886,-3.4234,-3.504,-3.5504,-3.5504,-3.5504,-3.5504,-3.5504,-3.5504,-3.5205,-3.4548,-3.3829,-3.2856,-3.1511,-3.0163,-2.8487,-2.6482,-2.3377,0.0,0.0,0.0,0.0,0.0,0.0,0.0,0.0,0.0,0.0,0.0,0.0,0.0,0.0,0.0,0.0,0.0,0.0,0.0,0.0,0.0,0.0,0.0,0.0,0.0,0.0,0.0,0.0,-3.6522,-3.8422,0.0,-3.6507,-3.7509,-3.8287,-3.8287,-4.0726,-4.2596,-4.3494,-4.5663,-4.698,-4.7204,-4.873,-4.9538,-4.9538,-5.0197,-5.0526,-5.0526,-5.075,-5.0823,-5.0823,-5.1109,-5.1094,-5.0823,-5.0823,-5.0496,-4.9838,-4.9089,-4.7639,-4.5783,-4.4676,-4.3853,-4.3269,-4.3269,-4.3269,-4.3359,-4.4018,-4.4092,-4.3793,-4.318,-4.1743,-4.0194,-3.9529,-3.8676,-3.8093,-3.8811,-3.9334,-3.9888,-4.0801,-4.1205,-4.1422,-4.1422,-4.1205,-4.0846,-4.0187,-3.9858,-3.9155,-3.7345,-3.6462,-3.525,-3.2841,-3.3155,-3.3365,-3.2288,-3.308,-3.4113,-3.5026,-3.5355,-3.5504,-3.5504,-3.5504,-3.5504,-3.5504,-3.5504,-3.5205,-3.4548,-3.3858,-3.3095,-3.2168,-3.0507,-2.9041,-2.7904,-2.5509,-2.2855,0.0,0.0,0.0,0.0,0.0,0.0,0.0,0.0,0.0,0.0,0.0,0.0,0.0,0.0,0.0,0.0,0.0,0.0,0.0,0.0,0.0,0.0,0.0,0.0,0.0,-3.5145,-3.8048,-3.8661,-4.0891,-4.1594,-3.9604,-4.101,-4.2043,-4.2043,-4.4287,-4.5843,-4.6277,-4.7982,-4.894,-4.894,-5.0212,-5.0853,-5.0853,-5.1558,-5.1872,-5.1872,-5.1872,-5.1872,-5.1872,-5.1872,-5.1753,-5.1558,-5.1558,-5.1184,-5.0524,-5.0524,-4.9628,-4.8192,-4.707,-4.6367,-4.5963,-4.5738,-4.5648,-4.5648,-4.5648,-4.5648,-4.5454,-4.4362,-4.3554,-4.2821,-4.1728,-4.125,-4.1055,-4.1055,-4.1055,-4.1205,-4.1863,-4.2043,-4.2043,-4.2043,-4.1878,-4.1632,-4.116,-4.0711,-4.0142,-3.9245,-3.8347,-3.712,-3.516,-3.5385,-3.5385,-3.4053,-3.4397,-3.4996,-3.5444,-3.5504,-3.5504,-3.5504,-3.5504,-3.5504,-3.5504,-3.5504,-3.531,-3.4861,-3.3993,-3.32,-3.2542,-3.0821,-2.949,-2.8622,-2.6286,-2.353,-2.0408,0.0,0.0,0.0,0.0,0.0,0.0,0.0,0.0,0.0,0.0,0.0,0.0,0.0,0.0,0.0,0.0,0.0,0.0,0.0,0.0,0.0,0.0,0.0,-3.3679,-3.7599,-4.0247,-3.9694,-4.2462,-4.3673,-4.1788,-4.3913,-4.5409,-4.5394,-4.7234,-4.8341,-4.8341,-4.9568,-5.0226,-5.0255,-5.1528,-5.2217,-5.2232,-5.286,-5.3174,-5.3174,-5.3174,-5.3174,-5.3174,-5.3174,-5.283,-5.2232,-5.2217,-5.1843,-5.1244,-5.1229,-5.084,-5.0166,-4.9553,-4.9329,-4.9239,-4.8551,-4.8297,-4.8102,-4.683,-4.6324,-4.6204,-4.5544,-4.49,-4.4257,-4.3629,-4.3024,-4.2485,-4.247,-4.2455,-4.2605,-4.3125,-4.329,-4.329,-4.329,-4.2851,-4.2425,-4.2396,-4.1392,-4.0442,-4.0412,-3.9349,-3.8242,-3.7554,-3.6941,-3.6537,-3.6522,-3.5968,0.0,-3.5534,-3.5534,-3.5534,-3.5504,-3.5504,-3.5504,-3.5504,-3.5504,-3.5489,-3.5444,-3.4203,-3.317,-3.2512,-3.1195,-2.9879,-2.8622,-2.5628,-2.2537,-1.9418,0.0,0.0,0.0,0.0,0.0,0.0,0.0,0.0,0.0,0.0,0.0,0.0,0.0,0.0,0.0,0.0,0.0,0.0,0.0,0.0,0.0,-3.5011,-3.7793,-3.7793,-4.0113,-4.2476,-4.4186,-4.5648,-4.6456,-4.6396,-4.7474,-4.8026,-4.7504,-4.885,-4.9703,-4.9703,-5.045,-5.1169,-5.1648,-5.2007,-5.2426,-5.2905,-5.3099,-5.3174,-5.3174,-5.3174,-5.3174,-5.3174,-5.3174,-5.3084,-5.289,-5.2411,-5.2097,-5.1887,-5.1409,-5.1109,-5.0885,-5.0227,-4.9688,-4.9284,-4.9105,-4.8745,-4.8237,-4.7878,-4.7429,-4.692,-4.6262,-4.5918,-4.5648,-4.4975,-4.4631,-4.4392,-4.3913,-4.3778,-4.3703,-4.3364,-4.329,-4.329,-4.329,-4.3155,-4.294,-4.25,-4.2111,-4.1572,-4.0591,-4.0098,-3.9469,-3.8317,-3.7988,-3.7704,-3.7225,-3.7,-3.6731,-3.6267,-3.6222,-3.6028,-3.5549,-3.5504,-3.5504,-3.5504,-3.5504,-3.51,-3.4113,-3.326,-3.2452,-3.1795,-3.0537,-2.9445,-2.8622,-2.6817,-2.4731,0.0,0.0,0.0,0.0,0.0,0.0,0.0,0.0,0.0,0.0,0.0,0.0,0.0,0.0,0.0,0.0,0.0,0.0,0.0,0.0,0.0,0.0,-3.8362,-4.1145,-4.2536,-4.3718,-4.5005,-4.6561,-4.7563,-4.8282,-4.87,-4.9284,-4.9523,-4.9134,-5.0062,-5.0719,-5.1003,-5.1424,-5.1932,-5.2591,-5.289,-5.3219,-5.3608,-5.3892,-5.4027,-5.4027,-5.4027,-5.4027,-5.4027,-5.4027,-5.3862,-5.3593,-5.3204,-5.2725,-5.2172,-5.1783,-5.1468,-5.1184,0.0,0.0,0.0,0.0,-4.9254,-4.87,-4.8386,-4.8042,-4.7608,-4.695,-4.6741,-4.6606,-4.5933,-4.5723,-4.5589,-4.4915,-4.4721,-4.4571,-4.3873,-4.3708,-4.3633,-4.3364,-4.329,-4.3185,-4.2851,-4.259,-4.2171,-4.1407,-4.0771,0.0,-3.9364,-3.8766,-3.8257,-3.7883,-3.7584,-3.7285,-3.6926,-3.6881,-3.6731,-3.6342,-3.6073,-3.5923,-3.5923,-3.5669,0.0,0.0,0.0,-3.2377,-3.1122,-3.0118,0.0,0.0,0.0,0.0,0.0,0.0,0.0,0.0,-2.0194,-1.9725,0.0,0.0,0.0,0.0,0.0,0.0,0.0,0.0,0.0,0.0,0.0,0.0,0.0,0.0,0.0,0.0,-4.1414,-4.3853,-4.6875,-4.7489,-4.7638,-4.7638,-4.8671,-4.9449,-4.9524,-5.0017,-5.03,-5.03,-5.0913,-5.1588,-5.2172,-5.2276,0.0,0.0,0.0,-5.4251,-5.4326,-5.4895,-5.5194,-5.5194,-5.5194,-5.5194,-5.5194,-5.5194,-5.488,-5.4326,-5.4236,-5.3533,-5.2411,-5.2261,-5.1813,-5.1214,-5.1214,-5.1214,-5.1154,-5.0524,-4.9942,-4.9344,-4.8716,0.0,0.0,-4.7608,-4.7369,-4.7189,-4.6606,-4.6384,-4.6249,-4.5603,-4.5409,-4.5259,-4.4601,-4.4421,-4.4257,-4.3559,-4.3409,-4.3379,-4.3305,-4.288,-4.2485,-4.241,-4.1452,-4.0576,-4.0427,-3.9349,-3.8497,-3.8497,-3.8018,-3.7614,-3.7524,-3.7524,-3.7494,-3.7419,-3.6911,0.0,-3.6492,-3.5953,-3.5549,-3.54,-3.4203,-3.2662,-3.0806,-3.0268,-3.0011,-2.9936,-3.0447,-3.0317,-2.9507,-2.9285,-2.8565,-2.7322,-2.2714,-2.1317,0.0,0.0,0.0,0.0,0.0,0.0,0.0,0.0,0.0,0.0,0.0,0.0,0.0,0.0,0.0,-4.0591,-4.3569,-4.5963,-4.713,-4.8671,-4.9628,-4.9628,-4.9852,-5.0257,-5.0795,-5.096,-5.0988,-5.0988,-5.1633,-5.2067,-5.2187,-5.2695,-5.3309,-5.3997,-5.4147,-5.4461,-5.4999,-5.5134,-5.5194,-5.5194,-5.5194,0.0,-5.5194,-5.5194,-5.5119,-5.497,-5.4446,-5.4057,-5.3743,-5.265,-5.1813,-5.1214,-5.1214,-5.1214,-5.1199,-5.1065,-5.0569,-4.9986,-4.9867,-4.9164,-4.8267,-4.8132,-4.7743,-4.7279,-4.716,-4.7115,0.0,-4.6322,-4.6127,-4.5963,-4.5289,-4.511,-4.4945,-4.4287,-4.4122,-4.3947,-4.3409,-4.32,-4.2985,-4.25,-4.2186,-4.1692,-4.0591,-3.9753,-3.923,-3.923,-3.911,-3.8826,-3.8272,-3.8197,-3.8003,-3.7464,-3.73,-3.703,-3.6537,-3.6372,-3.5833,-3.4773,-3.3933,-3.308,-3.2168,-3.2527,-3.2482,-3.1958,-3.2063,-3.1471,-3.0201,-3.0136,-2.9919,-2.9449,-2.6531,-2.5129,0.0,0.0,0.0,0.0,0.0,0.0,0.0,0.0,0.0,0.0,0.0,-3.4128,-3.6103,0.0,-4.0756,-4.3419,-4.5514,-4.716,-4.8147,-4.9419,-5.0196,-5.0196,-5.048,-5.0808,-5.1184,-5.1214,-5.1349,-5.1693,-5.2007,-5.2486,-5.3174,-5.3518,-5.4012,-5.4685,-5.47,-5.4865,-5.5194,-5.5194,-5.5194,-5.5194,-5.5194,-5.5194,-5.5194,-5.5194,-5.5194,-5.5179,-5.485,-5.4521,-5.4102,-5.2755,-5.2007,-5.1678,-5.1349,-5.1214,-5.1214,-5.1214,-5.1005,-5.0629,-5.03,-4.9762,-4.9209,-4.888,-4.8341,-4.7803,-4.7803,-4.7563,-4.7234,-4.6905,-4.6815,-4.6666,-4.5978,-4.5813,-4.5633,-4.496,-4.4556,-4.4227,-4.3858,-4.3529,-4.32,-4.291,-4.262,-4.2186,-4.1527,-4.0831,-4.0172,-3.9514,-3.9388,-3.929,-3.8945,-3.8901,-3.8781,-3.8452,-3.8108,-3.7778,-3.7464,-3.6851,-3.5941,-3.4593,-3.4204,-3.3694,-3.3036,-3.332,-3.3335,-3.3021,-3.332,-3.3167,-3.2442,-3.2297,-3.2137,-3.1994,-3.0336,-2.9114,0.0,0.0,0.0,0.0,0.0,0.0,0.0,-3.0445,-3.1629,-3.3469,-3.5549,-3.7793,-4.0307,-4.1639,-4.3254,-4.6052,-4.7174,-4.8102,-4.9299,-5.0017,-5.0375,-5.0375,-5.0853,-5.1214,-5.1214,-5.1214,-5.1498,-5.2157,-5.2321,-5.292,-5.4147,-5.4326,-5.464,-5.5179,-5.5194,-5.5194,-5.5194,-5.5194,-5.5194,-5.5194,-5.5194,-5.5194,-5.5194,-5.5194,-5.5194,-5.5194,-5.5194,-5.482,-5.4132,-5.3039,-5.2441,-5.2157,-5.1618,-5.1334,-5.1214,-5.1214,-5.1214,-5.1139,-5.0569,-5.03,-5.0106,-4.9628,-4.9015,-4.8461,-4.8327,-4.7923,-4.7474,-4.7339,-4.7309,-4.7189,-4.6651,-4.6474,-4.6352,-4.5663,-4.508,-4.4631,-4.4377,-4.3898,-4.3439,-4.3319,-4.291,-4.2545,-4.2425,-4.1961,-4.113,-3.9813,-3.9568,-3.9574,-3.9439,-3.9388,-3.9388,-3.9388,-3.8916,-3.8542,-3.8407,-3.733,-3.6148,-3.4968,-3.4893,-3.4608,-3.3918,-3.3888,-3.3888,-3.3888,-3.4397,-3.4698,-3.4681,-3.4427,-3.4279,-3.4279,-3.331,-3.2208,-2.8727,-2.7874,-2.8004,-2.9639,-3.0058,-3.1315,0.0,-3.6851,-3.6941,-3.8347,-4.0644,-4.2387,-4.2216,-4.4137,-4.6082,-4.704,-4.8237,-4.9299,-4.9986,-5.0644,-5.1109,-5.1109,-5.1169,-5.1214,-5.1214,-5.1214,-5.1498,-5.2157,-5.274,-5.3399,-5.4162,-5.476,-5.5119,-5.5194,-5.5194,-5.5194,-5.5194,-5.5194,-5.5194,-5.5194,-5.5194,-5.5194,-5.5194,-5.5194,-5.5194,-5.5194,-5.5194,-5.482,-5.4206,-5.4042,-5.3279,-5.2187,-5.2112,-5.1738,-5.1214,-5.1214,-5.1214,-5.1214,-5.1124,-5.0689,-5.0181,-5.0106,-4.9688,-4.909,-4.8461,-4.8237,-4.8057,-4.7474,-4.7309,-4.7294,-4.7219,-4.7189,-4.7025,-4.6367,-4.6157,-4.5768,-4.4571,-4.4257,-4.3992,-4.3409,-4.3245,-4.3045,-4.25,-4.2336,-4.1841,-4.0487,-4.0292,-4.0083,-3.9499,-3.9388,-3.9388,-3.9388,-3.9313,-3.905,-3.8437,-3.7719,-3.7,-3.6312,-3.6267,-3.5968,-3.531,-3.528,-3.528,-3.528,-3.5355,-3.5385,-3.5385,-3.5362,-3.5326,-3.5326,-3.4327,-3.2891,-3.2841,-3.2407,-3.2482,-3.3679,-3.4547,-3.5774,-3.8392,-3.908,-3.9634,-4.1302,-4.2826,-4.4062,-4.4571,-4.5574,-4.6666,-4.7713,-4.87,-4.9494,-5.0106,-5.042,-5.0599,-5.0599,-5.0316,-5.0391,-5.1154,-5.1214,-5.1498,-5.2157,-5.2815,-5.3473,-5.4177,-5.4835,-5.5194,-5.5194,-5.5194,-5.5194,-5.5194,-5.5194,-5.5194,-5.5194,-5.5194,-5.5194,-5.5194,-5.5194,-5.5194,-5.5194,-5.5194,-5.5029,-5.4745,-5.4371,-5.3877,-5.3294,-5.2501,-5.2037,-5.1738,-5.1364,-5.1214,-5.1214,-5.1214,-5.1035,-5.0764,-5.0764,-5.0361,-4.9778,-4.9508,-4.8895,-4.8222,-4.7952,-4.7593,-4.7309,-4.7309,-4.7309,-4.7234,-4.6965,-4.6563,-4.613,-4.5562,-4.487,-4.4227,-4.3958,-4.3559,-4.32,-4.297,-4.2925,-4.2611,-4.1722,-4.0891,-4.0307,-4.0023,-3.9649,-3.9388,-3.9388,-3.9388,-3.914,-3.8452,-3.8138,-3.7704,-3.706,-3.703,-3.6911,-3.6626,-3.6267,-3.6073,-3.6073,-3.5699,-3.5504,-3.5504,-3.5504,-3.5504,-3.5504,-3.5067,-3.4158,-3.4996,-3.5355,-3.5968,-3.6806,-3.8123,-3.9394,-4.0068,-4.0741,-4.1609,-4.3006,-4.3813,-4.4616,-4.5589,-4.6025,-4.6756,-4.8072,-4.888,-4.9553,-5.0345,-5.03,-5.0121,-4.9987,-4.9389,-4.9374,-5.0316,-5.0735,-5.1289,-5.2142,-5.2815,-5.3473,-5.4177,-5.4835,-5.5194,-5.5194,-5.5194,-5.5194,-5.5194,-5.5194,-5.5194,-5.5194,-5.5194,-5.5194,-5.5194,-5.5194,-5.5194,-5.5194,-5.5194,-5.5194,-5.5149,-5.4685,-5.4371,-5.4117,-5.3129,-5.2531,-5.2142,-5.1663,-5.1379,-5.1214,-5.1214,-5.1214,-5.1214,-5.1214,-5.0853,-5.042,-5.024,-4.9583,-4.879,-4.8611,-4.8072,-4.7578,-4.7578,-4.7444,-4.7309,-4.7309,-4.6935,-4.6546,-4.6324,-4.5559,-4.4766,-4.4392,-4.3888,-4.3499,-4.3319,-4.329,-4.3125,-4.2701,-4.1669,-4.0876,-4.0696,-4.0098,-3.9619,-3.9403,-3.9388,-3.9215,-3.8721,-3.8676,-3.8392,-3.7719,-3.7689,-3.7599,-3.7419,-3.6985,-3.6746,-3.6746,-3.6267,-3.6028,-3.6028,-3.6028,-3.6028,-3.6028,-3.6028,-3.5618,-3.3724,-3.4981,-3.6761,-3.8018,-3.9828,-4.1459,-4.2156,-4.2776,-4.323,-4.329,-4.3813,-4.4332,-4.4362,-4.5439,-4.6756,-4.8072,-4.888,-4.9763,-5.1005,-5.0599,-5.0002,-4.9419,-4.876,-4.8341,-4.8371,-4.9523,-5.0764,-5.2097,-5.2815,-5.3473,-5.4177,-5.4835,-5.5194,-5.5194,-5.5194,-5.5194,-5.5194,-5.5194,-5.5194,-5.5194,-5.5194,-5.5194,-5.5194,-5.5194,-5.5194,-5.5194,-5.5194,-5.5194,-5.5194,-5.5164,-5.479,-5.4206,-5.4162,-5.3339,-5.2202,-5.2172,-5.1768,-5.1214,-5.1214,-5.1214,-5.1214,-5.1214,-5.1214,-5.1065,-5.039,-5.0166,-5.0001,-4.9419,-4.8805,-4.8252,-4.8252,-4.7788,-4.7309,-4.7309,-4.7294,-4.71,-4.6456,-4.6249,-4.5831,-4.4571,-4.4302,-4.4077,-4.3409,-4.329,-4.329,-4.3275,-4.2731,-4.2111,-4.1467,-4.0771,-4.0127,-3.9448,-3.9388,-3.9373,-3.9394,-3.9394,-3.9095,-3.8407,-3.8362,-3.8078,-3.7434,-3.7389,-3.7375,-3.7375,-3.736,-3.7345,-3.7345,-3.7345,-3.7345,-3.7345,-3.7345,-3.7325,-3.5804,-3.7554,-3.9394,-4.0733,-4.2192,-4.3389,-4.3614,-4.3823,-4.3947,-4.3947,-4.3768,-4.3753,-4.4227,-4.4691,-4.5424,-4.677,-4.7908,-4.9075,-5.0345,-5.033,-4.9838,-4.8745,-4.8416,-4.8117,-4.7683,-4.8431,-4.9494,-5.0795,-5.1917,-5.2815,-5.3488,-5.4581,-5.5194,-5.5194,-5.5194,-5.5194,-5.5194,-5.5194,-5.5194,-5.5194,-5.5194,-5.5194,-5.5194,-5.5194,-5.5194,-5.5194,-5.5194,-5.5194,-5.5194,-5.5194,-5.5059,-5.482,-5.4386,-5.3937,-5.3428,-5.2531,-5.2067,-5.1813,-5.1364,-5.1214,-5.1214,-5.1214,-5.1214,-5.1184,-5.0913,-5.0539,-5.0151,-4.9972,-4.9449,-4.888,-4.8401,-4.8117,-4.7848,-4.7414,-4.7309,-4.7249,-4.7025,-4.6636,-4.6145,-4.5696,-4.5274,-4.4751,-4.4092,-4.3947,-4.3798,-4.3364,-4.2776,-4.2171,-4.1512,-4.119,-4.0801,-4.0142,-4.0068,-3.9888,-3.9454,-3.9388,-3.932,-3.9095,-3.9065,-3.8975,-3.8751,-3.8302,-3.8063,-3.8063,-3.7629,-3.7404,-3.7404,-3.7404,-3.7404,-3.7404,-3.7404,-3.7404,-3.7883,-3.9589,-4.113,-4.2671,-4.3868,-4.4601,-4.4362,-4.4317,-4.4182,-4.3718,-4.309,-4.2686,-4.288,-4.291,-4.3509,-4.5304,-4.6711,-4.8207,-4.9941,-4.9986,-4.9494,-4.8416,-4.8072,-4.7773,-4.7339,-4.7683,-4.8581,-5.0076,-5.1678,-5.274,-5.3159,-5.4461,-5.5194,-5.5194,-5.5194,-5.5194,-5.5194,-5.5194,-5.5194,-5.5194,-5.5194,-5.5194,-5.5194,-5.5194,-5.5194,-5.5194,-5.5194,-5.5194,-5.5194,-5.5194,-5.5194,-5.5149,-5.473,-5.4416,-5.4102,-5.3234,-5.2606,-5.2097,-5.1454,-5.1214,-5.1214,-5.1214,-5.1214,-5.1214,-5.1214,-5.0883,-5.0539,-5.0539,-5.0122,-4.9508,-4.909,-4.8641,-4.8177,-4.7758,-4.7474,-4.7309,-4.7309,-4.698,-4.6606,-4.6324,-4.5963,-4.5439,-4.4781,-4.4466,-4.4092,-4.3394,-4.297,-4.2476,-4.1856,-4.1767,-4.1512,-4.0816,-4.0756,-4.0576,-4.0157,-3.9903,-3.9768,-3.9768,-3.9508,-3.9388,-3.9388,-3.899,-3.8751,-3.8751,-3.8332,-3.8123,-3.8123,-3.8123,-3.8123,-3.8123,-3.8123,-3.8123,-3.9843,-4.1055,-4.2043,-4.3943,-4.4855,-4.5125,-4.4511,-4.4317,-4.3883,-4.2575,-4.1752,-4.101,-4.0277,-4.0262,-4.1175,-4.3703,-4.5394,-4.7221,-4.9792,-4.9718,-4.9164,-4.8416,-4.7818,-4.7429,-4.7369,-4.7414,-4.8222,-5.0046,-5.2007,-5.3114,-5.3174,-5.4461,-5.5194,-5.5194,-5.5194,-5.5194,-5.5194,-5.5194,-5.5194,-5.5194,-5.5194,-5.5194,-5.5194,-5.5194,-5.5194,-5.5194,-5.5194,-5.5194,-5.5194,-5.5194,-5.5194,-5.5194,-5.5194,-5.4805,-5.4266,-5.4221,-5.3399,-5.2202,-5.1513,-5.1244,-5.1214,-5.1214,-5.1214,-5.1214,-5.1214,-5.1214,-5.1214,-5.1214,-5.0719,-5.0226,-5.0196,-4.9314,-4.8371,-4.8297,-4.7803,-4.7339,-4.7309,-4.7309,-4.7115,-4.6444,-4.6309,-4.6112,-4.5454,-4.4781,-4.4067,-4.3439,-4.3319,-4.3105,-4.253,-4.2455,-4.2201,-4.1542,-4.1467,-4.1452,-4.1422,-4.0816,-4.0442,-4.0442,-3.9858,-3.9514,-3.9433,-3.9433,-3.9454,-3.9388,-3.9388,-3.9388,-3.9388,-3.9388,-3.9388,-3.9388,-3.9388,-3.9388,-4.184,-4.3419,-4.4541,-4.5559,-4.5544,-4.5244,-4.508,-4.4287,-4.3035,-4.128,-3.9963,-3.8661,-3.7045,-3.8347,-4.0053,-4.1205,-4.4586,-4.7638,-4.9284,-5.0212,-5.0301,-4.9194,-4.9299,-4.9105,-4.8132,-4.891,-4.9657,-5.0151,-5.1154,-5.2157,-5.3129,-5.4461,-5.5194,-5.5194,-5.5194,-5.5194,-5.5194,-5.5194,-5.5194,-5.5194,-5.5194,-5.5194,-5.5194,-5.5194,-5.5194,-5.5194,-5.5194,-5.5194,-5.5194,-5.5194,-5.5194,-5.5194,-5.5194,-5.5089,-5.488,-5.4386,-5.3997,-5.3533,-5.2351,-5.1633,-5.1214,-5.1214,-5.1214,-5.1214,-5.1214,-5.1214,-5.1214,-5.1214,-5.1094,-5.0808,-5.0315,-4.9941,-4.9494,-4.8521,-4.8162,-4.7908,-4.7414,-4.7309,-4.7249,-4.7085,-4.6651,-4.6277,-4.6097,-4.508,-4.4257,-4.4092,-4.3604,-4.323,-4.3105,-4.309,-4.2836,-4.2216,-4.2156,-4.1946,-4.1452,-4.122,-4.113,-4.113,-4.0965,-4.0666,-4.0172,-4.0157,-3.9918,-3.9388,-3.9388,-3.9388,-3.9388,-3.9388,-3.9388,-3.9388,-3.9388,-3.9388,-4.321,-4.4736,-4.5843,-4.619,-4.6037,-4.5439,-4.4272,-4.321,-4.1669,-3.8841,-3.7404,-3.6163,-3.4502,-3.6118,-3.8093,-3.932,-4.3165,-4.6666,-4.8566,-4.9718,-5.0197,-4.9748,-5.0017,-4.9912,-4.9209,-4.9762,-5.0435,-5.1003,-5.1708,-5.2396,-5.3144,-5.4461,-5.5194,-5.5194,-5.5194,-5.5194,-5.5194,-5.5194,-5.5194,-5.5194,-5.5194,-5.5194,-5.5194,-5.5194,-5.5194,-5.5194,-5.5194,-5.5194,-5.5194,-5.5194,-5.5194,-5.5194,-5.5194,-5.5194,-5.5149,-5.4775,-5.4461,-5.4102,-5.3339,-5.265,-5.1977,-5.1409,-5.1214,-5.1214,-5.1214,-5.1214,-5.1214,-5.1214,-5.1214,-5.1124,-5.0719,-5.0405,-5.0001,-4.9314,-4.8701,-4.8192,-4.7818,-4.7519,-4.7309,-4.7309,-4.701,-4.6666,-4.6324,-4.5693,-4.5095,-4.4781,-4.4182,-4.3723,-4.3723,-4.3469,-4.3155,-4.2821,-4.2776,-4.2641,-4.2267,-4.1968,-4.1856,-4.1856,-4.1572,-4.122,-4.0846,-4.0831,-4.0651,-4.0292,-4.0277,-4.0142,-3.9843,-3.9843,-3.9709,-3.9388,-3.9388,-3.9388,-4.4227,-4.5499,-4.6384,-4.6309,-4.6204,-4.5499,-4.2875,-4.1617,-3.9873,-3.5923,-3.4562,-3.3664,-3.2243,-3.3844,-3.5998,-3.7943,-4.1594,-4.5125,-4.7773,-4.879,-4.9508,-5.0121,-5.027,-5.0315,-5.0315,-5.0315,-5.0823,-5.2112,-5.2815,-5.3219,-5.3309,-5.4506,-5.5194,-5.5194,-5.5194,-5.5194,-5.5194,-5.5194,-5.5194,-5.5194,-5.5194,-5.5194,-5.5194,-5.5194,-5.5194,-5.5194,-5.5194,-5.5194,-5.5194,-5.5194,-5.5194,-5.5194,-5.5194,-5.5194,-5.5194,-5.5194,-5.4835,-5.4326,-5.4236,-5.3817,-5.3099,-5.1783,-5.1349,-5.1334,-5.1244,-5.1214,-5.1214,-5.1214,-5.1214,-5.1214,-5.1214,-5.0749,-5.03,-5.0211,-4.9374,-4.8521,-4.8431,-4.7893,-4.7414,-4.7324,-4.7309,-4.713,-4.6503,-4.6339,-4.6112,-4.5529,-4.487,-4.4451,-4.4451,-4.3753,-4.329,-4.329,-4.329,-4.329,-4.329,-4.2821,-4.253,-4.253,-4.1953,-4.1609,-4.1557,-4.1504,-4.1512,-4.1422,-4.1422,-4.11,-4.0531,-4.0531,-4.0232,-3.9679,-3.9679,-3.9679,-4.5577,-4.6546,-4.6995,-4.6456,-4.5903,-4.4781,-4.2147,-4.0187,-3.7793,-3.3844,-3.2482,-3.1451,-2.9624,-3.2228,-3.5295,-3.727,-4.0935,-4.4466,-4.71,-4.8506,-4.9508,-5.0121,-5.0674,-5.105,-5.105,-5.105,-5.1364,-5.2142,-5.2815,-5.3428,-5.3997,-5.476,-5.5194,-5.5194,-5.5194,-5.5194,-5.5194,-5.5194,-5.5194,-5.5194,-5.5194,-5.5194,-5.5194,-5.5194,-5.5194,-5.5194,-5.5194,-5.5194,-5.5194,-5.5194,-5.5194,-5.5194,-5.5194,-5.5194,-5.5194,-5.5194,-5.5119,-5.494,-5.4401,-5.4132,-5.3817,-5.2471,-5.2037,-5.1932,-5.1379,-5.1214,-5.1214,-5.1214,-5.1214,-5.1214,-5.1214,-5.1124,-5.0868,-5.0315,-5.0016,-4.9748,-4.9209,-4.8581,-4.7952,-4.7414,-4.7309,-4.7264,-4.716,-4.6681,-4.6234,-4.6115,-4.5559,-4.5125,-4.5125,-4.4077,-4.329,-4.329,-4.329,-4.329,-4.329,-4.3185,-4.3125,-4.3125,-4.3021,-4.2761,-4.2246,-4.2231,-4.1976,-4.1384,-4.1422,-4.1324,-4.1205,-4.1205,-4.1145,-4.104,-4.104,-4.104,-4.5603,-4.6531,-4.7145,-4.6486,-4.5544,-4.3823,-4.0157,-3.7778,-3.5162,-3.0836,-2.9415,-2.8682,-2.7724,-3.0507,-3.3484,-3.5115,-3.8422,-4.1938,-4.5274,-4.6576,-4.7952,-4.9941,-5.0764,-5.1214,-5.1214,-5.1214,-5.1633,-5.2636,-5.2995,-5.3473,-5.4177,-5.4835,-5.5194,-5.5194,-5.5194,-5.5194,-5.5194,-5.5194,-5.5194,-5.5194,-5.5194,-5.5194,-5.5194,-5.5194,-5.5194,-5.5194,-5.5194,-5.5194,-5.5194,-5.5194,-5.5194,-5.5194,-5.5194,-5.5194,-5.5194,-5.5194,-5.5194,-5.5149,-5.4835,-5.4715,-5.4566,-5.3563,-5.277,-5.2142,-5.1828,-5.1498,-5.1214,-5.1214,-5.1214,-5.1214,-5.1214,-5.1214,-5.1139,-5.0779,-5.0435,-5.0001,-4.9449,-4.8745,-4.8192,-4.7878,-4.7534,-4.7309,-4.7309,-4.704,-4.683,-4.683,-4.6262,-4.5828,-4.5828,-4.496,-4.4227,-4.3843,-4.3499,-4.329,-4.329,-4.329,-4.329,-4.329,-4.329,-4.3155,-4.288,-4.2865,-4.2716,-4.2402,-4.2402,-4.2222,-4.1931,-4.1931,-4.1752,-4.1422,-4.1422,-4.1422,-4.5214,-4.6067,-4.6756,-4.6232,-4.499,-4.2716,-3.8242,-3.5579,-3.2811,-2.8319,-2.6866,-2.6422,-2.6557,-2.8951,-3.1436,-3.3215,-3.5908,-3.9155,-4.312,-4.4496,-4.6262,-4.9403,-5.0526,-5.1065,-5.1214,-5.1214,-5.1768,-5.3084,-5.3458,-5.3847,-5.4401,-5.491,-5.5194,-5.5194,-5.5194,-5.5194,-5.5194,-5.5194,-5.5194,-5.5194,-5.5194,-5.5194,-5.5194,-5.5194,-5.5194,-5.5194,-5.5194,-5.5194,-5.5194,-5.5194,-5.5194,-5.5194,-5.5194,-5.5194,-5.5194,-5.5194,-5.5194,-5.5194,-5.5194,-5.5194,-5.5104,-5.4596,-5.3608,-5.2606,-5.2456,-5.1947,-5.1424,-5.1424,-5.1334,-5.1214,-5.1214,-5.1214,-5.1214,-5.1214,-5.0779,-5.0272,-4.9613,-4.9075,-4.8671,-4.8521,-4.7967,-4.7519,-4.7519,-4.7399,-4.7309,-4.7309,-4.686,-4.6488,-4.6488,-4.5933,-4.5319,-4.4796,-4.4152,-4.3708,-4.3708,-4.3589,-4.3499,-4.3499,-4.3364,-4.329,-4.329,-4.329,-4.329,-4.329,-4.329,-4.309,-4.2605,-4.2605,-4.2312,-4.1803,-4.1803,-4.1803,-4.4975,-4.5394,-4.5469,-4.5409,-4.3958,-4.1527,-3.7494,-3.4562,-3.1554,-2.7515,-2.6153,-2.5884,-2.6482,-2.7844,-2.9879,-3.2991,-3.4771,-3.715,-4.11,-4.324,-4.5424,-4.8147,-4.9568,-5.051,-5.1154,-5.1214,-5.1768,-5.3084,-5.4311,-5.5029,-5.5089,-5.5164,-5.5194,-5.5194,-5.5194,-5.5194,-5.5194,-5.5194,-5.5194,-5.5194,-5.5194,-5.5194,-5.5194,-5.5194,-5.5194,-5.5194,-5.5194,-5.5194,-5.5194,-5.5194,-5.5194,-5.5194,-5.5194,-5.5194,-5.5194,-5.5194,-5.5194,-5.5194,-5.5194,-5.5194,-5.5179,-5.5119,-5.461,-5.3907,-5.3279,-5.2636,-5.2112,-5.2112,-5.1678,-5.1214,-5.1214,-5.1214,-5.1214,-5.1214,-5.1169,-5.0945,-5.024,-5.0061,-4.9883,-4.9329,-4.8685,-4.8192,-4.8192,-4.7698,-4.7309,-4.7309,-4.7249,-4.7219,-4.7219,-4.6636,-4.616,-4.61,-4.5529,-4.511,-4.511,-4.4571,-4.4227,-4.4227,-4.3618,-4.329,-4.329,-4.329,-4.329,-4.329,-4.329,-4.326,-4.32,-4.32,-4.317,-4.311,-4.311,-4.311,-4.4347,-4.499,-4.52,-4.4811,-4.3225,-4.0778,-3.6791,-3.3514,-3.0298,-2.6737,-2.5136,-2.4717,-2.5794,-2.6437,-2.7874,-3.1165,-3.1839,-3.3455,-3.7823,-3.9768,-4.2177,-4.6022,-4.8012,-4.9628,-5.1079,-5.1214,-5.1768,-5.3084,-5.4072,-5.4775,-5.5164,-5.5194,-5.5194,-5.5194,-5.5194,-5.5194,-5.5194,-5.5194,-5.5194,-5.5194,-5.5194,-5.5194,-5.5194,-5.5194,-5.5194,-5.5194,-5.5194,-5.5194,-5.5194,-5.5194,-5.5194,-5.5194,-5.5194,-5.5194,-5.5194,-5.5194,-5.5194,-5.5194,-5.5194,-5.5194,-5.5194,-5.5194,-5.5014,-5.4685,-5.4012,-5.3324,-5.271,-5.2306,-5.2007,-5.1723,-5.1319,-5.1214,-5.1214,-5.1214,-5.1214,-5.1154,-5.0838,-5.0465,-5.0121,-4.9898,-4.9329,-4.8925,-4.8925,-4.8341,-4.7893,-4.7893,-4.7563,-4.7309,-4.7309,-4.707,-4.692,-4.692,-4.5948,-4.5289,-4.5289,-4.505,-4.49,-4.49,-4.4661,-4.4332,-4.3943,-4.3888,-4.3693,-4.3305,-4.329,-4.329,-4.329,-4.329,-4.329,-4.329,-4.329,-4.329,-4.3329,-4.4212,-4.4646,-4.4377,-4.2536,-3.9873,-3.6312,-3.2766,-2.9355,-2.6243,-2.4537,-2.3954,-2.5083,-2.548,-2.6497,-2.919,-2.9759,-3.127,-3.5357,-3.7165,-3.9604,-4.3658,-4.5723,-4.7668,-4.9853,-5.0945,-5.1887,-5.2815,-5.3713,-5.4416,-5.488,-5.5089,-5.5194,-5.5194,-5.5194,-5.5194,-5.5194,-5.5194,-5.5194,-5.5194,-5.5194,-5.5194,-5.5194,-5.5194,-5.5194,-5.5194,-5.5194,-5.5194,-5.5194,-5.5194,-5.5194,-5.5194,-5.5194,-5.5194,-5.5194,-5.5194,-5.5194,-5.5194,-5.5194,-5.5194,-5.5194,-5.5194,-5.5194,-5.5104,-5.464,-5.4027,-5.3384,-5.292,-5.2516,-5.2052,-5.1394,-5.1214,-5.1214,-5.1214,-5.1214,-5.1214,-5.1214,-5.0808,-5.048,-5.048,-5.0002,-4.9553,-4.9553,-4.9015,-4.8506,-4.8312,-4.7893,-4.7519,-4.7339,-4.7309,-4.7309,-4.7309,-4.6456,-4.5888,-4.5888,-4.5708,-4.5603,-4.5603,-4.5409,-4.5095,-4.4631,-4.4601,-4.4392,-4.3888,-4.3678,-4.3589,-4.3589,-4.3394,-4.329,-4.329,-4.329,-4.329,-4.1886,-4.2865,-4.3469,-4.4152,-4.1863,-3.8751,-3.6103,-3.2437,-2.8858,-2.6153,-2.4537,-2.3819,-2.4485,-2.5143,-2.6048,-2.7405,-2.922,-3.1435,-3.4144,-3.6193,-3.8422,-4.11,-4.2581,-4.4381,-4.7085,-5.0287,-5.2202,-5.2217,-5.3458,-5.4206,-5.4221,-5.4835,-5.5194,-5.5194,-5.5194,-5.5194,-5.5194,-5.5194,-5.5194,-5.5194,-5.5194,-5.5194,-5.5194,-5.5194,-5.5194,-5.5194,-5.5194,-5.5194,-5.5194,-5.5194,-5.5194,-5.5194,-5.5194,-5.5194,-5.5194,-5.5194,-5.5194,-5.5194,-5.5194,-5.5194,-5.5194,-5.5194,-5.5194,-5.5194,-5.5179,-5.4715,-5.4206,-5.4192,-5.3219,-5.2052,-5.1394,-5.1214,-5.1214,-5.1214,-5.1214,-5.1214,-5.1214,-5.1214,-5.1214,-5.1214,-5.0629,-5.0181,-5.0181,-4.9688,-4.9075,-4.8386,-4.8282,-4.8042,-4.7399,-4.7309,-4.7309,-4.7309,-4.7294,-4.7279,-4.7279,-4.6696,-4.6264,-4.6264,-4.5678,-4.5289,-4.5289,-4.5289,-4.5289,-4.5274,-4.4631,-4.4302,-4.4302,-4.3604,-4.329,-4.329,-4.329,-4.329,-3.8048,-3.914,-3.9798,-3.9125,-3.7838,-3.6058,-3.3364,-3.0776,-2.8158,-2.5472,-2.4201,-2.3804,-2.4485,-2.4395,-2.5405,-2.8996,-2.9744,-3.0984,-3.4069,-3.6956,-3.9424,-4.1175,-4.5334,-4.8521,-4.9853,-5.0915,-5.1723,-5.2172,-5.2591,-5.3025,-5.3488,-5.3713,-5.4236,-5.5164,-5.5194,-5.5194,-5.5194,-5.5194,-5.5194,-5.5194,-5.5194,-5.5194,-5.5194,-5.5194,-5.5194,-5.5194,-5.5194,-5.5194,-5.5194,-5.5194,-5.5194,-5.5194,-5.5194,-5.5194,-5.5194,-5.5194,-5.5194,-5.5194,-5.5194,-5.5194,-5.5194,-5.5194,-5.5194,-5.5194,-5.5194,-5.5044,-5.4685,-5.3758,-5.2875,-5.2052,-5.1394,-5.1214,-5.1214,-5.1214,-5.1214,-5.1214,-5.1214,-5.1214,-5.1214,-5.1214,-5.105,-5.0868,-5.0868,-5.0361,-4.9853,-4.9658,-4.9239,-4.876,-4.8057,-4.7982,-4.7803,-4.7354,-4.7309,-4.7309,-4.7309,-4.7115,-4.6995,-4.6995,-4.6785,-4.6471,-4.6022,-4.5992,-4.5783,-4.5304,-4.5095,-4.499,-4.499,-4.3919,-4.3366,-4.3351,-4.2081,-4.2009,-3.5177,-3.6671,-3.7479,-3.6686,-3.5804,-3.4412,-3.172,-2.9624,-2.753,-2.5098,-2.4066,-2.3729,-2.4141,-2.4081,-2.5016,-2.8143,-2.8966,-3.0178,-3.2976,-3.6222,-3.926,-4.1818,-4.6052,-4.9075,-5.0032,-5.078,-5.1394,-5.1798,-5.2067,-5.2381,-5.2785,-5.3039,-5.3563,-5.4401,-5.4685,-5.482,-5.482,-5.5059,-5.5194,-5.5194,-5.5194,-5.5194,-5.5194,-5.5194,-5.5194,-5.5194,-5.5194,-5.5194,0.0,-5.5194,-5.5194,-5.5194,-5.5194,-5.5194,-5.5194,-5.5194,-5.5194,-5.5194,-5.5194,-5.5194,-5.5194,-5.5194,-5.5194,-5.5194,-5.5194,-5.5194,-5.497,-5.3877,-5.3084,-5.2411,-5.1753,-5.1409,-5.1214,-5.1214,-5.1214,-5.1214,-5.1214,-5.1214,-5.1214,-5.1214,-5.1214,-5.1214,-5.1214,-5.0823,-5.048,-5.0226,-4.9898,-4.9404,-4.8745,-4.87,-4.8401,-4.7743,-4.7683,-4.7578,-4.7324,-4.7309,-4.7309,-4.7309,-4.7309,-4.7115,-4.6711,-4.6696,-4.6501,-4.6067,-4.5813,-4.5678,-4.5678,-4.4137,-4.3372,-4.3372,-4.1758,-4.1444,0.0,-3.4938,-3.5908,-3.5804,-3.4908,-3.3335,-3.0731,-2.8742,0.0,-2.4933,-2.4022,-2.364,-2.3789,-2.4231,-2.4903,-2.5884,-2.759,-2.9505,-3.1436,-3.4726,-3.8601,-4.317,-4.5397,-4.71,-4.8371,-5.0152,-5.1214,-5.1214,-5.1783,-5.2127,-5.2127,-5.271,-5.3039,-5.3039,-5.3713,-5.4087,-5.4147,-5.479,-5.5119,-5.5119,-5.5164,-5.5194,-5.5194,-5.5194,-5.5194,-5.5194,-5.5194,-5.5194,-5.5194,-5.5194,-5.5194,-5.5194,-5.5194,-5.5194,-5.5194,-5.5194,-5.5194,-5.5194,-5.5194,-5.5194,-5.5194,-5.5194,-5.5194,-5.5194,-5.5194,-5.5194,-5.5059,-5.4401,-5.3713,-5.3039,-5.2366,-5.1708,-5.1214,-5.1214,-5.1214,-5.1214,-5.1214,-5.1214,-5.1214,-5.1214,-5.1214,-5.1214,-5.1214,-5.1214,-5.1005,-5.0345,-5.0255,-5.0077,-4.9419,-4.9374,-4.9134,-4.8416,-4.8356,-4.8087,-4.7429,-4.7339,-4.7309,-4.7309,-4.7309,-4.7309,-4.7309,-4.7309,-4.7309,-4.7309,-4.6711,-4.6354,-4.6254,-4.4327,-4.3428,-4.337,-4.1963,-4.1356,-2.7874,0.0,-3.0208,-2.9175,-2.9082,-2.8798,0.0,-2.6408,-2.5644,-2.4148,-2.3714,-2.4073,-2.56,-2.5196,-2.5815,-2.9507,-3.0509,-3.1511,-3.3499,-3.7978,-4.2725,-4.7324,-4.873,-4.9583,-5.0451,-5.0945,-5.1214,-5.1214,-5.1364,-5.1454,-5.1454,-5.1588,-5.1678,-5.1678,-5.2321,-5.292,-5.3414,-5.4102,-5.4446,-5.4446,-5.494,-5.5194,-5.5194,-5.5194,-5.5194,-5.5194,-5.5194,-5.5194,-5.5194,-5.5194,-5.5194,-5.5194,-5.5194,-5.5194,-5.5194,-5.5194,-5.5194,-5.5194,-5.5194,-5.5194,-5.5194,-5.5194,-5.5194,-5.5194,-5.5194,-5.5194,-5.5059,-5.4401,-5.3713,-5.3039,-5.2366,-5.1708,-5.1214,-5.1214,-5.1214,-5.1214,-5.1214,-5.1214,-5.1214,-5.1214,-5.1214,-5.1214,-5.1214,-5.1214,-5.1169,-5.1005,-5.0943,-5.075,-5.0092,-5.0017,-4.9763,-4.9149,-4.9075,-4.8805,-4.8117,-4.7593,-4.7309,-4.7309,-4.7309,-4.7309,-4.7309,-4.7309,-4.7309,-4.7309,-4.716,-4.6606,-4.5606,-4.4167,-4.3482,-4.3436,-4.0733,-4.0015,-2.5031,-2.6871,-2.8427,-2.7694,-2.7784,-2.772,-2.6363,-2.5576,-2.4844,-2.3804,-2.3595,-2.4029,-2.5435,-2.5337,-2.6174,-2.9597,-3.0658,-3.2497,-3.6611,-4.0494,-4.4477,-4.8805,-4.9838,-5.045,-5.1154,-5.1214,-5.1214,-5.1214,-5.1214,-5.1214,-5.1214,-5.1214,-5.1214,-5.1214,-5.1558,-5.2067,-5.2725,-5.3399,-5.3743,-5.3743,-5.4102,-5.4266,-5.4266,-5.4266,-5.4446,-5.4745,-5.4745,-5.491,-5.5194,-5.5194,-5.5194,-5.5194,-5.5194,-5.5194,-5.5194,-5.5194,-5.5194,-5.5194,-5.5194,-5.5194,-5.5194,-5.5194,-5.5194,-5.5194,-5.5194,-5.5194,-5.5119,-5.476,-5.4177,-5.3578,-5.3219,-5.2396,-5.1678,-5.1678,-5.1439,-5.1214,-5.1214,-5.1214,-5.1214,-5.1214,-5.1214,-5.1214,-5.1214,-5.1214,-5.1214,-5.1214,-5.1214,-5.1094,-5.0689,-5.0644,-5.0436,-4.9778,-4.9703,-4.9449,-4.879,-4.8132,-4.7623,-4.7324,-4.6741,-4.6447,-4.6447,-4.6447,-4.6682,-4.7309,-4.7309,-4.6975,-4.6255,-4.4396,-4.3504,-4.3442,-4.0571,-3.9626,-2.3969,-2.6273,-2.8487,-2.7964,-2.8068,-2.7934,-2.6602,-2.5486,-2.459,-2.4029,-2.3909,-2.4208,-2.5173,-2.5726,-2.6782,-2.8996,-3.0507,-3.3619,-3.9948,-4.2491,-4.508,-4.8865,-4.9927,-5.0569,-5.1122,-5.1214,-5.1214,-5.1214,-5.1214,-5.1214,-5.1214,-5.1214,-5.1214,-5.1214,-5.1214,-5.1483,-5.2037,-5.2695,-5.3039,-5.3039,-5.3129,-5.3174,-5.3174,-5.3174,-5.3503,-5.4057,-5.4057,-5.4371,-5.4895,-5.4999,-5.5044,-5.5059,-5.5149,-5.5194,-5.5194,-5.5194,-5.5194,-5.5194,-5.5194,-5.5194,-5.5194,-5.5194,-5.5194,-5.5194,-5.5194,-5.5194,-5.5194,-5.5194,-5.4715,-5.4206,-5.4206,-5.3279,-5.2321,-5.2217,-5.1768,-5.1334,-5.1244,-5.1214,-5.1214,-5.1214,-5.1214,-5.1214,-5.1214,-5.1214,-5.1214,-5.1214,-5.1214,-5.1214,-5.1214,-5.1214,-5.0958,-5.0405,-5.0345,-5.0122,-4.9479,-4.891,-4.8208,-4.7361,-4.612,-4.5298,-4.5115,-4.5115,-4.5629,-4.6682,-4.6726,-4.6726,-4.6726,-4.4349,-4.3218,-4.317,-4.0794,-3.9697,-2.5674,-2.7335,-2.7919,-2.5076,-2.5644,-2.6557,-2.5202,-2.5187,-2.5435,-2.5315,-2.53,-2.6019,-2.8382,-2.8442,-2.9146,-3.2243,-3.4337,-3.7285,-4.2154,-4.4107,-4.6067,-4.897,-5.0331,-5.1109,-5.1214,-5.1214,-5.1214,-5.1214,-5.1214,-5.1214,-5.1214,-5.1214,-5.1214,-5.1214,-5.1214,-5.1274,-5.1364,-5.2022,-5.2351,-5.2351,-5.292,-5.3174,-5.3174,-5.3174,-5.3234,-5.3339,-5.3339,-5.3399,-5.3533,-5.4117,-5.4356,-5.4416,-5.497,-5.5194,-5.5194,-5.5194,-5.5194,-5.5194,-5.5194,-5.5194,-5.5194,-5.5194,-5.5194,-5.5194,-5.5194,-5.5194,-5.5194,-5.5194,-5.4715,-5.4206,-5.4206,-5.3623,-5.289,-5.2336,-5.2127,-5.1887,-5.1334,-5.1214,-5.1214,-5.1214,-5.1214,-5.1214,-5.1214,-5.1214,-5.1214,-5.1214,-5.1214,-5.1214,-5.1214,-5.1214,-5.1184,-5.1079,-5.1065,-5.0764,-5.0106,-4.9956,-4.9156,-4.7326,-4.6085,-4.4918,-4.3834,-4.3787,-4.3882,-4.4069,-4.4069,-4.4069,-4.4069,-4.2593,-4.1887,-4.1838,-4.0364,-3.9697,-2.4627,-2.5959,-2.6707,-2.551,-2.6976,-2.8547,-2.7949,-2.75,-2.732,-2.7679,-2.747,-2.7814,-2.9729,-3.0133,-3.1346,-3.5011,-3.7584,-4.0113,-4.2901,-4.4781,-4.6696,-4.9045,-5.0107,-5.0779,-5.1184,-5.1214,-5.1214,-5.1214,-5.1214,-5.1214,-5.1214,-5.1214,-5.1214,-5.1214,-5.1214,-5.1214,-5.1214,-5.1513,-5.1678,-5.1678,-5.1977,-5.2127,-5.2127,-5.2127,-5.2321,-5.265,-5.265,-5.286,-5.3204,-5.3518,-5.3877,-5.4236,-5.4536,-5.488,-5.5194,-5.5194,-5.5194,-5.5194,-5.5194,-5.5194,-5.5194,-5.5194,-5.5194,-5.5194,-5.5194,-5.5194,-5.5194,-5.5194,-5.497,-5.4745,-5.4745,-5.4236,-5.3653,-5.3354,-5.2995,-5.2561,-5.1887,-5.1753,-5.1648,-5.1289,-5.1214,-5.1214,-5.1214,-5.1214,-5.1214,-5.1214,-5.1214,-5.0964,-5.0191,-5.076,-5.0917,-5.0191,-5.076,-5.1094,-5.0749,-5.0405,-4.9051,-4.6319,-4.4664,-4.3504,-4.2932,-4.2622,-4.2786,-4.3504,-4.3504,-4.3504,-4.3504,-4.2217,-4.1604,-4.1555,-4.0262,-3.9697,-2.4223,-2.5061,-2.5839,-2.6811,-2.8457,-2.9983,-3.0597,-2.9759,-2.9146,-3.0268,-2.9983,-2.9864,-3.0986,-3.2108,-3.3977,-3.7295,-4.0113,-4.2297,-4.3574,-4.5337,-4.7174,-4.888,-4.9613,-5.0212,-5.072,-5.0765,-5.0825,-5.0975,-5.099,-5.1003,-5.1214,-5.1214,-5.1214,-5.1214,-5.1214,-5.1214,-5.1214,-5.1214,-5.1214,-5.1214,-5.1214,-5.1214,-5.1214,-5.1214,-5.1498,-5.1977,-5.1977,-5.2261,-5.274,-5.289,-5.3354,-5.3982,-5.4147,-5.461,-5.5194,-5.5194,-5.5194,-5.5194,-5.5194,-5.5194,-5.5194,-5.5194,-5.5194,-5.5194,-5.5194,-5.5194,-5.5194,-5.5194,-5.5194,-5.5194,-5.5194,-5.482,-5.4401,-5.4251,-5.3803,-5.3234,-5.2576,-5.2426,-5.2276,-5.1768,-5.1678,-5.1678,-5.1678,-5.1558,-5.1454,-5.1454,-5.1319,-5.0698,-4.9357,-5.008,-5.0191,-4.8851,-4.9616,-5.0239,-5.0239,-4.9483,-4.7935,-4.5404,-4.3552,-4.2417,-4.198,-4.155,-4.1736,-4.2593,-4.2593,-4.2593,-4.2593,-4.1654,-4.1169,-4.1119,-4.0173,-3.9697,-2.6626,-2.6467,-2.6063,-2.7979,-2.8113,-2.8453,-3.0868,-3.0447,-3.0223,-3.2706,-3.2691,-3.2452,-3.314,-3.531,-3.7494,-3.9,-4.1436,-4.3643,-4.4975,-4.6352,-4.7519,-4.8267,-4.894,-4.9404,-4.9449,-4.9449,-4.9658,-5.0226,-5.0255,-5.0524,-5.1184,-5.1214,-5.1214,-5.1214,-5.1214,-5.1214,-5.1214,-5.1214,-5.1214,-5.1214,-5.1214,-5.1214,-5.1214,-5.1214,-5.1244,-5.1289,-5.1289,-5.1319,-5.1409,-5.2022,-5.2665,-5.3309,-5.3967,-5.461,-5.5194,-5.5194,-5.5194,-5.5194,-5.5194,-5.5194,-5.5194,-5.5194,-5.5194,-5.5194,-5.5194,-5.5194,-5.5194,-5.5194,-5.5194,-5.5194,-5.5194,-5.5149,-5.497,-5.4356,-5.4177,-5.3937,-5.3249,-5.3114,-5.3099,-5.3054,-5.3039,-5.3039,-5.3039,-5.2531,-5.2127,-5.2127,-5.1618,-5.0698,-4.9357,-4.9259,-4.8802,-4.7402,-4.735,-4.7402,-4.7402,-4.6134,-4.5276,-4.5023,-4.3821,-4.2385,-4.0736,-4.0581,-4.0421,-3.9993,-3.9981,-3.9981,-3.9981,-3.989,-3.9839,-3.9839,-3.9736,-3.9697,-2.4754,-2.5345,-2.5989,-2.7575,-2.8708,-2.9983,-3.2243,-3.2691,-3.3515,-3.6552,-3.6013,-3.5055,-3.531,-3.7165,-3.896,-3.9873,-4.2581,-4.4721,-4.5229,-4.6456,-4.7549,-4.8207,-4.8506,-4.8865,-4.9269,-4.9314,-4.9404,-4.9613,-4.9628,-4.9748,-4.9987,-5.0002,-5.0182,-5.0554,-5.0569,-5.0764,-5.1214,-5.1214,-5.1214,-5.1214,-5.1214,-5.1214,-5.1214,-5.1214,-5.1214,-5.1214,-5.1214,-5.1214,-5.1244,-5.1483,-5.1977,-5.268,-5.3788,-5.461,-5.5194,-5.5194,-5.5194,-5.5194,-5.5194,-5.5194,-5.5194,-5.5194,-5.5194,-5.5194,-5.5194,-5.5194,-5.5194,-5.5194,-5.5194,-5.5194,-5.5194,-5.5194,-5.5134,-5.488,-5.482,-5.464,-5.3967,-5.3817,-5.3698,-5.3264,-5.2442,-5.1814,-5.1814,-5.086,-4.9933,-4.9586,-4.9315,-4.8511,-4.6788,-4.735,-4.735,-4.5912,-4.6591,-4.7094,-4.7094,-4.582,-4.4994,-4.4994,-4.3484,-4.2258,-4.1597,-4.1204,-4.0777,-4.0212,-4.0212,-4.0036,-3.9697,-3.9697,-3.9697,-3.9697,-3.9697,-3.9697,-2.3864,-2.4597,-2.5674,-2.721,-2.9041,-3.1135,-3.3574,-3.4487,-3.5804,-3.932,-3.8631,-3.7345,-3.7135,-3.8542,-3.9873,-4.0337,-4.315,-4.5289,-4.5289,-4.6456,-4.7474,-4.7923,-4.7982,-4.8147,-4.8596,-4.8685,-4.8745,-4.8985,-4.9,-4.909,-4.9299,-4.9314,-4.9479,-4.9912,-5.0091,-5.0405,-5.09,-5.1063,-5.1214,-5.1214,-5.1214,-5.1214,-5.1214,-5.1214,-5.1214,-5.1214,-5.1214,-5.1214,-5.1214,-5.1214,-5.1618,-5.2336,-5.3683,-5.4476,-5.491,-5.5119,-5.5194,-5.5194,-5.5194,-5.5194,-5.5194,-5.5194,-5.5194,-5.5194,-5.5194,-5.5194,-5.5194,-5.5194,-5.5194,-5.5194,-5.5194,-5.5194,-5.5194,-5.5194,-5.5194,-5.5059,-5.461,-5.4521,-5.4221,-5.3316,-5.2311,-5.146,-5.0962,-4.9881,-4.8962,-4.8535,-4.8314,-4.7508,-4.5499,-4.6102,-4.614,-4.4548,-4.5249,-4.582,-4.582,-4.4941,-4.4372,-4.4372,-4.3136,-4.2389,-4.2213,-4.1794,-4.1342,-4.0736,-4.0724,-4.0588,-4.0212,-4.0212,-4.0212,-4.0212,-4.0212,-4.0212,-2.4769,-2.4605,-2.5098,-2.7121,-2.9097,-3.142,-3.4771,-3.5534,-3.6641,-4.0576,-4.0337,-3.923,-3.8542,-3.9499,-4.0412,-4.0412,-4.315,-4.5289,-4.5289,-4.6456,-4.7294,-4.7309,-4.7309,-4.7309,-4.7309,-4.7309,-4.7578,-4.8222,-4.8282,-4.8566,-4.9269,-4.9284,-4.9299,-4.9299,-4.9883,-5.0181,-5.0196,-5.0838,-5.1214,-5.1214,-5.1214,-5.1214,-5.1214,-5.1214,-5.1214,-5.1214,-5.1214,-5.1214,-5.1214,-5.1214,-5.1618,-5.2336,-5.3668,-5.4206,-5.4281,-5.494,-5.5179,-5.5194,-5.5194,-5.5194,-5.5194,-5.5194,-5.5194,-5.5194,-5.5194,-5.5194,-5.5194,-5.5194,-5.5194,-5.5194,-5.5194,-5.5194,-5.5194,-5.5194,-5.5194,-5.5194,-5.5194,-5.5194,-5.4743,-5.3294,-5.2963,-5.2455,-5.092,-5.0092,-4.9652,-4.9638,-4.9156,-4.8042,-4.6134,-4.5891,-4.5132,-4.3192,-4.2974,-4.2974,-4.2974,-4.2974,-4.2974,-4.2974,-4.2974,-4.2791,-4.2238,-4.2213,-4.1907,-4.13,-4.13,-4.13,-4.1288,-4.1288,-4.1288,-4.1288,-4.1288,-4.1288,-2.3565,-2.4612,-2.6378,-2.7919,-3.118,-3.4637,-3.7,-3.7539,-3.8257,-4.0861,-4.107,-4.0591,-3.9933,-4.0516,-4.1085,-4.1085,-4.3075,-4.4766,-4.5229,-4.6052,-4.6785,-4.7249,-4.7309,-4.7309,-4.7309,-4.7309,-4.7384,-4.7578,-4.7593,-4.7683,-4.7878,-4.7878,-4.8102,-4.8566,-4.876,-4.9299,-5.0181,-5.039,-5.0719,-5.1214,-5.1214,-5.1214,-5.1214,-5.1214,-5.1214,-5.1214,-5.1214,-5.1214,-5.1214,-5.1214,-5.1618,-5.2232,-5.2636,-5.3369,-5.4236,-5.4431,-5.4805,-5.5194,-5.5194,-5.5194,-5.5194,-5.5194,-5.5194,-5.5194,-5.5194,-5.5194,-5.5194,-5.5194,-5.5194,-5.5194,-5.5194,-5.5194,-5.5194,-5.5194,-5.5194,-5.5194,-5.5194,-5.4355,-5.3518,-5.3083,-5.1305,-4.9691,-4.9237,-4.8098,-4.7192,-4.6791,-4.6598,-4.5974,-4.4628,-4.4099,-4.364,-4.3042,-4.2974,-4.2974,-4.2974,-4.2974,-4.2974,-4.2974,-4.2974,-4.2898,-4.2791,-4.2791,-4.2472,-4.1919,-4.1907,-4.1718,-4.1288,-4.1288,-4.1288,-4.1288,-4.1288,-4.1288,-2.4395,-2.5982,-2.8319,-3.0402,-3.3245,-3.6222,-3.896,-3.9783,-4.0382,-4.1863,-4.1953,-4.1692,-4.125,-4.1542,-4.1811,-4.1811,-4.321,-4.4451,-4.4855,-4.5484,-4.6157,-4.683,-4.692,-4.7025,-4.7279,-4.7309,-4.7309,-4.7309,-4.7309,-4.7309,-4.7309,-4.7309,-4.7489,-4.7878,-4.8147,-4.8671,-4.9464,-4.9718,-5.0182,-5.0779,-5.0779,-5.096,-5.1214,-5.1214,-5.1214,-5.1214,-5.1214,-5.1214,-5.1214,-5.1214,-5.1454,-5.1828,-5.2097,-5.2695,-5.3473,-5.4012,-5.4461,-5.4835,-5.5104,-5.5194,-5.5194,-5.5194,-5.5194,-5.5194,-5.5194,-5.5194,-5.5194,-5.5194,-5.5194,-5.5194,-5.5194,-5.5194,-5.5194,-5.5194,-5.5194,-5.5027,-5.4458,-5.3637,-5.263,-5.1469,-4.9748,-4.8313,-4.7756,-4.6862,-4.62,-4.5861,-4.5434,-4.4895,-4.4217,-4.3451,-4.2974,-4.2974,-4.2974,-4.2974,-4.2974,-4.2974,-4.2974,-4.2974,-4.2974,-4.2974,-4.2974,-4.2974,-4.2879,-4.2539,-4.2539,-4.2321,-4.1995,-4.1995,-4.1995,-4.1995,-4.1995,-4.1995,-2.6243,-2.7989,-3.04,-3.368,-3.5175,-3.6821,-4.0472,-4.1796,-4.244,-4.314,-4.2865,-4.2485,-4.2485,-4.2485,-4.2485,-4.2485,-4.3449,-4.4242,-4.4302,-4.4825,-4.5469,-4.6157,-4.619,-4.6486,-4.7145,-4.7219,-4.7234,-4.7309,-4.7309,-4.7309,-4.7309,-4.7309,-4.7309,-4.7309,-4.7878,-4.8222,-4.8282,-4.8925,-4.9508,-5.0106,-5.0106,-5.045,-5.1124,-5.1184,-5.1214,-5.1214,-5.1214,-5.1214,-5.1214,-5.1214,-5.1214,-5.1274,-5.1872,-5.2157,-5.2351,-5.3578,-5.4102,-5.4296,-5.4895,-5.5149,-5.5194,-5.5194,-5.5194,-5.5194,-5.5194,-5.5194,-5.5194,-5.5194,-5.5194,-5.5194,-5.5027,-5.5027,-5.5027,-5.5027,-5.5078,-5.4794,-5.3294,-5.291,-5.1957,-4.9036,-4.8371,-4.7873,-4.6528,-4.6313,-4.6313,-4.6313,-4.5397,-4.4681,-4.4631,-4.3702,-4.3037,-4.2986,-4.2974,-4.2974,-4.2974,-4.2974,-4.2974,-4.2974,-4.2974,-4.2974,-4.2974,-4.2974,-4.2974,-4.2974,-4.2974,-4.2974,-4.2974,-4.2974,-4.2974,-4.2974,-4.2974,-4.2974,-2.4993,-2.7275,-3.04,-3.368,-3.6552,-3.8931,-4.0292,-4.0726,-4.1294,-4.2946,-4.3185,-4.3135,-4.3135,-4.3135,-4.3135,-4.3135,-4.3319,-4.3678,-4.4242,-4.4436,-4.4766,-4.5439,-4.5514,-4.5783,-4.6471,-4.6531,-4.6756,-4.7264,-4.7309,-4.7309,-4.7309,-4.7309,-4.7309,-4.7309,-4.7444,-4.7758,-4.8282,-4.8416,-4.882,-4.9479,-4.9479,-4.9823,-5.042,-5.0943,-5.1214,-5.1214,-5.1214,-5.1214,-5.1214,-5.1214,-5.1214,-5.1229,-5.1379,-5.1753,-5.2232,-5.2531,-5.3309,-5.4236,-5.4371,-5.476,-5.5194,-5.5194,-5.5194,-5.5194,-5.5194,-5.5194,-5.5194,-5.5194,-5.5194,-5.4911,-5.3742,-5.3466,-5.3466,-5.3466,-5.4355,-5.4794,-5.3294,-5.2051,-5.0671,-4.8864,-4.7593,-4.6648,-4.6361,-4.6313,-4.6313,-4.6313,-4.5736,-4.5133,-4.4681,-4.4041,-4.3463,-4.3024,-4.2974,-4.2974,-4.2974,-4.2974,-4.2974,-4.2974,-4.2974,-4.2974,-4.2974,-4.2974,-4.2974,-4.2974,-4.2974,-4.2974,-4.2974,-4.2974,-4.2974,-4.2974,-4.2974,-4.2974,-2.5615,-2.8233,-3.145,-3.5402,-3.8138,-3.9978,-4.0322,-4.0397,-4.0786,-4.2117,-4.2656,-4.2865,-4.2865,-4.3135,-4.329,-4.329,-4.329,-4.3409,-4.3753,-4.3798,-4.4092,-4.4751,-4.4825,-4.508,-4.5768,-4.5828,-4.6112,-4.6785,-4.683,-4.698,-4.7294,-4.7309,-4.7309,-4.7309,-4.7309,-4.7474,-4.7818,-4.7818,-4.8147,-4.879,-4.879,-4.9314,-5.0211,-5.0868,-5.1214,-5.1214,-5.1214,-5.1214,-5.1214,-5.1214,-5.1214,-5.1214,-5.1214,-5.1424,-5.1768,-5.2082,-5.265,-5.3339,-5.3982,-5.4431,-5.4775,-5.5089,-5.5194,-5.5194,-5.5194,-5.5194,-5.5194,-5.5194,-5.5194,-5.5027,-5.4237,-5.4068,-5.4068,-5.4068,-5.4082,-5.3742,-5.2213,-5.1263,-5.0045,-4.786,-4.6815,-4.6313,-4.6313,-4.6313,-4.6313,-4.6313,-4.5836,-4.5284,-4.4706,-4.4141,-4.3589,-4.3037,-4.2974,-4.2974,-4.2974,-4.2974,-4.2974,-4.2974,-4.2974,-4.2974,-4.2974,-4.2974,-4.2974,-4.2974,-4.2974,-4.2974,-4.2974,-4.2974,-4.2974,-4.2974,-4.2974,-4.2974,-2.6117,-2.9325,-3.2886,-3.73,-3.932,-4.0232,-4.0232,-4.0232,-4.0382,-4.0935,-4.1692,-4.2231,-4.2231,-4.2641,-4.2991,-4.315,-4.3125,-4.317,-4.329,-4.329,-4.3499,-4.4077,-4.4152,-4.4407,-4.5065,-4.5125,-4.5409,-4.6097,-4.6142,-4.6441,-4.71,-4.713,-4.7189,-4.7309,-4.7309,-4.7309,-4.7309,-4.7309,-4.7578,-4.8117,-4.8237,-4.885,-4.9882,-5.0644,-5.1109,-5.1214,-5.1214,-5.1214,-5.1214,-5.1214,-5.1214,-5.1214,-5.1214,-5.1214,-5.1289,-5.1828,-5.2097,-5.2381,-5.3608,-5.4102,-5.4326,-5.4985,-5.5194,-5.5194,-5.5194,-5.5194,-5.5128,-5.4911,-5.5027,-5.5078,-5.4575,-5.4626,-5.4743,-5.4509,-5.3504,-5.2227,-5.0989,-5.0477,-4.9495,-4.6802,-4.6313,-4.6313,-4.6313,-4.6313,-4.6313,-4.6313,-4.5924,-4.5422,-4.4844,-4.4292,-4.3727,-4.3175,-4.3037,-4.2974,-4.2974,-4.2974,-4.2974,-4.2974,-4.2974,-4.2974,-4.2974,-4.2974,-4.2974,-4.2974,-4.2974,-4.2974,-4.2974,-4.2974,-4.2974,-4.2974,-4.2974,-4.2974,-2.3714,-2.8592,-3.4053,-3.7524,-3.8975,-3.9508,-3.9508,-3.9508,-3.9574,-3.9664,-4.0651,-4.1504,-4.1504,-4.1579,-4.1833,-4.244,-4.253,-4.2686,-4.3215,-4.329,-4.3319,-4.3409,-4.3424,-4.3678,-4.4377,-4.4451,-4.4721,-4.5379,-4.5424,-4.5738,-4.6384,-4.6414,-4.6711,-4.7294,-4.7309,-4.7309,-4.7309,-4.7309,-4.7354,-4.7444,-4.8012,-4.8371,-4.8581,-4.9808,-5.0629,-5.1214,-5.1214,-5.1214,-5.1214,-5.1214,-5.1214,-5.1214,-5.1214,-5.1214,-5.1229,-5.1319,-5.1708,-5.2306,-5.3054,-5.3713,-5.4326,-5.4985,-5.5194,-5.5194,-5.5194,-5.5194,-5.4911,-5.3637,-5.4186,-5.4626,-5.1983,-5.228,-5.2963,-5.1604,-5.1153,-5.092,-5.0754,-4.9678,-4.8313,-4.6636,-4.6313,-4.6313,-4.6313,-4.6313,-4.6313,-4.6313,-4.625,-4.5999,-4.5447,-4.4869,-4.4305,-4.3752,-4.3263,-4.2974,-4.2974,-4.2974,-4.2974,-4.2974,-4.2974,-4.2974,-4.2974,-4.2974,-4.2974,-4.2974,-4.2974,-4.2974,-4.2974,-4.2974,-4.2974,-4.2974,-4.2974,-4.2974,-2.5899,-2.9879,-3.3814,-3.7479,-3.8616,-3.8945,-3.9334,-3.9388,-3.9388,-3.9388,-3.9888,-4.0397,-4.0771,-4.113,-4.1512,-4.1796,-4.2156,-4.25,-4.2746,-4.3105,-4.329,-4.329,-4.329,-4.3409,-4.3693,-4.3723,-4.4032,-4.4691,-4.4751,-4.5035,-4.5708,-4.6112,-4.6456,-4.6741,-4.7115,-4.7309,-4.7309,-4.7309,-4.7309,-4.7309,-4.7593,-4.7938,-4.8312,-4.888,-4.9703,-5.0644,-5.1065,-5.1214,-5.1214,-5.1214,-5.1214,-5.1214,-5.1214,-5.1214,-5.1214,-5.1214,-5.1409,-5.1753,-5.2411,-5.3069,-5.3743,-5.4416,-5.4895,-5.5194,-5.5194,-5.5194,-5.4911,-5.3413,-5.3466,-5.3675,-5.2334,-5.2509,-5.2843,-5.2173,-5.1318,-5.0477,-4.9678,-4.8965,-4.8035,-4.6588,-4.6313,-4.6313,-4.6313,-4.6313,-4.6313,-4.6313,-4.6313,-4.6112,-4.556,-4.5259,-4.4769,-4.389,-4.3589,-4.3313,-4.2999,-4.2974,-4.2974,-4.2974,-4.2974,-4.2974,-4.2974,-4.2974,-4.2974,-4.2974,-4.2974,-4.2974,-4.2974,-4.2974,-4.2974,-4.2974,-4.2974,-4.2974,-2.6701,-2.9505,-3.1958,-3.5908,-3.727,-3.7913,-3.8931,-3.9155,-3.9155,-3.9155,-3.929,-3.9514,-3.9828,-4.0427,-4.0935,-4.11,-4.1587,-4.1961,-4.2126,-4.2671,-4.309,-4.309,-4.32,-4.329,-4.329,-4.329,-4.3499,-4.3992,-4.4062,-4.4347,-4.5005,-4.5529,-4.5888,-4.6052,-4.6711,-4.7055,-4.7055,-4.7219,-4.7309,-4.7309,-4.7309,-4.7563,-4.8042,-4.8207,-4.891,-5.0032,-5.0644,-5.1065,-5.1214,-5.1214,-5.1214,-5.1214,-5.1214,-5.1214,-5.1214,-5.1214,-5.1214,-5.1319,-5.1977,-5.2636,-5.3294,-5.3982,-5.4655,-5.5194,-5.5194,-5.5194,-5.4911,-5.3413,-5.3016,-5.3016,-5.3016,-5.2683,-5.2402,-5.2402,-5.1222,-4.9721,-4.8255,-4.7919,-4.7652,-4.6528,-4.6313,-4.6313,-4.6313,-4.6313,-4.6313,-4.6313,-4.6313,-4.6163,-4.5748,-4.5573,-4.5158,-4.4317,-4.4104,-4.384,-4.3426,-4.3263,-4.3187,-4.3187,-4.3049,-4.2974,-4.2974,-4.2974,-4.2974,-4.2974,-4.2974,-4.2974,-4.2974,-4.2974,-4.2974,-4.2974,-4.2974,-4.2974,-2.3146,-2.5375,-2.7859,-3.1824,-3.4247,-3.6148,-3.8018,-3.8437,-3.8437,-3.8437,-3.896,-3.923,-3.8601,-3.905,-3.9723,-4.0352,-4.0487,-4.0726,-4.1339,-4.2036,-4.2455,-4.2455,-4.2955,-4.329,-4.329,-4.329,-4.3305,-4.3349,-4.3349,-4.3633,-4.4332,-4.4407,-4.4706,-4.5334,-4.6022,-4.6324,-4.6324,-4.6995,-4.7309,-4.7309,-4.7309,-4.7324,-4.7369,-4.7997,-4.8656,-4.9404,-5.0002,-5.0599,-5.1214,-5.1214,-5.1214,-5.1214,-5.1214,-5.1214,-5.1214,-5.1214,-5.1214,-5.1319,-5.1977,-5.2636,-5.3294,-5.3982,-5.4655,-5.5194,-5.5194,-5.5194,-5.4911,-5.3413,-5.3016,-5.3016,-5.3016,-5.1943,-5.0809,-5.0809,-4.9678,-4.8197,-4.6755,-4.6421,-4.6361,-4.6313,-4.6313,-4.6313,-4.6313,-4.6313,-4.6313,-4.6313,-4.6313,-4.6301,-4.6276,-4.5811,-4.546,-4.5409,-4.4907,-4.4568,-4.4543,-4.4053,-4.3765,-4.3765,-4.3263,-4.2974,-4.2974,-4.2974,-4.2974,-4.2974,-4.2974,-4.2974,-4.2974,-4.2974,-4.2974,-4.2974,-4.2974,-4.2974,-2.3116,-2.4747,-2.6811,-3.0342,-3.2422,-3.4113,-3.6088,-3.7494,-3.8272,-3.7853,-3.8287,-3.8676,-3.8437,-3.896,-3.9499,-3.9738,-4.0127,-4.0487,-4.0711,-4.1324,-4.1931,-4.2351,-4.2605,-4.2865,-4.3245,-4.329,-4.329,-4.329,-4.329,-4.3394,-4.3633,-4.4092,-4.4421,-4.4661,-4.5319,-4.5873,-4.6279,-4.698,-4.7309,-4.7309,-4.7309,-4.7309,-4.7309,-4.7549,-4.8012,-4.8671,-4.9329,-5.0227,-5.1214,-5.1214,-5.1214,-5.1214,-5.1214,-5.1214,-5.1214,-5.1214,-5.1214,-5.1244,-5.1483,-5.2276,-5.3219,-5.3473,-5.4296,-5.5194,-5.5194,-5.5194,-5.4677,-5.2213,-5.155,-5.1332,-5.0351,-4.9691,-4.9294,-4.9294,-4.8139,-4.6921,-4.6421,-4.6313,-4.6313,-4.6313,-4.6313,-4.6313,-4.6313,-4.6313,-4.6188,-4.5836,-4.6087,-4.6188,-4.5824,-4.5912,-4.5886,-4.5535,-4.5309,-4.5033,-4.4656,-4.4443,-4.433,-4.433,-4.4141,-4.3878,-4.3526,-4.3501,-4.3338,-4.2986,-4.2974,-4.2974,-4.2974,-4.2974,-4.2974,-4.2974,-4.2974,-4.2974,-2.2113,-2.343,-2.542,-2.8697,-3.0028,-3.1405,-3.4741,-3.6148,-3.6806,-3.7045,-3.7614,-3.8123,-3.8347,-3.8586,-3.8886,-3.9313,-3.9783,-4.0068,-4.0068,-4.0636,-4.1205,-4.1692,-4.1931,-4.2321,-4.294,-4.3015,-4.309,-4.3275,-4.329,-4.329,-4.329,-4.3708,-4.4092,-4.4302,-4.4736,-4.5394,-4.6264,-4.6756,-4.7085,-4.7309,-4.7309,-4.7309,-4.7309,-4.7309,-4.7668,-4.8327,-4.903,-4.9883,-5.0868,-5.1124,-5.1214,-5.1214,-5.1214,-5.1214,-5.1214,-5.1214,-5.1214,-5.1214,-5.1214,-5.2082,-5.3174,-5.3174,-5.4087,-5.5194,-5.5194,-5.5194,-5.4794,-5.2775,-5.1481,-5.0588,-5.0128,-4.9251,-4.8371,-4.7873,-4.704,-4.6313,-4.6313,-4.6313,-4.6313,-4.6313,-4.6313,-4.6313,-4.6313,-4.6313,-4.6188,-4.5811,-4.6075,-4.6175,-4.5811,-4.6087,-4.6175,-4.5799,-4.5761,-4.561,-4.5221,-4.502,-4.492,-4.492,-4.4731,-4.4455,-4.4091,-4.3903,-4.3627,-4.3263,-4.3074,-4.2974,-4.2974,-4.2974,-4.2974,-4.2974,-4.2974,-4.2974,0.0,0.0,0.0,-2.6641,-2.6986,-2.8038,-3.3903,-3.4262,-3.3918,-3.5953,-3.6866,-3.7509,-3.8227,-3.7853,-3.7868,-3.9215,-3.9373,-3.9394,-3.9388,-3.9963,-4.0382,-4.0397,-4.0965,-4.1647,-4.2306,-4.2396,-4.2626,-4.3215,-4.329,-4.329,-4.329,-4.329,-4.3589,-4.4272,-4.4302,-4.4945,-4.6234,-4.6264,-4.6651,-4.7309,-4.7309,-4.7309,-4.7309,-4.7309,-4.7653,-4.8297,-4.9,-4.9613,-5.0226,-5.0945,-5.1214,-5.1214,-5.1214,-5.1214,-5.1214,-5.1214,-5.1214,-5.1214,-5.1244,-5.2097,-5.3174,-5.3204,-5.4102,-5.5194,-5.5194,-5.5194,-5.5194,-5.5128,-5.3001,-5.1044,-5.2455,-5.0643,-4.8094,-4.6648,-4.6313,-4.6313,-4.6313,-4.6313,-4.6313,-4.6313,-4.6313,-4.6313,-4.6313,-4.6313,-4.6301,-4.6288,-4.6288,-4.6288,-4.6288,-4.6288,-4.6288,-4.6313,-4.6313,-4.6313,-4.6313,-4.5811,-4.551,-4.551,-4.4982,-4.4669,-4.4656,-4.4129,-4.3827,-4.3802,-4.3275,-4.2999,-4.2974,-4.2974,-4.2974,-4.2974,-4.2974,-4.2974,-2.0617,0.0,0.0,0.0,0.0,0.0,-2.8353,-2.952,-3.0657,-3.311,-3.4128,-3.522,-3.73,-3.7913,-3.8392,-3.9239,-3.899,-3.8856,-3.9313,-3.9574,-3.9873,-4.0337,-4.0561,-4.0935,-4.1632,-4.2126,-4.247,-4.2626,-4.306,-4.329,-4.329,-4.329,-4.3379,-4.3559,-4.4062,-4.4721,-4.5574,-4.6082,-4.6651,-4.7309,-4.7309,-4.7309,-4.7309,-4.7309,-4.7399,-4.7608,-4.8282,-4.894,-4.9613,-5.075,-5.1214,-5.1214,-5.1214,-5.1214,-5.1214,-5.1214,-5.1214,-5.1289,-5.1768,-5.2471,-5.3264,-5.3773,-5.4506,-5.5194,-5.5194,-5.5194,-5.4962,-5.3912,-5.2213,-5.0324,-4.8589,-4.7534,-4.6815,-4.6421,-4.6313,-4.6313,-4.6313,-4.6313,-4.6313,-4.6313,-4.6313,-4.6313,-4.6313,-4.6313,-4.6175,-4.5773,-4.5711,-4.5711,-4.5711,-4.5711,-4.5861,-4.6276,-4.6313,-4.6313,-4.6313,-4.6175,-4.6087,-4.6087,-4.5937,-4.5673,-4.5259,-4.5108,-4.4631,-4.3815,-4.3652,-4.3376,-4.2974,-4.2974,-4.2974,-4.2974,-4.2974,-4.2974,-2.1784,-2.1994,-2.2712,-2.367,0.0,0.0,-2.6722,-2.7604,-2.8667,-3.1869,-3.2826,-3.3888,-3.6537,-3.6881,-3.7165,-3.8377,-3.8033,-3.8018,-3.9245,-3.9388,-3.9523,-3.9948,-3.9993,-4.0247,-4.0905,-4.1324,-4.1811,-4.2366,-4.2716,-4.3045,-4.329,-4.329,-4.329,-4.329,-4.3663,-4.4212,-4.4885,-4.5559,-4.6232,-4.6905,-4.7174,-4.7309,-4.7309,-4.7309,-4.7309,-4.7339,-4.7997,-4.87,-4.9389,-5.0376,-5.0928,-5.1214,-5.1214,-5.1214,-5.1214,-5.1214,-5.1214,-5.1319,-5.1977,-5.2636,-5.3294,-5.3982,-5.4655,-5.5194,-5.5194,-5.5194,-5.5027,-5.4186,-5.2388,-5.0045,-4.7087,-4.6313,-4.6313,-4.6313,-4.6313,-4.6313,-4.6313,-4.6313,-4.6313,-4.6313,-4.6313,-4.6313,-4.6313,-4.6313,-4.62,-4.5886,-4.5836,-4.5836,-4.5836,-4.5836,-4.5949,-4.6276,-4.6313,-4.6313,-4.6313,-4.6313,-4.6313,-4.6313,-4.6313,-4.6163,-4.5849,-4.561,-4.5058,-4.4166,-4.3915,-4.3526,-4.2974,-4.2974,-4.2974,-4.2974,-4.2974,-4.2974,-2.3236,-2.3355,-2.4073,-2.5121,-2.3804,0.0,-2.6976,-2.7081,-2.7395,-3.1001,-3.1809,-3.2662,-3.534,-3.5026,-3.4921,-3.6596,-3.6701,-3.7195,-3.8945,-3.92,-3.923,-3.929,-3.9305,-3.9559,-4.0232,-4.0367,-4.0891,-4.2096,-4.2321,-4.265,-4.3155,-4.3245,-4.329,-4.329,-4.329,-4.3604,-4.4302,-4.496,-4.5648,-4.6294,-4.6995,-4.7309,-4.7309,-4.7309,-4.7309,-4.7339,-4.7923,-4.8596,-4.9359,-4.9898,-5.051,-5.1214,-5.1214,-5.1214,-5.1214,-5.1214,-5.1214,-5.1334,-5.2052,-5.2695,-5.3309,-5.4072,-5.4715,-5.5194,-5.5194,-5.5194,-5.5194,-5.5027,-5.2881,-5.0045,-4.7252,-4.6421,-4.6313,-4.6313,-4.6313,-4.6313,-4.6313,-4.6313,-4.6313,-4.6313,-4.6313,-4.6313,-4.6313,-4.6313,-4.6313,-4.6313,-4.6263,-4.6238,-4.6301,-4.6263,-4.6238,-4.6301,-4.6313,-4.6313,-4.6313,-4.6313,-4.6313,-4.6313,-4.6313,-4.6313,-4.6313,-4.5836,-4.5284,-4.4631,-4.4016,-4.3476,-4.2974,-4.2974,-4.2974,-4.2974,-4.2974,-4.2974,-2.444,-2.4694,-2.5016,-2.4193,-2.4822,0.0,-2.343,-2.4059,-2.5352,-2.6692,-2.738,-2.8547,-3.1195,-3.2781,-3.3634,-3.3499,-3.5594,-3.736,-3.7749,-3.7793,-3.8003,-3.8527,-3.8601,-3.8856,-3.9544,-4.0083,-4.0502,-4.0771,-4.1796,-4.2455,-4.259,-4.3045,-4.329,-4.329,-4.329,-4.3604,-4.4302,-4.496,-4.5648,-4.6294,-4.6995,-4.7309,-4.7309,-4.7309,-4.7309,-4.7309,-4.7444,-4.8177,-4.9329,-4.9449,-5.0152,-5.1214,-5.1214,-5.1214,-5.1214,-5.1214,-5.1214,-5.1394,-5.2576,-5.3069,-5.3384,-5.461,-5.5089,-5.5194,-5.5194,-5.5194,-5.4962,-5.3742,-5.2105,-5.0268,-4.8518,-4.7205,-4.6313,-4.6313,-4.6313,-4.6313,-4.6313,-4.6313,-4.6313,-4.6313,-4.6313,-4.6313,-4.6313,-4.6313,-4.6313,-4.6313,-4.5937,-4.5811,-4.625,-4.5924,-4.5811,-4.6263,-4.6313,-4.6313,-4.6313,-4.6313,-4.6313,-4.6313,-4.6313,-4.6313,-4.6313,-4.62,-4.5673,-4.4644,-4.3639,-4.3087,-4.2974,-4.2974,-4.2974,-4.2974,-4.2974,-4.2974,-2.5974,-2.5839,-2.6019,-2.5683,-2.5345,0.0,0.0,-2.3894,-2.4208,-2.6183,-2.6063,-2.6422,-2.9056,-3.0088,-3.0746,-3.1405,-3.3455,-3.4966,-3.4966,-3.6956,-3.8527,-3.8871,-3.8901,-3.9035,-3.9394,-3.9709,-4.0053,-4.0367,-4.1309,-4.2051,-4.2381,-4.2671,-4.3,-4.329,-4.329,-4.3454,-4.3783,-4.4811,-4.5469,-4.5813,-4.683,-4.7309,-4.7309,-4.7309,-4.7309,-4.7309,-4.7309,-4.8057,-4.9314,-4.9314,-5.0032,-5.1214,-5.1214,-5.1214,-5.1214,-5.1214,-5.1214,-5.1409,-5.2725,-5.3174,-5.3399,-5.4745,-5.5194,-5.5194,-5.5194,-5.5194,-5.4911,-5.3413,-5.1889,-5.038,-4.8851,-4.7429,-4.6313,-4.6313,-4.6313,-4.6313,-4.6313,-4.6313,-4.6313,-4.6313,-4.6313,-4.6313,-4.6313,-4.6313,-4.6313,-4.6313,-4.6075,-4.5999,-4.6276,-4.6075,-4.5999,-4.6276,-4.6313,-4.6313,-4.6313,-4.6313,-4.6313,-4.6313,-4.6313,-4.6313,-4.6313,-4.6313,-4.5773,-4.4644,-4.3815,-4.325,-4.2974,-4.2974,-4.2974,-4.2974,-4.2974,-4.2974,-2.8008,-2.7634,-2.7709,-2.763,-2.6333,-2.5255,0.0,0.0,0.0,-2.6207,-2.5465,-2.5068,-2.7245,-2.729,-2.7555,-2.9116,-3.0821,-3.1943,-3.1943,-3.5489,-3.8138,-3.8257,-3.8616,-3.8901,-3.902,-3.8931,-3.917,-3.9948,-4.0397,-4.1048,-4.1976,-4.2261,-4.2635,-4.3135,-4.323,-4.329,-4.329,-4.4631,-4.5289,-4.5304,-4.6666,-4.7309,-4.7309,-4.7309,-4.7309,-4.7309,-4.7309,-4.8057,-4.9314,-4.9314,-5.0032,-5.1214,-5.1214,-5.1214,-5.1214,-5.1214,-5.1214,-5.1409,-5.2725,-5.3174,-5.3399,-5.4745,-5.5194,-5.5194,-5.5194,-5.5194,-5.4962,-5.3742,-5.2105,-5.0435,-4.9237,-4.7639,-4.6313,-4.6313,-4.6313,-4.6313,-4.6313,-4.6313,-4.6313,-4.6313,-4.6313,-4.6313,-4.6313,-4.6313,-4.6313,-4.6313,-4.6313,-4.6313,-4.6313,-4.6313,-4.6313,-4.6313,-4.6313,-4.6313,-4.6313,-4.6313,-4.6313,-4.6313,-4.6313,-4.6313,-4.6313,-4.6213,-4.5723,-4.4807,-4.4141,-4.3576,-4.3137,-4.3024,-4.2974,-4.2974,-4.2974,-4.2974,-3.1167,-3.1376,-3.115,-2.8319,-2.9116,-2.9283,-2.429,0.0,-2.5623,-2.3661,0.0,-2.3804,-2.4103,0.0,0.0,-2.5232,-2.7889,-2.9936,-2.9936,-3.1869,-3.3514,-3.4098,-3.5729,-3.703,-3.7584,-3.7135,-3.7315,-3.8527,-3.8153,-3.8676,-4.0531,-4.1767,-4.2425,-4.2515,-4.303,-4.329,-4.329,-4.4631,-4.5289,-4.5304,-4.6666,-4.7309,-4.7309,-4.7309,-4.7309,-4.7309,-4.7309,-4.8057,-4.9314,-4.9314,-5.0032,-5.1214,-5.1214,-5.1214,-5.1214,-5.1214,-5.1214,-5.1409,-5.2725,-5.3174,-5.3399,-5.4745,-5.5194,-5.5194,-5.5194,-5.5194,-5.5194,-5.5027,-5.2881,-5.0644,-5.0477,-4.8403,-4.6313,-4.6313,-4.6313,-4.6313,-4.6313,-4.6313,-4.6313,-4.6313,-4.6313,-4.6313,-4.6313,-4.6313,-4.6313,-4.6313,-4.6313,-4.6313,-4.6313,-4.6313,-4.6313,-4.6313,-4.6313,-4.6313,-4.6313,-4.6313,-4.6313,-4.6313,-4.6313,-4.6313,-4.6313,-4.5836,-4.5522,-4.5397,-4.4342,-4.3765,-4.3714,-4.3212,-4.2974,-4.2974,-4.2974,-4.2974,-3.1795,-3.1705,-3.1496,-2.9714,-2.925,-2.8487,-2.5623,-2.465,-2.4245,-2.3879,0.0,0.0,0.0,0.0,0.0,0.0,-2.5854,-2.7141,-2.6752,-2.8742,-3.1046,-3.323,-3.3559,-3.4173,-3.5579,-3.5833,-3.6447,-3.7719,-3.6881,-3.7345,-3.9709,-4.0711,-4.1617,-4.2381,-4.3,-4.329,-4.329,-4.4631,-4.5289,-4.5304,-4.6666,-4.7309,-4.7309,-4.7309,-4.7309,-4.7309,-4.7309,-4.8057,-4.9314,-4.9314,-5.0032,-5.1214,-5.1214,-5.1214,-5.1214,-5.1214,-5.1214,-5.1409,-5.2725,-5.3174,-5.3399,-5.4745,-5.5194,-5.5194,-5.5194,-5.5194,-5.5194,-5.5194,-5.3054,-5.0699,-5.0699,-4.8505,-4.6313,-4.6313,-4.6313,-4.6313,-4.6313,-4.6313,-4.6313,-4.6313,-4.6313,-4.6313,-4.6313,-4.6313,-4.6313,-4.6313,-4.6313,-4.6313,-4.6313,-4.6313,-4.6313,-4.6313,-4.6313,-4.6313,-4.6313,-4.6313,-4.6313,-4.6313,-4.6313,-4.6313,-4.6313,-4.6087,-4.5811,-4.5497,-4.502,-4.4618,-4.4279,-4.3727,-4.3451,-4.3451,-4.3124,-4.2974,-3.3125,-3.2736,-3.2213,-3.0657,-2.9175,-2.7735,-2.6123,-2.4754,-2.3969,-2.4709,-2.4208,0.0,0.0,0.0,0.0,0.0,0.0,-2.5315,-2.444,-2.6019,-2.8248,-3.1016,-3.1256,-3.1958,-3.3769,-3.4053,-3.4891,-3.6746,-3.5519,-3.5983,-3.8975,-3.9768,-4.0726,-4.2096,-4.2731,-4.315,-4.329,-4.4631,-4.5289,-4.5304,-4.6666,-4.7309,-4.7309,-4.7309,-4.7309,-4.7309,-4.7309,-4.8057,-4.9314,-4.9314,-5.0032,-5.1214,-5.1214,-5.1214,-5.1214,-5.1214,-5.1214,-5.1409,-5.2725,-5.3414,-5.3892,-5.4865,-5.5194,-5.5194,-5.5194,-5.5194,-5.5194,-5.5194,-5.3054,-5.0699,-5.0699,-4.8505,-4.6313,-4.6313,-4.6313,-4.6313,-4.6313,-4.6313,-4.6313,-4.6313,-4.6313,-4.6313,-4.6313,-4.6313,-4.6313,-4.6313,-4.6313,-4.6313,-4.6313,-4.6313,-4.6313,-4.6313,-4.6313,-4.6313,-4.6313,-4.6313,-4.6313,-4.6313,-4.6313,-4.6313,-4.6313,-4.6313,-4.6125,-4.5723,-4.556,-4.5284,-4.4857,-4.4305,-4.4028,-4.4003,-4.3313,-4.2974,-3.6342,-3.5863,-3.4457,-3.0582,-2.9592,-2.8513,-2.4582,-2.5136,-2.6303,-2.5689,-2.7066,-2.8188,-2.7585,0.0,0.0,0.0,0.0,0.0,0.0,-2.3714,-2.4283,-2.5689,-2.8622,-3.1076,-3.2437,-3.142,-3.2033,-3.531,-3.3739,-3.4307,-3.8212,-3.908,-4.0053,-4.1407,-4.2096,-4.2701,-4.329,-4.4631,-4.5289,-4.5304,-4.6666,-4.7309,-4.7309,-4.7309,-4.7309,-4.7309,-4.7309,-4.8057,-4.9314,-4.9314,-5.0032,-5.1214,-5.1214,-5.1214,-5.1214,-5.1214,-5.1214,-5.1409,-5.2725,-5.4027,-5.5134,-5.5179,-5.5194,-5.5194,-5.5194,-5.5194,-5.5194,-5.5194,-5.3054,-5.0699,-5.0699,-4.8505,-4.6313,-4.6313,-4.6313,-4.6313,-4.6313,-4.6313,-4.6313,-4.6313,-4.6313,-4.6313,-4.6313,-4.6313,-4.6313,-4.6313,-4.6313,-4.6313,-4.6313,-4.6313,-4.6313,-4.6313,-4.6313,-4.6313,-4.6313,-4.6313,-4.6313,-4.6313,-4.6313,-4.6313,-4.6313,-4.6313,-4.6301,-4.6288,-4.5761,-4.5485,-4.546,-4.4882,-4.4593,-4.4568,-4.3476,-4.2974,-3.6596,-3.6626,-3.6028,-3.2946,-3.118,-2.9385,-2.6288,-2.6093,-2.6408,-2.5749,-2.72,-2.8397,-2.772,0.0,0.0,0.0,0.0,0.0,0.0,-2.1964,-2.2188,-2.3505,-2.6961,-2.9071,-2.8637,-3.0135,-3.1809,-3.341,-3.2901,-3.3858,-3.6971,-3.8153,-3.9349,-4.0696,-4.1826,-4.2671,-4.329,-4.4631,-4.5289,-4.5304,-4.6666,-4.7309,-4.7309,-4.7309,-4.7309,-4.7324,-4.7773,-4.8461,-4.9344,-4.9733,-5.0421,-5.1214,-5.1214,-5.1214,-5.1214,-5.1214,-5.1498,-5.2052,-5.3399,-5.4446,-5.5194,-5.5194,-5.5194,-5.5194,-5.5194,-5.5194,-5.5194,-5.5194,-5.3727,-5.1997,-5.0975,-4.9224,-4.7534,-4.6528,-4.6313,-4.6313,-4.6313,-4.6313,-4.6313,-4.6313,-4.6313,-4.6313,-4.6313,-4.6313,-4.6313,-4.6313,-4.6313,-4.6313,-4.6313,-4.6313,-4.6313,-4.6313,-4.6313,-4.6313,-4.6313,-4.6313,-4.6313,-4.6313,-4.6313,-4.6313,-4.6313,-4.6313,-4.6313,-4.6313,-4.6125,-4.6037,-4.6037,-4.5472,-4.5196,-4.5171,-4.4041,-4.3526,-3.727,-3.7285,-3.6836,-3.4442,-3.2871,-3.1165,-2.8308,-2.8188,-2.8442,-2.753,-2.8757,-2.9924,-2.9741,0.0,0.0,0.0,0.0,0.0,0.0,-2.1335,-2.1455,-2.2568,-2.5345,-2.7215,-2.729,-2.8566,-3.0255,-3.2333,-3.1869,-3.2841,-3.5968,-3.7345,-3.8766,-4.0352,-4.1444,-4.2447,-4.329,-4.4631,-4.5289,-4.5304,-4.6666,-4.7309,-4.7309,-4.7309,-4.7309,-4.7339,-4.7997,-4.87,-4.9359,-4.9972,-5.0584,-5.1214,-5.1214,-5.1214,-5.1214,-5.1214,-5.1783,-5.271,-5.3817,-5.464,-5.5194,-5.5194,-5.5194,-5.5194,-5.5194,-5.5194,-5.5194,-5.5194,-5.4134,-5.2789,-5.1781,-5.0016,-4.8255,-4.7311,-4.6695,-4.6313,-4.6313,-4.6313,-4.6313,-4.6313,-4.6313,-4.6313,-4.6313,-4.6313,-4.6313,-4.6313,-4.6313,-4.6313,-4.6313,-4.6313,-4.6313,-4.6313,-4.6313,-4.6313,-4.6313,-4.6313,-4.6313,-4.6313,-4.6313,-4.6313,-4.6313,-4.6313,-4.6313,-4.6313,-4.6313,-4.6313,-4.6313,-4.5949,-4.5786,-4.5761,-4.4832,-4.4392]},{"header":{"parameterUnit":"m.s-1","parameterCategory":1,"la1":30.6,"la2":29.2853,"lo1":-89.7004,"lo2":-87.6739,"dy":0.0162,"dx":0.0183,"nx":112,"ny":82,"refTime":"2026-03-29T00:00:00:Z","depth":0,"parameterNumber":3,"parameterNumberName":"V-component_of_WINDS"},"data":[0.0,0.0,0.0,0.0,0.0,0.0,0.0,0.0,0.0,0.0,0.0,0.0,0.0,0.0,0.0,0.0,0.0,0.0,0.0,0.0,0.0,0.0,0.0,0.0,0.0,0.0,0.0,0.0,0.0,0.0,0.0,0.0,0.0,0.0,0.0,0.0,0.0,0.0,0.0,0.0,0.0,0.0,0.0,0.0,0.0,0.0,0.0,0.0,0.0,0.0,0.0,0.0,0.0,0.0,0.0,0.0,0.0,0.0,0.0,0.0,0.0,0.0,0.0,0.0,0.0,0.0,0.0,0.0,0.0,0.0,0.0,0.0,0.0,0.0,0.0,0.0,0.0,0.0,0.0,0.0,0.0,0.0,0.0,0.0,0.0,0.0,0.0,0.0,0.0,0.0,2.1521,2.3634,2.6468,2.8009,2.7457,2.6776,2.4777,2.1056,0.0,0.0,0.0,0.0,0.0,0.0,0.0,0.0,0.0,0.0,0.0,0.0,0.0,0.0,0.0,0.0,0.0,0.0,0.0,0.0,0.0,0.0,0.0,0.0,0.0,0.0,0.0,0.0,0.0,0.0,0.0,0.0,0.0,0.0,0.0,0.0,0.0,0.0,0.0,0.0,0.0,0.0,0.0,0.0,0.0,0.0,0.0,0.0,0.0,0.0,0.0,0.0,0.0,0.0,0.0,0.0,0.0,0.0,0.0,0.0,0.0,0.0,0.0,0.0,0.0,0.0,0.0,0.0,0.0,0.0,0.0,0.0,0.0,0.0,0.0,0.0,0.0,0.0,0.0,0.0,0.0,0.0,0.0,0.0,0.0,0.0,0.0,0.0,0.0,0.0,0.0,0.0,0.0,0.0,0.0,0.0,0.0,0.0,0.0,0.0,0.0,0.0,0.0,0.0,2.2414,2.6879,2.8186,2.8549,2.8034,2.659,2.4481,2.1543,0.0,0.0,0.0,0.0,0.0,0.0,0.0,0.0,0.0,0.0,0.0,0.0,0.0,0.0,0.0,0.0,0.0,0.0,0.0,0.0,0.0,0.0,0.0,0.0,0.0,0.0,0.0,0.0,0.0,0.0,0.0,0.0,0.0,0.0,0.0,0.0,0.0,0.0,0.0,0.0,0.0,0.0,0.0,0.0,0.0,0.0,0.0,0.0,0.0,0.0,0.0,0.0,0.0,0.0,0.0,0.0,0.0,0.0,0.0,0.0,0.0,0.0,0.0,0.0,0.0,0.0,0.0,0.0,0.0,0.0,0.0,0.0,0.0,0.0,0.0,0.0,0.0,0.0,0.0,0.0,0.0,0.0,0.0,0.0,0.0,0.0,0.0,0.0,0.0,0.0,0.0,0.0,0.0,0.0,0.0,0.0,0.0,0.0,0.0,0.0,0.0,0.0,0.0,2.1681,2.4029,2.8109,2.9063,2.9051,2.8185,2.713,2.5071,2.1694,1.9923,0.0,0.0,0.0,0.0,0.0,0.0,0.0,0.0,0.0,0.0,0.0,0.0,0.0,0.0,0.0,0.0,0.0,0.0,0.0,0.0,0.0,0.0,0.0,0.0,0.0,0.0,0.0,0.0,0.0,0.0,0.0,0.0,0.0,0.0,0.0,0.0,0.0,0.0,0.0,0.0,0.0,0.0,0.0,0.0,0.0,0.0,0.0,0.0,0.0,0.0,0.0,0.0,0.0,0.0,0.0,0.0,0.0,0.0,0.0,0.0,0.0,0.0,0.0,0.0,0.0,0.0,0.0,0.0,0.0,0.0,0.0,0.0,0.0,0.0,0.0,0.0,0.0,0.0,0.0,0.0,0.0,0.0,0.0,0.0,0.0,0.0,0.0,0.0,0.0,0.0,0.0,0.0,0.0,0.0,0.0,0.0,0.0,0.0,0.0,0.0,0.0,0.0,2.4368,2.5887,2.8812,2.9528,2.934,2.8197,2.7243,2.5209,2.1707,1.9572,0.0,0.0,0.0,0.0,0.0,0.0,0.0,0.0,0.0,0.0,0.0,0.0,0.0,0.0,0.0,0.0,0.0,0.0,0.0,0.0,0.0,0.0,0.0,0.0,0.0,0.0,0.0,0.0,0.0,0.0,0.0,0.0,0.0,0.0,0.0,0.0,0.0,0.0,0.0,0.0,0.0,0.0,0.0,0.0,0.0,0.0,0.0,0.0,0.0,0.0,0.0,0.0,0.0,0.0,0.0,0.0,0.0,0.0,0.0,0.0,0.0,0.0,0.0,0.0,0.0,0.0,0.0,0.0,0.0,0.0,0.0,0.0,0.0,0.0,0.0,0.0,0.0,0.0,0.0,0.0,0.0,0.0,0.0,0.0,0.0,0.0,0.0,0.0,0.0,0.0,0.0,0.0,0.0,0.0,0.0,0.0,0.0,0.0,0.0,0.0,0.0,0.0,2.546,2.7745,2.9541,2.9767,2.934,2.8197,2.6189,2.3991,2.1644,1.8468,0.0,0.0,0.0,0.0,0.0,0.0,0.0,0.0,0.0,0.0,0.0,0.0,0.0,0.0,0.0,0.0,0.0,0.0,0.0,0.0,0.0,0.0,0.0,0.0,0.0,0.0,0.0,0.0,0.0,0.0,0.0,0.0,0.0,0.0,0.0,0.0,0.0,0.0,0.0,0.0,0.0,0.0,0.0,0.0,0.0,0.0,0.0,0.0,0.0,0.0,0.0,0.0,0.0,0.0,0.0,0.0,0.0,0.0,0.0,0.0,0.0,0.0,0.0,0.0,0.0,0.0,0.0,0.0,0.0,0.0,0.0,0.0,0.0,0.0,0.0,0.0,0.0,0.0,0.0,0.0,0.0,0.0,0.0,0.0,0.0,0.0,0.0,0.0,0.0,0.0,0.0,0.0,0.0,0.0,0.0,0.0,0.0,0.0,0.0,0.0,0.0,0.0,2.4946,2.7143,2.9541,2.9792,2.934,2.8197,2.703,2.4971,2.1694,0.0,0.0,0.0,0.0,0.0,0.0,0.0,0.0,0.0,0.0,0.0,0.0,0.0,0.0,0.0,0.0,0.0,0.0,0.0,0.0,0.0,0.0,0.0,0.0,0.0,0.0,0.0,0.0,0.0,0.0,0.0,0.0,0.0,0.0,0.0,0.0,0.0,0.0,0.0,0.0,0.0,0.0,0.0,0.0,0.0,0.0,0.0,0.0,0.0,0.0,0.0,0.0,0.0,0.0,0.0,0.0,0.0,0.0,0.0,0.0,0.0,0.0,0.0,0.0,0.0,0.0,0.0,0.0,0.0,0.0,0.0,0.0,0.0,0.0,0.0,0.0,0.0,0.0,0.0,0.0,0.0,0.0,0.0,0.0,0.0,0.0,0.0,0.0,0.0,0.0,0.0,0.0,0.0,0.0,0.0,0.0,0.0,0.0,0.0,0.0,0.0,0.0,2.2669,2.5046,2.7268,2.9553,2.9792,2.934,2.8197,2.7118,2.5071,2.1694,0.0,0.0,0.0,0.0,0.0,0.0,0.0,0.0,0.0,0.0,0.0,0.0,0.0,0.0,0.0,0.0,0.0,0.0,0.0,0.0,0.0,0.0,0.0,0.0,0.0,0.0,0.0,0.0,0.0,0.0,0.0,0.0,0.0,0.0,0.0,0.0,0.0,0.0,0.0,0.0,0.0,0.0,0.0,0.0,0.0,0.0,0.0,0.0,0.0,0.0,0.0,0.0,0.0,0.0,0.0,0.0,0.0,0.0,0.0,0.0,0.0,0.0,0.0,0.0,0.0,0.0,0.0,0.0,0.0,0.0,0.0,0.0,0.0,0.0,0.0,0.0,0.0,0.0,0.0,0.0,0.0,0.0,0.0,0.0,0.0,0.0,0.0,0.0,0.0,0.0,0.0,0.0,0.0,0.0,0.0,0.0,0.0,0.0,0.0,0.0,0.0,0.0,2.2819,2.6038,2.8536,2.9679,2.9792,2.934,2.821,2.6101,2.3879,0.0,0.0,0.0,0.0,0.0,0.0,0.0,0.0,0.0,0.0,0.0,0.0,0.0,0.0,0.0,0.0,0.0,0.0,0.0,0.0,0.0,0.0,0.0,0.0,0.0,0.0,0.0,0.0,0.0,0.0,0.0,0.0,0.0,0.0,0.0,0.0,0.0,0.0,0.0,0.0,0.0,0.0,0.0,0.0,0.0,0.0,0.0,0.0,0.0,0.0,0.0,0.0,0.0,0.0,0.0,0.0,0.0,0.0,0.0,0.0,0.0,0.0,0.0,0.0,0.0,0.0,0.0,0.0,0.0,0.0,0.0,0.0,0.0,0.0,0.0,0.0,0.0,0.0,0.0,0.0,0.0,0.0,0.0,0.0,0.0,0.0,0.0,0.0,0.0,0.0,0.0,0.0,0.0,0.0,0.0,0.0,0.0,0.0,0.0,0.0,0.0,0.0,0.0,2.2819,2.6038,2.8536,2.9679,2.9792,2.949,2.8712,2.703,2.4858,2.2234,0.0,0.0,0.0,0.0,0.0,0.0,0.0,0.0,0.0,0.0,0.0,0.0,0.0,0.0,0.0,0.0,0.0,0.0,0.0,0.0,0.0,0.0,0.0,0.0,0.0,0.0,0.0,0.0,0.0,0.0,0.0,0.0,0.0,0.0,0.0,0.0,0.0,0.0,0.0,0.0,0.0,0.0,0.0,0.0,0.0,0.0,0.0,0.0,0.0,0.0,0.0,0.0,0.0,0.0,0.0,0.0,0.0,0.0,0.0,0.0,0.0,0.0,0.0,0.0,0.0,0.0,0.0,0.0,0.0,0.0,0.0,0.0,0.0,0.0,0.0,0.0,0.0,0.0,0.0,0.0,0.0,0.0,0.0,0.0,0.0,0.0,0.0,0.0,0.0,0.0,0.0,0.0,0.0,0.0,0.0,0.0,0.0,0.0,0.0,0.0,0.0,0.0,2.2819,2.6038,2.8536,2.9679,2.9792,2.9566,2.8938,2.7607,2.5544,2.2498,0.0,0.0,0.0,0.0,0.0,0.0,0.0,0.0,0.0,0.0,0.0,0.0,0.0,0.0,0.0,0.0,0.0,0.0,0.0,0.0,0.0,0.0,0.0,0.0,0.0,0.0,0.0,0.0,0.0,0.0,0.0,0.0,0.0,0.0,0.0,0.0,0.0,0.0,0.0,0.0,0.0,0.0,0.0,0.0,0.0,0.0,0.0,0.0,0.0,0.0,0.0,0.0,0.0,0.0,0.0,0.0,0.0,0.0,0.0,0.0,0.0,0.0,0.0,0.0,0.0,0.0,0.0,0.0,0.0,0.0,0.0,0.0,0.0,0.0,0.0,0.0,0.0,0.0,0.0,0.0,0.0,0.0,0.0,0.0,0.0,0.0,0.0,0.0,0.0,0.0,0.0,0.0,0.0,0.0,0.0,0.0,0.0,0.0,0.0,0.0,0.0,0.0,2.2819,2.6038,2.8536,2.9679,2.9792,2.9578,2.9013,2.7946,2.5925,2.2719,0.0,0.0,0.0,0.0,0.0,0.0,0.0,0.0,0.0,0.0,0.0,0.0,0.0,0.0,0.0,0.0,0.0,0.0,0.0,0.0,0.0,0.0,0.0,0.0,0.0,0.0,0.0,0.0,0.0,0.0,0.0,0.0,0.0,0.0,0.0,0.0,0.0,0.0,0.0,0.0,0.0,0.0,0.0,0.0,0.0,0.0,0.0,0.0,0.0,0.0,0.0,0.0,0.0,0.0,0.0,0.0,0.0,0.0,0.0,0.0,2.3376,2.1744,0.0,0.0,0.0,0.0,0.0,0.0,0.0,0.0,0.0,0.0,0.0,0.0,0.0,0.0,0.0,0.0,0.0,0.0,0.0,0.0,0.0,0.0,0.0,0.0,0.0,0.0,0.0,0.0,0.0,0.0,0.0,0.0,0.0,0.0,0.0,0.0,0.0,0.0,0.0,0.0,2.2882,2.6038,2.8536,2.9679,2.9792,2.9741,2.9616,2.8172,2.6427,2.4418,2.1368,0.0,0.0,0.0,0.0,0.0,0.0,0.0,0.0,0.0,0.0,0.0,0.0,0.0,0.0,0.0,0.0,0.0,0.0,0.0,0.0,0.0,0.0,0.0,0.0,0.0,0.0,0.0,0.0,0.0,0.0,0.0,0.0,0.0,0.0,0.0,0.0,0.0,0.0,0.0,0.0,0.0,0.0,0.0,0.0,0.0,0.0,0.0,0.0,0.0,0.0,0.0,0.0,0.0,0.0,0.0,0.0,0.0,0.0,0.0,2.7205,2.5465,0.0,0.0,0.0,0.0,0.0,0.0,0.0,0.0,0.0,0.0,0.0,0.0,0.0,0.0,0.0,0.0,0.0,0.0,0.0,0.0,0.0,0.0,0.0,0.0,0.0,0.0,0.0,0.0,0.0,0.0,0.0,0.0,0.0,0.0,0.0,0.0,0.0,0.0,0.0,0.0,2.3339,2.644,2.8837,2.9704,2.9792,2.9792,2.9792,2.8737,2.7243,2.5322,2.2799,0.0,0.0,0.0,0.0,0.0,0.0,0.0,0.0,0.0,0.0,0.0,0.0,0.0,0.0,0.0,0.0,0.0,0.0,0.0,0.0,0.0,0.0,0.0,0.0,0.0,0.0,0.0,0.0,0.0,0.0,0.0,0.0,0.0,0.0,0.0,0.0,0.0,0.0,0.0,0.0,0.0,0.0,0.0,0.0,0.0,0.0,0.0,0.0,0.0,0.0,0.0,0.0,0.0,3.2277,3.2855,3.1938,3.3031,3.3721,3.4004,3.165,3.0281,2.9528,2.7871,0.0,0.0,0.0,0.0,0.0,0.0,0.0,0.0,0.0,0.0,0.0,0.0,0.0,0.0,0.0,0.0,0.0,0.0,0.0,0.0,0.0,0.0,2.5134,2.5034,2.5686,2.5523,2.2627,0.0,0.0,0.0,0.0,0.0,0.0,0.0,0.0,0.0,0.0,0.0,2.4054,2.6957,2.9113,2.9729,2.9792,2.9792,2.9792,2.9264,2.8023,2.6013,2.4311,2.2042,0.0,0.0,0.0,0.0,0.0,0.0,0.0,0.0,0.0,0.0,0.0,0.0,0.0,0.0,0.0,0.0,0.0,0.0,0.0,0.0,0.0,0.0,0.0,0.0,0.0,0.0,0.0,0.0,0.0,0.0,0.0,0.0,2.1355,2.2431,0.0,0.0,0.0,0.0,0.0,0.0,0.0,0.0,0.0,0.0,0.0,0.0,0.0,3.0319,3.0846,3.347,3.4455,3.3953,3.6697,3.7663,3.7073,3.8203,3.8492,3.809,3.7713,0.0,3.2403,3.0746,0.0,0.0,0.0,0.0,0.0,0.0,0.0,0.0,0.0,0.0,0.0,0.0,0.0,0.0,0.0,0.0,0.0,0.0,0.0,0.0,0.0,0.0,2.9616,2.9151,2.9139,2.885,2.7431,2.4594,2.1895,2.0528,1.9975,1.9133,0.0,0.0,0.0,0.0,0.0,0.0,2.5172,2.7421,2.9113,2.9729,2.9792,2.9792,2.9792,2.9264,2.8398,2.7143,2.5511,2.3722,2.1845,1.9835,0.0,0.0,0.0,0.0,0.0,0.0,0.0,0.0,0.0,0.0,0.0,0.0,0.0,0.0,0.0,0.0,0.0,0.0,0.0,0.0,0.0,0.0,0.0,0.0,0.0,0.0,0.0,0.0,0.0,2.1343,2.3188,2.396,2.4418,2.418,0.0,0.0,0.0,0.0,0.0,0.0,0.0,0.0,0.0,3.0859,3.2817,3.4248,3.5102,3.7262,3.8065,3.7538,3.9383,3.9961,3.9446,4.0249,4.0488,4.0262,4.0262,3.8944,3.6596,3.3997,3.1938,3.0256,0.0,0.0,0.0,0.0,2.7883,2.7833,2.939,2.9716,2.9264,2.8009,0.0,0.0,0.0,0.0,0.0,0.0,0.0,2.6264,2.7519,2.9227,3.0633,3.0683,3.0934,3.0934,3.0131,2.8386,2.6189,2.3514,2.3301,2.2652,1.9749,1.9936,0.0,0.0,0.0,2.5008,2.6377,2.8222,2.9515,2.9767,2.9792,2.9792,2.9792,2.9566,2.9063,2.826,2.6942,2.5586,2.4217,2.2046,2.0061,0.0,0.0,0.0,0.0,0.0,0.0,0.0,0.0,0.0,0.0,0.0,0.0,0.0,0.0,0.0,0.0,0.0,0.0,0.0,0.0,0.0,0.0,0.0,0.0,0.0,0.0,0.0,0.0,2.3281,2.5046,2.5565,2.6766,2.6851,0.0,0.0,0.0,0.0,0.0,0.0,2.9553,3.1675,3.3319,3.4299,3.6345,3.7814,3.8642,4.0023,4.0526,4.0124,4.1091,4.1329,4.0953,4.1505,4.1681,4.1543,4.1543,4.1003,3.9885,3.6985,3.4788,3.3144,3.1788,3.0922,3.048,3.1361,3.1411,3.1373,3.3558,3.396,3.3257,3.175,3.0696,2.9566,2.7218,0.0,0.0,0.0,0.0,2.7733,2.9691,3.0894,3.1763,3.2152,3.2441,3.2491,3.1938,3.1399,3.0005,2.6506,2.6414,2.5858,2.2527,2.2611,0.0,2.2828,2.4632,2.644,2.7557,2.8925,2.9792,2.9792,2.9792,2.9792,2.9792,2.9792,2.9541,2.8925,2.8021,2.6992,2.5862,2.3966,2.2159,2.0476,0.0,0.0,0.0,0.0,0.0,0.0,0.0,0.0,0.0,0.0,0.0,0.0,0.0,0.0,0.0,0.0,0.0,0.0,0.0,0.0,0.0,0.0,0.0,0.0,0.0,0.0,0.0,0.0,0.0,2.7871,2.9402,0.0,0.0,0.0,0.0,2.8687,3.0733,3.2441,3.3545,3.5692,3.7161,3.7739,3.9421,4.0337,4.0388,4.0937,4.1225,4.1213,4.1844,4.215,4.215,4.2647,4.2665,4.2162,4.2162,4.1794,4.1075,3.9383,3.7725,3.6141,3.5491,3.4868,3.4437,3.4455,3.45,3.4575,3.5182,3.5056,3.4713,3.5069,3.3088,3.0633,3.0959,2.9578,0.0,0.0,3.1072,3.2152,3.3345,3.4085,3.4525,3.455,3.4173,3.3671,3.3106,3.2541,3.1461,2.9126,2.8348,2.7457,2.5649,0.0,2.5611,2.616,2.6813,2.7595,2.8662,2.9402,2.9792,2.9792,2.9792,2.9792,2.9792,2.9792,2.9541,2.8925,2.8386,2.757,2.6499,2.531,2.3904,2.2221,2.0501,0.0,0.0,0.0,0.0,0.0,0.0,0.0,0.0,0.0,0.0,0.0,0.0,0.0,0.0,0.0,0.0,0.0,0.0,0.0,0.0,0.0,0.0,0.0,0.0,0.0,0.0,0.0,0.0,3.0645,3.224,0.0,3.0633,3.1474,3.2127,3.2127,3.4173,3.5742,3.6496,3.8316,3.9421,3.9609,4.089,4.1568,4.1568,4.212,4.2396,4.2396,4.2585,4.274,4.274,4.2886,4.2873,4.274,4.274,4.2371,4.1819,4.1282,4.0063,3.8417,3.7487,3.6797,3.6307,3.6307,3.6307,3.6383,3.6935,3.6998,3.6747,3.6232,3.5027,3.3652,3.3169,3.2453,3.1964,3.2566,3.3006,3.347,3.4236,3.4575,3.468,3.468,3.4575,3.4274,3.3721,3.3445,3.2855,3.1336,3.0595,2.9578,2.7557,2.7821,2.7996,2.7153,2.7758,2.8624,2.939,2.9666,2.9792,2.9792,2.9792,2.9792,2.9792,2.9792,2.9541,2.8925,2.8411,2.777,2.7052,2.5598,2.4368,2.3414,2.1739,1.9912,0.0,0.0,0.0,0.0,0.0,0.0,0.0,0.0,0.0,0.0,0.0,0.0,0.0,0.0,0.0,0.0,0.0,0.0,0.0,0.0,0.0,0.0,0.0,0.0,0.0,2.949,3.1926,3.2441,3.4311,3.4901,3.3232,3.4412,3.5278,3.5278,3.7161,3.8467,3.8831,4.0262,4.1065,4.1065,4.2133,4.2766,4.2766,4.3263,4.3526,4.3526,4.3526,4.3526,4.3526,4.3526,4.3426,4.3263,4.3263,4.2949,4.2489,4.2489,4.1735,4.0438,3.9496,3.8906,3.8567,3.8379,3.8304,3.8304,3.8304,3.8304,3.814,3.7224,3.6546,3.5931,3.5014,3.4613,3.4449,3.4449,3.4449,3.4575,3.5127,3.5278,3.5278,3.5278,3.514,3.4856,3.4537,3.4161,3.3684,3.293,3.2177,3.1148,2.9503,2.9691,2.9691,2.8574,2.8863,2.9365,2.9741,2.9792,2.9792,2.9792,2.9792,2.9792,2.9792,2.9792,2.9628,2.9252,2.8524,2.7858,2.7306,2.5862,2.4745,2.4017,2.2302,2.0772,1.9409,0.0,0.0,0.0,0.0,0.0,0.0,0.0,0.0,0.0,0.0,0.0,0.0,0.0,0.0,0.0,0.0,0.0,0.0,0.0,0.0,0.0,0.0,0.0,2.826,3.1549,3.3771,3.3307,3.5629,3.6646,3.5064,3.6847,3.8103,3.809,3.9634,4.0563,4.0563,4.1593,4.2238,4.2263,4.3237,4.3815,4.3827,4.4355,4.4618,4.4618,4.4618,4.4618,4.4618,4.4618,4.433,4.3827,4.3815,4.3501,4.2999,4.2986,4.266,4.2187,4.158,4.13,4.1225,4.0739,4.0526,4.0362,3.9295,3.8957,3.8856,3.8216,3.7676,3.7136,3.6609,3.6022,3.5571,3.5558,3.5545,3.5671,3.6267,3.6405,3.6405,3.6405,3.5956,3.552,3.5495,3.4655,3.3935,3.3909,3.3018,3.2089,3.1512,3.0997,3.0658,3.0645,3.0181,0.0,2.9817,2.9817,2.9817,2.9792,2.9792,2.9792,2.9792,2.9792,2.9779,2.9741,2.8699,2.7833,2.7281,2.6176,2.5071,2.4017,2.2229,2.1109,2.0642,0.0,0.0,0.0,0.0,0.0,0.0,0.0,0.0,0.0,0.0,0.0,0.0,0.0,0.0,0.0,0.0,0.0,0.0,0.0,0.0,0.0,2.9377,3.1712,3.1712,3.3658,3.5642,3.7159,3.8304,3.8981,3.8931,3.9835,4.021,3.986,4.099,4.1706,4.1706,4.2426,4.2936,4.3338,4.3639,4.3991,4.4392,4.4556,4.4618,4.4618,4.4618,4.4618,4.4618,4.4618,4.4543,4.438,4.3978,4.3714,4.3539,4.3137,4.2886,4.2698,4.2145,4.1693,4.1263,4.1112,4.0811,4.0475,4.0174,3.9798,3.9371,3.8818,3.853,3.8304,3.7739,3.745,3.7249,3.6847,3.6734,3.6671,3.6468,3.6405,3.6405,3.6405,3.6292,3.6031,3.5583,3.5257,3.4806,3.406,3.3646,3.3119,3.2152,3.1876,3.1637,3.1235,3.1047,3.0821,3.0432,3.0394,3.0231,2.9829,2.9792,2.9792,2.9792,2.9792,2.9453,2.8624,2.7908,2.7291,2.6738,2.5624,2.4707,2.4017,2.2703,2.1832,0.0,0.0,0.0,0.0,0.0,0.0,0.0,0.0,0.0,0.0,0.0,0.0,0.0,0.0,0.0,0.0,0.0,0.0,0.0,0.0,0.0,0.0,3.219,3.4525,3.5692,3.6684,3.7764,3.9069,3.991,4.0513,4.0774,4.1354,4.1555,4.1229,4.2007,4.2652,4.2891,4.315,4.3576,4.4129,4.438,4.4656,4.4982,4.5221,4.5334,4.5334,4.5334,4.5334,4.5334,4.5334,4.5196,4.497,4.4644,4.4242,4.3777,4.3451,4.3187,4.2949,0.0,0.0,0.0,0.0,4.1329,4.0774,4.0601,4.0312,3.9948,3.9396,3.922,3.9107,3.8542,3.8366,3.8253,3.7688,3.7525,3.74,3.6895,3.6757,3.6694,3.6468,3.6405,3.6317,3.5956,3.5658,3.5307,3.4668,3.4211,0.0,3.3031,3.2528,3.2102,3.1788,3.1537,3.1286,3.0984,3.0947,3.0821,3.0495,3.0269,3.0143,3.0143,2.993,0.0,0.0,0.0,2.7168,2.6172,2.5272,0.0,0.0,0.0,0.0,0.0,0.0,0.0,0.0,2.3231,2.3146,0.0,0.0,0.0,0.0,0.0,0.0,0.0,0.0,0.0,0.0,0.0,0.0,0.0,0.0,0.0,0.0,3.4751,3.6797,3.9333,3.9848,3.9973,3.9973,4.084,4.1401,4.1463,4.1969,4.2301,4.2301,4.2816,4.3288,4.3777,4.3865,0.0,0.0,0.0,4.5522,4.5585,4.6062,4.6313,4.6313,4.6313,4.6313,4.6313,4.6313,4.605,4.5585,4.551,4.492,4.3978,4.3853,4.3476,4.2974,4.2974,4.2974,4.2924,4.2489,4.1907,4.1313,4.0877,0.0,0.0,3.9948,3.9747,3.9597,3.9107,3.9007,3.8894,3.8266,3.8103,3.7977,3.7425,3.7274,3.7136,3.6631,3.6505,3.648,3.6417,3.5981,3.5571,3.5508,3.4705,3.4048,3.3922,3.3018,3.2303,3.2303,3.1901,3.1562,3.1486,3.1486,3.1461,3.1399,3.0972,0.0,3.062,3.0168,2.9829,2.9704,2.8699,2.7406,2.585,2.5398,2.5126,2.5064,2.5548,2.6123,2.6803,2.8157,2.8941,2.9108,2.5957,2.5405,0.0,0.0,0.0,0.0,0.0,0.0,0.0,0.0,0.0,0.0,0.0,0.0,0.0,0.0,0.0,3.406,3.6558,3.8567,3.9546,4.084,4.1735,4.1735,4.1923,4.217,4.2622,4.276,4.2879,4.2879,4.3325,4.3689,4.379,4.4217,4.4731,4.5309,4.5434,4.5698,4.615,4.6263,4.6313,4.6313,4.6313,0.0,4.6313,4.6313,4.625,4.6125,4.5686,4.5359,4.5095,4.4179,4.3476,4.2974,4.2974,4.2974,4.2961,4.2848,4.2527,4.2037,4.1936,4.1254,4.0501,4.0388,4.0061,3.9672,3.9572,3.9534,0.0,3.8868,3.8705,3.8567,3.8002,3.7852,3.7713,3.7161,3.7023,3.6958,3.6505,3.6329,3.6069,3.5583,3.532,3.4906,3.406,3.3357,3.2918,3.2918,3.2817,3.2579,3.2114,3.2051,3.1888,3.1436,3.1298,3.1072,3.0658,3.052,3.0068,2.9113,2.8473,2.7758,2.6992,2.7293,2.7256,2.6816,2.6904,2.7118,2.7433,2.7736,2.8454,2.9578,2.9856,2.9881,0.0,0.0,0.0,0.0,0.0,0.0,0.0,0.0,0.0,0.0,0.0,2.8637,3.0294,0.0,3.4198,3.6433,3.8191,3.9572,4.04,4.1467,4.2213,4.2213,4.2451,4.2728,4.2949,4.2974,4.3087,4.3376,4.3639,4.4041,4.4618,4.4907,4.5321,4.5886,4.5899,4.6037,4.6313,4.6313,4.6313,4.6313,4.6313,4.6313,4.6313,4.6313,4.6313,4.6301,4.6024,4.5748,4.5397,4.4267,4.3639,4.3363,4.3087,4.2974,4.2974,4.2974,4.2798,4.2577,4.2301,4.1848,4.1291,4.1015,4.0563,4.0111,4.0111,3.991,3.9634,3.9358,3.9283,3.9157,3.858,3.8442,3.8291,3.7726,3.7387,3.7111,3.6883,3.6606,3.6329,3.6006,3.5683,3.532,3.4768,3.4261,3.3709,3.3156,3.3124,3.2968,3.2679,3.2641,3.2541,3.2265,3.1976,3.17,3.1436,3.0922,3.0091,2.8963,2.8637,2.8273,2.772,2.7959,2.7971,2.7708,2.7959,2.814,2.8264,2.9017,2.9772,3.0495,3.1551,3.1495,0.0,0.0,0.0,0.0,0.0,0.0,0.0,2.549,2.654,2.8084,2.9829,3.1712,3.3822,3.4939,3.6295,3.8642,3.9584,4.0362,4.1367,4.1969,4.2363,4.2363,4.2766,4.2974,4.2974,4.2974,4.3212,4.3765,4.3903,4.4405,4.5434,4.5585,4.5849,4.6301,4.6313,4.6313,4.6313,4.6313,4.6313,4.6313,4.6313,4.6313,4.6313,4.6313,4.6313,4.6313,4.6313,4.5999,4.5422,4.4505,4.4003,4.3765,4.3313,4.3074,4.2974,4.2974,4.2974,4.2911,4.2527,4.2301,4.2137,4.1643,4.1128,4.0664,4.0551,4.0212,3.9835,3.9722,3.9697,3.9597,3.9145,3.9082,3.8894,3.8316,3.7826,3.745,3.7236,3.6835,3.6531,3.643,3.6006,3.5621,3.552,3.5132,3.4512,3.3407,3.3275,3.3206,3.3093,3.3124,3.3124,3.3124,3.2654,3.234,3.2227,3.1323,3.0331,2.9276,2.9214,2.8976,2.8461,2.8436,2.8436,2.8436,2.8863,2.9051,2.9101,3.0325,3.0932,3.0932,3.1888,3.1928,2.4104,2.3389,2.3446,2.487,2.5222,2.6276,0.0,3.0922,3.0997,3.2177,3.418,3.5567,3.5345,3.7036,3.8668,3.9471,4.0475,4.1367,4.2037,4.259,4.2886,4.2886,4.2936,4.2974,4.2974,4.2974,4.3212,4.3765,4.4254,4.4807,4.5447,4.5949,4.625,4.6313,4.6313,4.6313,4.6313,4.6313,4.6313,4.6313,4.6313,4.6313,4.6313,4.6313,4.6313,4.6313,4.6313,4.5999,4.5485,4.5347,4.4706,4.379,4.3727,4.3413,4.2974,4.2974,4.2974,4.2974,4.2898,4.2627,4.22,4.2137,4.1693,4.11,4.0664,4.0475,4.0325,3.9835,3.9697,3.9685,3.9622,3.9597,3.9459,3.8906,3.873,3.8404,3.74,3.7136,3.6996,3.6505,3.6367,3.6119,3.5583,3.5445,3.5031,3.3972,3.3809,3.3633,3.3144,3.3124,3.3124,3.3124,3.3061,3.2767,3.2252,3.165,3.1047,3.047,3.0432,3.0181,2.9628,2.9603,2.9603,2.9603,2.9666,2.9691,2.9691,2.987,2.9972,2.9972,3.0908,3.2181,2.7557,2.7193,2.7256,2.826,2.8988,3.0018,3.2215,3.2792,3.3257,3.4733,3.6015,3.6973,3.74,3.8241,3.9157,4.0036,4.0774,4.153,4.2137,4.2401,4.2552,4.2552,4.2221,4.2283,4.2924,4.2974,4.3212,4.3765,4.4317,4.4869,4.546,4.6012,4.6313,4.6313,4.6313,4.6313,4.6313,4.6313,4.6313,4.6313,4.6313,4.6313,4.6313,4.6313,4.6313,4.6313,4.6313,4.6175,4.5937,4.5623,4.5208,4.4719,4.4053,4.3664,4.3413,4.3099,4.2974,4.2974,4.2974,4.2823,4.269,4.269,4.2258,4.1769,4.1543,4.1028,4.0463,4.0237,3.9936,3.9697,3.9697,3.9697,3.9634,3.9408,3.9158,3.8793,3.8316,3.7651,3.7111,3.6885,3.6631,3.6329,3.6056,3.6019,3.5755,3.4931,3.4311,3.3822,3.3583,3.3269,3.3124,3.3124,3.3124,3.2842,3.2265,3.2001,3.1637,3.1097,3.1072,3.0972,3.0733,3.0432,3.0269,3.0269,2.9955,2.9792,2.9792,2.9792,2.9792,2.9792,3.0216,3.1095,2.9365,2.9666,3.0181,3.0884,3.1989,3.3056,3.3621,3.4186,3.4914,3.6166,3.6845,3.7437,3.8253,3.8705,3.9233,4.0337,4.0924,4.158,4.2338,4.2301,4.215,4.1944,4.1442,4.143,4.2221,4.2572,4.3037,4.3752,4.4317,4.4869,4.546,4.6012,4.6313,4.6313,4.6313,4.6313,4.6313,4.6313,4.6313,4.6313,4.6313,4.6313,4.6313,4.6313,4.6313,4.6313,4.6313,4.6313,4.6276,4.5886,4.5623,4.5409,4.4581,4.4079,4.3752,4.335,4.3112,4.2974,4.2974,4.2974,4.2974,4.2974,4.2766,4.2401,4.225,4.1605,4.094,4.0789,4.0337,3.9923,3.9923,3.981,3.9697,3.9697,3.9383,3.9057,3.8957,3.8228,3.7563,3.7249,3.6908,3.6581,3.643,3.6405,3.6267,3.583,3.4964,3.4299,3.4148,3.3646,3.3244,3.3136,3.3124,3.2905,3.2491,3.2453,3.2215,3.165,3.1625,3.1549,3.1399,3.1035,3.0834,3.0834,3.0432,3.0231,3.0231,3.0231,3.0231,3.0231,3.0231,3.0623,2.8298,2.9352,3.0846,3.1901,3.342,3.4788,3.5295,3.5893,3.6355,3.6405,3.6845,3.7199,3.7224,3.8128,3.9233,4.0337,4.0924,4.1664,4.2798,4.2552,4.1957,4.1376,4.0824,4.0563,4.0588,4.1555,4.269,4.3714,4.4317,4.4869,4.546,4.6012,4.6313,4.6313,4.6313,4.6313,4.6313,4.6313,4.6313,4.6313,4.6313,4.6313,4.6313,4.6313,4.6313,4.6313,4.6313,4.6313,4.6313,4.6288,4.5974,4.5485,4.5447,4.4756,4.3802,4.3777,4.3438,4.2974,4.2974,4.2974,4.2974,4.2974,4.2974,4.2848,4.2376,4.2187,4.2049,4.1467,4.0862,4.0488,4.0488,4.0099,3.9697,3.9697,3.9685,3.9521,3.8981,3.8894,3.8542,3.74,3.7174,3.6985,3.6505,3.6405,3.6405,3.6392,3.5855,3.5257,3.4718,3.4211,3.3671,3.3174,3.3124,3.3111,3.3056,3.3056,3.2805,3.2227,3.219,3.1951,3.1411,3.1373,3.1361,3.1361,3.1348,3.1336,3.1336,3.1336,3.1336,3.1336,3.1336,3.1389,3.0043,3.1512,3.3056,3.4104,3.5403,3.6408,3.6596,3.6772,3.6958,3.6958,3.6807,3.6795,3.7111,3.75,3.8115,3.9245,4.0199,4.1178,4.2338,4.2326,4.1819,4.0902,4.0626,4.0375,4.0011,4.0639,4.153,4.2622,4.3564,4.4317,4.4882,4.5799,4.6313,4.6313,4.6313,4.6313,4.6313,4.6313,4.6313,4.6313,4.6313,4.6313,4.6313,4.6313,4.6313,4.6313,4.6313,4.6313,4.6313,4.6313,4.62,4.5999,4.5635,4.5259,4.4832,4.4079,4.3689,4.3476,4.3099,4.2974,4.2974,4.2974,4.2974,4.2949,4.2816,4.2502,4.2175,4.1932,4.1492,4.0924,4.0614,4.0375,4.0149,3.9785,3.9697,3.9647,3.9459,3.9132,3.8806,3.8429,3.799,3.755,3.6998,3.6958,3.6832,3.6468,3.5893,3.5307,3.4756,3.4562,3.4236,3.3684,3.3621,3.347,3.3106,3.3124,3.2993,3.2805,3.278,3.2704,3.2516,3.2139,3.1938,3.1938,3.1574,3.1386,3.1386,3.1386,3.1386,3.1386,3.1386,3.1386,3.1788,3.3219,3.4512,3.5805,3.681,3.7425,3.7224,3.7186,3.7073,3.6684,3.6157,3.5818,3.5981,3.6006,3.6508,3.8015,3.9195,4.045,4.1999,4.2037,4.153,4.0626,4.0337,4.0086,3.9722,4.0011,4.0764,4.2112,4.3363,4.4254,4.4606,4.5698,4.6313,4.6313,4.6313,4.6313,4.6313,4.6313,4.6313,4.6313,4.6313,4.6313,4.6313,4.6313,4.6313,4.6313,4.6313,4.6313,4.6313,4.6313,4.6313,4.6276,4.5924,4.566,4.5397,4.4669,4.4141,4.3714,4.3175,4.2974,4.2974,4.2974,4.2974,4.2974,4.2974,4.2791,4.2502,4.2502,4.2057,4.1543,4.1191,4.0814,4.0425,4.0074,3.9835,3.9697,3.9697,3.9421,3.9107,3.8957,3.8567,3.8128,3.7575,3.7312,3.6998,3.6493,3.6056,3.5642,3.5044,3.4969,3.4756,3.4248,3.4198,3.4048,3.3696,3.3483,3.337,3.337,3.3224,3.3124,3.3124,3.2717,3.2516,3.2516,3.2164,3.1989,3.1989,3.1989,3.1989,3.1989,3.1989,3.1989,3.3432,3.4449,3.5278,3.6872,3.7638,3.7864,3.7349,3.7186,3.6822,3.5646,3.4956,3.4412,3.3796,3.3784,3.455,3.6671,3.809,3.9711,4.1873,4.1718,4.1163,4.0626,4.0124,3.9798,3.9747,3.9785,4.0463,4.2087,4.3639,4.4568,4.4618,4.5698,4.6313,4.6313,4.6313,4.6313,4.6313,4.6313,4.6313,4.6313,4.6313,4.6313,4.6313,4.6313,4.6313,4.6313,4.6313,4.6313,4.6313,4.6313,4.6313,4.6313,4.6313,4.5987,4.5535,4.5497,4.4807,4.3802,4.3225,4.2999,4.2974,4.2974,4.2974,4.2974,4.2974,4.2974,4.2974,4.2974,4.2652,4.2238,4.2213,4.1379,4.0588,4.0526,4.0111,3.9722,3.9697,3.9697,3.9534,3.9057,3.8944,3.8693,3.814,3.7575,3.7059,3.6531,3.643,3.6169,3.5608,3.5545,3.5332,3.4781,3.4718,3.4705,3.468,3.4248,3.3935,3.3935,3.3445,3.3156,3.3162,3.3162,3.3106,3.3124,3.3124,3.3124,3.3124,3.3124,3.3124,3.3124,3.3124,3.3124,3.5185,3.6433,3.7374,3.8228,3.8216,3.7965,3.7826,3.7161,3.6191,3.4638,3.3533,3.2441,3.1085,3.2177,3.3608,3.4575,3.7412,3.9973,4.1354,4.2133,4.2208,4.1188,4.1367,4.1204,4.0388,4.104,4.176,4.2175,4.2924,4.3765,4.4581,4.5698,4.6313,4.6313,4.6313,4.6313,4.6313,4.6313,4.6313,4.6313,4.6313,4.6313,4.6313,4.6313,4.6313,4.6313,4.6313,4.6313,4.6313,4.6313,4.6313,4.6313,4.6313,4.6225,4.605,4.5635,4.5309,4.492,4.3928,4.3325,4.2974,4.2974,4.2974,4.2974,4.2974,4.2974,4.2974,4.2974,4.2873,4.2728,4.2313,4.1999,4.153,4.0714,4.0413,4.0199,3.9785,3.9697,3.9647,3.9509,3.9145,3.8831,3.868,3.7826,3.7136,3.6998,3.6669,3.6355,3.6169,3.6157,3.5943,3.5345,3.5295,3.5119,3.4705,3.4587,3.4512,3.4512,3.4374,3.4123,3.3709,3.3696,3.3495,3.3124,3.3124,3.3124,3.3124,3.3124,3.3124,3.3124,3.3124,3.3124,3.6257,3.7538,3.8467,3.8844,3.863,3.8128,3.7149,3.6257,3.4964,3.2591,3.1386,3.0344,2.895,3.0306,3.1964,3.2993,3.6219,3.9157,4.0752,4.1718,4.212,4.1743,4.1969,4.1974,4.1291,4.1848,4.2414,4.2891,4.3388,4.3966,4.4593,4.5698,4.6313,4.6313,4.6313,4.6313,4.6313,4.6313,4.6313,4.6313,4.6313,4.6313,4.6313,4.6313,4.6313,4.6313,4.6313,4.6313,4.6313,4.6313,4.6313,4.6313,4.6313,4.6313,4.6276,4.5962,4.5698,4.5397,4.4756,4.4179,4.3614,4.3137,4.2974,4.2974,4.2974,4.2974,4.2974,4.2974,4.2974,4.2898,4.2652,4.2389,4.2049,4.1379,4.0865,4.0438,4.0124,3.9873,3.9697,3.9697,3.9446,3.9157,3.8957,3.8341,3.7839,3.7575,3.7073,3.6769,3.6769,3.6556,3.6292,3.5931,3.5893,3.578,3.5466,3.5215,3.5044,3.5044,3.4806,3.4587,3.4274,3.4261,3.411,3.3809,3.3796,3.3684,3.3432,3.3432,3.3319,3.3124,3.3124,3.3124,3.7111,3.8178,3.9007,3.8944,3.8856,3.8178,3.5897,3.4843,3.3458,3.0143,2.9001,2.8247,2.7055,2.8398,3.0206,3.1838,3.4901,3.7864,4.0086,4.094,4.1543,4.215,4.2275,4.2313,4.2313,4.2313,4.274,4.3727,4.4317,4.4656,4.4731,4.5736,4.6313,4.6313,4.6313,4.6313,4.6313,4.6313,4.6313,4.6313,4.6313,4.6313,4.6313,4.6313,4.6313,4.6313,4.6313,4.6313,4.6313,4.6313,4.6313,4.6313,4.6313,4.6313,4.6313,4.6313,4.6012,4.5585,4.551,4.5158,4.4556,4.3451,4.3087,4.3074,4.2999,4.2974,4.2974,4.2974,4.2974,4.2974,4.2974,4.2678,4.2301,4.2225,4.143,4.0714,4.0639,4.0187,3.9785,3.971,3.9697,3.9546,3.9108,3.8969,3.8693,3.8203,3.7651,3.7299,3.7299,3.6795,3.6405,3.6405,3.6405,3.6405,3.6405,3.5931,3.5608,3.5608,3.5203,3.4914,3.4793,3.4826,3.4756,3.468,3.468,3.4487,3.401,3.401,3.3759,3.3294,3.3294,3.3294,3.8328,3.9057,3.9433,3.8981,3.8517,3.7575,3.5366,3.3721,3.1712,2.8398,2.7316,2.6449,2.4858,2.7042,2.9616,3.1273,3.4349,3.7312,3.9521,4.0701,4.1543,4.215,4.2615,4.2836,4.2836,4.2836,4.3099,4.3752,4.4317,4.4832,4.5309,4.5949,4.6313,4.6313,4.6313,4.6313,4.6313,4.6313,4.6313,4.6313,4.6313,4.6313,4.6313,4.6313,4.6313,4.6313,4.6313,4.6313,4.6313,4.6313,4.6313,4.6313,4.6313,4.6313,4.6313,4.6313,4.625,4.61,4.5648,4.5422,4.5158,4.4028,4.3664,4.3576,4.3112,4.2974,4.2974,4.2974,4.2974,4.2974,4.2974,4.2898,4.2778,4.2313,4.2062,4.1743,4.1291,4.0764,4.0237,3.9785,3.9697,3.9659,3.9572,3.917,3.8881,3.8781,3.8228,3.7864,3.7864,3.6985,3.6405,3.6405,3.6405,3.6405,3.6405,3.6317,3.6267,3.6267,3.6179,3.5881,3.537,3.5357,3.5144,3.4726,3.468,3.4675,3.4575,3.4575,3.4525,3.4437,3.4437,3.4437,3.8266,3.9044,3.9559,3.9007,3.8216,3.6772,3.3696,3.17,2.9439,2.5875,2.4682,2.4067,2.3263,2.5598,2.8097,2.9465,3.224,3.519,3.799,3.9082,4.0237,4.1999,4.269,4.2974,4.2974,4.2974,4.3325,4.4166,4.4468,4.4869,4.546,4.6012,4.6313,4.6313,4.6313,4.6313,4.6313,4.6313,4.6313,4.6313,4.6313,4.6313,4.6313,4.6313,4.6313,4.6313,4.6313,4.6313,4.6313,4.6313,4.6313,4.6313,4.6313,4.6313,4.6313,4.6313,4.6313,4.6276,4.6012,4.5912,4.5786,4.4945,4.4279,4.3752,4.3489,4.3212,4.2974,4.2974,4.2974,4.2974,4.2974,4.2974,4.2911,4.2703,4.2414,4.2049,4.1401,4.0902,4.0438,4.0174,3.9885,3.9697,3.9697,3.9471,3.9295,3.9295,3.8818,3.8454,3.8454,3.7726,3.7111,3.687,3.6581,3.6405,3.6405,3.6405,3.6405,3.6405,3.6405,3.6292,3.5981,3.5968,3.5843,3.5579,3.5579,3.5429,3.5107,3.5107,3.4956,3.468,3.468,3.468,3.7939,3.8655,3.9233,3.8793,3.7751,3.5843,3.2089,2.9854,2.7471,2.371,2.2493,2.2171,2.2284,2.4293,2.6436,2.7871,3.0131,3.2855,3.6182,3.7337,3.8818,4.1546,4.2396,4.2848,4.2974,4.2974,4.3438,4.4543,4.4857,4.5183,4.5648,4.6075,4.6313,4.6313,4.6313,4.6313,4.6313,4.6313,4.6313,4.6313,4.6313,4.6313,4.6313,4.6313,4.6313,4.6313,4.6313,4.6313,4.6313,4.6313,4.6313,4.6313,4.6313,4.6313,4.6313,4.6313,4.6313,4.6313,4.6313,4.6313,4.6238,4.5811,4.4982,4.4141,4.4016,4.3589,4.315,4.315,4.3074,4.2974,4.2974,4.2974,4.2974,4.2974,4.2703,4.2183,4.163,4.1178,4.084,4.0714,4.0249,3.9873,3.9873,3.9772,3.9697,3.9697,3.932,3.9095,3.9095,3.8542,3.8027,3.7588,3.7048,3.6757,3.6757,3.6656,3.6581,3.6581,3.6468,3.6405,3.6405,3.6405,3.6405,3.6405,3.6405,3.6157,3.5671,3.5671,3.5504,3.5077,3.5077,3.5077,3.7739,3.809,3.8153,3.8103,3.6885,3.4768,3.1461,2.9001,2.6477,2.3088,2.1945,2.1719,2.2221,2.3364,2.5071,2.7682,2.9176,3.1173,3.4487,3.6282,3.8115,4.04,4.1593,4.2476,4.2924,4.2974,4.3438,4.4543,4.5573,4.6175,4.6225,4.6288,4.6313,4.6313,4.6313,4.6313,4.6313,4.6313,4.6313,4.6313,4.6313,4.6313,4.6313,4.6313,4.6313,4.6313,4.6313,4.6313,4.6313,4.6313,4.6313,4.6313,4.6313,4.6313,4.6313,4.6313,4.6313,4.6313,4.6313,4.6313,4.6301,4.625,4.5824,4.5234,4.4706,4.4166,4.3727,4.3727,4.3363,4.2974,4.2974,4.2974,4.2974,4.2974,4.2936,4.2748,4.225,4.2099,4.1856,4.13,4.0761,4.0438,4.0438,4.0023,3.9697,3.9697,3.9647,3.9622,3.9622,3.9132,3.8818,3.8768,3.8203,3.7852,3.7852,3.74,3.7111,3.7111,3.6681,3.6405,3.6405,3.6405,3.6405,3.6405,3.6405,3.638,3.6329,3.6329,3.6304,3.6254,3.6254,3.6254,3.7211,3.7751,3.7927,3.76,3.627,3.4141,3.0871,2.8122,2.5423,2.2435,2.1091,2.074,2.1644,2.2184,2.3389,2.6151,2.6716,2.8072,3.1738,3.337,3.5391,3.8617,4.0287,4.1643,4.2861,4.2974,4.3438,4.4543,4.5372,4.5962,4.6288,4.6313,4.6313,4.6313,4.6313,4.6313,4.6313,4.6313,4.6313,4.6313,4.6313,4.6313,4.6313,4.6313,4.6313,4.6313,4.6313,4.6313,4.6313,4.6313,4.6313,4.6313,4.6313,4.6313,4.6313,4.6313,4.6313,4.6313,4.6313,4.6313,4.6313,4.6313,4.6163,4.5886,4.5321,4.4744,4.4229,4.389,4.3639,4.3401,4.3062,4.2974,4.2974,4.2974,4.2974,4.2924,4.2753,4.2439,4.215,4.1869,4.1392,4.0962,4.0962,4.0563,4.0187,4.0187,3.991,3.9697,3.9697,3.9496,3.9371,3.9371,3.8555,3.8002,3.8002,3.7801,3.7676,3.7676,3.7475,3.7199,3.6872,3.6908,3.6744,3.6417,3.6405,3.6405,3.6405,3.6405,3.6405,3.6405,3.6405,3.6405,3.6358,3.7098,3.7462,3.7236,3.5692,3.3458,3.047,2.7494,2.4632,2.202,2.0589,2.01,2.1094,2.138,2.2234,2.4494,2.4971,2.6239,2.9602,3.1185,3.3232,3.6634,3.8366,3.9998,4.1831,4.2748,4.3539,4.4317,4.507,4.566,4.605,4.6225,4.6313,4.6313,4.6313,4.6313,4.6313,4.6313,4.6313,4.6313,4.6313,4.6313,4.6313,4.6313,4.6313,4.6313,4.6313,4.6313,4.6313,4.6313,4.6313,4.6313,4.6313,4.6313,4.6313,4.6313,4.6313,4.6313,4.6313,4.6313,4.6313,4.6313,4.6313,4.6238,4.5849,4.5334,4.4794,4.4405,4.4066,4.3677,4.3124,4.2974,4.2974,4.2974,4.2974,4.2974,4.2974,4.2728,4.2451,4.2451,4.1957,4.158,4.158,4.1128,4.0701,4.0538,4.0187,3.9873,3.9722,3.9697,3.9697,3.9697,3.8981,3.8504,3.8504,3.8354,3.8266,3.8266,3.8103,3.7839,3.745,3.7425,3.7249,3.6908,3.6732,3.6656,3.6656,3.6493,3.6405,3.6405,3.6405,3.6405,3.5069,3.5968,3.6556,3.7048,3.5127,3.2516,3.0294,2.7218,2.4161,2.1945,2.0589,1.9987,2.0591,2.1144,2.1857,2.2945,2.4519,2.6377,2.8587,3.0369,3.224,3.4487,3.573,3.7322,3.9509,4.2195,4.3802,4.3815,4.4857,4.5485,4.5497,4.6012,4.6313,4.6313,4.6313,4.6313,4.6313,4.6313,4.6313,4.6313,4.6313,4.6313,4.6313,4.6313,4.6313,4.6313,4.6313,4.6313,4.6313,4.6313,4.6313,4.6313,4.6313,4.6313,4.6313,4.6313,4.6313,4.6313,4.6313,4.6313,4.6313,4.6313,4.6313,4.6313,4.6301,4.5912,4.5485,4.5472,4.4656,4.3677,4.3124,4.2974,4.2974,4.2974,4.2974,4.2974,4.2974,4.2974,4.2974,4.2974,4.2577,4.22,4.22,4.1693,4.1087,4.0601,4.0513,4.0312,3.9772,3.9697,3.9697,3.9697,3.9685,3.9672,3.9672,3.9182,3.8906,3.8906,3.8329,3.8002,3.8002,3.8002,3.8002,3.799,3.745,3.7174,3.7174,3.6669,3.6405,3.6405,3.6405,3.6405,3.1926,3.2842,3.3395,3.283,3.175,3.0256,2.8058,2.5824,2.3627,2.1421,2.0352,1.9974,2.0591,2.0515,2.1317,2.433,2.4958,2.5941,2.8524,3.1009,3.3081,3.455,3.804,4.0805,4.1831,4.2723,4.3401,4.3777,4.4129,4.4493,4.4882,4.507,4.551,4.6288,4.6313,4.6313,4.6313,4.6313,4.6313,4.6313,4.6313,4.6313,4.6313,4.6313,4.6313,4.6313,4.6313,4.6313,4.6313,4.6313,4.6313,4.6313,4.6313,4.6313,4.6313,4.6313,4.6313,4.6313,4.6313,4.6313,4.6313,4.6313,4.6313,4.6313,4.6313,4.6188,4.5886,4.5108,4.4367,4.3677,4.3124,4.2974,4.2974,4.2974,4.2974,4.2974,4.2974,4.2974,4.2974,4.2974,4.2836,4.2778,4.2778,4.2258,4.1831,4.1668,4.1317,4.0824,4.0325,4.0262,4.0111,3.9735,3.9697,3.9697,3.9697,3.9534,3.9433,3.9433,3.9258,3.8994,3.8617,3.8592,3.8417,3.8015,3.7839,3.7751,3.7751,3.8431,3.8791,3.8778,3.9241,3.8918,2.9452,3.0771,3.1449,3.0783,3.0043,2.8875,2.6675,2.4858,2.31,2.1106,2.0239,1.9911,2.0302,2.0251,2.0991,2.3615,2.4305,2.5322,2.767,3.0394,3.2943,3.509,3.8642,4.127,4.1982,4.261,4.3124,4.3463,4.3689,4.3953,4.4292,4.4505,4.4945,4.5648,4.5886,4.5999,4.5999,4.62,4.6313,4.6313,4.6313,4.6313,4.6313,4.6313,4.6313,4.6313,4.6313,4.6313,0.0,4.6313,4.6313,4.6313,4.6313,4.6313,4.6313,4.6313,4.6313,4.6313,4.6313,4.6313,4.6313,4.6313,4.6313,4.6313,4.6313,4.6313,4.6125,4.5208,4.4543,4.3978,4.3426,4.3137,4.2974,4.2974,4.2974,4.2974,4.2974,4.2974,4.2974,4.2974,4.2974,4.2974,4.2974,4.274,4.2451,4.2238,4.1869,4.1455,4.0902,4.0774,4.0614,4.0061,4.0011,3.9923,3.971,3.9697,3.9697,3.9697,3.9697,3.9534,3.9195,3.9182,3.9019,3.8655,3.8442,3.8329,3.8329,3.9394,3.9918,3.9918,4.0768,4.0727,0.0,2.9251,3.0131,3.0043,2.9226,2.791,2.5787,2.4117,0.0,2.0968,2.0201,1.9836,1.9962,2.0377,2.0943,2.1719,2.315,2.4757,2.6436,2.9139,3.239,3.6304,3.8177,3.9521,4.0588,4.2082,4.2974,4.2974,4.3451,4.374,4.374,4.4229,4.4505,4.4505,4.507,4.5384,4.5434,4.5974,4.625,4.625,4.6288,4.6313,4.6313,4.6313,4.6313,4.6313,4.6313,4.6313,4.6313,4.6313,4.6313,4.6313,4.6313,4.6313,4.6313,4.6313,4.6313,4.6313,4.6313,4.6313,4.6313,4.6313,4.6313,4.6313,4.6313,4.6313,4.62,4.5648,4.507,4.4505,4.394,4.3388,4.2974,4.2974,4.2974,4.2974,4.2974,4.2974,4.2974,4.2974,4.2974,4.2974,4.2974,4.2974,4.2798,4.2338,4.2263,4.202,4.1467,4.1338,4.1137,4.0626,4.0576,4.035,3.9798,3.9722,3.9697,3.9697,3.9697,3.9697,3.9697,3.9697,3.9697,3.9697,3.9195,3.8982,3.907,3.9825,4.0145,4.0179,4.1508,4.2084,2.3389,0.0,2.5347,2.4481,2.4349,2.4111,0.0,2.2159,2.1518,2.0263,1.9899,2.02,2.1481,2.1142,2.171,2.4815,2.5657,2.6499,2.8109,3.1797,3.5771,3.971,4.089,4.1697,4.2333,4.2748,4.2974,4.2974,4.3099,4.3175,4.3175,4.3288,4.3363,4.3363,4.3903,4.4405,4.4819,4.5397,4.5686,4.5686,4.61,4.6313,4.6313,4.6313,4.6313,4.6313,4.6313,4.6313,4.6313,4.6313,4.6313,4.6313,4.6313,4.6313,4.6313,4.6313,4.6313,4.6313,4.6313,4.6313,4.6313,4.6313,4.6313,4.6313,4.6313,4.6313,4.62,4.5648,4.507,4.4505,4.394,4.3388,4.2974,4.2974,4.2974,4.2974,4.2974,4.2974,4.2974,4.2974,4.2974,4.2974,4.2974,4.2974,4.2936,4.2798,4.2841,4.2585,4.2032,4.1969,4.1756,4.115,4.1087,4.0862,4.0375,3.9936,3.9697,3.9697,3.9697,3.9697,3.9697,3.9697,3.9697,3.9697,3.9572,3.9982,4.0974,4.2097,4.2637,4.2684,4.4453,4.4734,2.1004,2.2548,2.3853,2.3238,2.3314,2.3208,2.2121,2.1509,2.0893,1.9974,1.9798,2.0162,2.1343,2.1307,2.2011,2.489,2.5783,2.7268,3.0721,3.3903,3.7238,4.0862,4.1819,4.2426,4.2924,4.2974,4.2974,4.2974,4.2974,4.2974,4.2974,4.2974,4.2974,4.2974,4.3263,4.3689,4.4242,4.4807,4.5095,4.5095,4.5397,4.5535,4.5535,4.5535,4.5686,4.5937,4.5937,4.6075,4.6313,4.6313,4.6313,4.6313,4.6313,4.6313,4.6313,4.6313,4.6313,4.6313,4.6313,4.6313,4.6313,4.6313,4.6313,4.6313,4.6313,4.6313,4.625,4.5949,4.546,4.4957,4.4656,4.3966,4.3363,4.3363,4.3162,4.2974,4.2974,4.2974,4.2974,4.2974,4.2974,4.2974,4.2974,4.2974,4.2974,4.2974,4.2974,4.2873,4.2627,4.259,4.2321,4.1769,4.1706,4.1492,4.094,4.0388,3.9961,3.971,4.0275,4.0554,4.0554,4.0554,4.0313,3.9697,3.9697,4.0032,4.0743,4.2593,4.3504,4.3537,4.5756,4.6397,2.0112,2.2046,2.3904,2.3464,2.3552,2.3439,2.2322,2.1433,2.0679,2.0162,2.0062,2.0313,2.1169,2.1634,2.2472,2.433,2.5598,2.821,3.352,3.5655,3.7826,4.0912,4.1894,4.2527,4.2992,4.2974,4.2974,4.2974,4.2974,4.2974,4.2974,4.2974,4.2974,4.2974,4.2974,4.32,4.3664,4.4217,4.4505,4.4505,4.4581,4.4618,4.4618,4.4618,4.4895,4.5359,4.5359,4.5623,4.6062,4.615,4.6188,4.62,4.6276,4.6313,4.6313,4.6313,4.6313,4.6313,4.6313,4.6313,4.6313,4.6313,4.6313,4.6313,4.6313,4.6313,4.6313,4.6313,4.5912,4.5485,4.5485,4.4706,4.3903,4.3815,4.3438,4.3074,4.2999,4.2974,4.2974,4.2974,4.2974,4.2974,4.2974,4.2974,4.2974,4.2974,4.2974,4.2974,4.2974,4.2974,4.2854,4.2389,4.2338,4.2057,4.1517,4.104,4.0631,4.0272,4.1073,4.169,4.1887,4.1887,4.1356,4.0313,4.0262,4.0262,4.0262,4.2641,4.3787,4.3834,4.6211,4.7309,2.1543,2.2937,2.3427,2.1041,2.1518,2.2284,2.1194,2.1182,2.1343,2.1242,2.123,2.1832,2.3816,2.3866,2.4456,2.7055,2.8812,3.1286,3.5449,3.701,3.8655,4.1,4.2233,4.2886,4.2974,4.2974,4.2974,4.2974,4.2974,4.2974,4.2974,4.2974,4.2974,4.2974,4.2974,4.3024,4.3099,4.3652,4.3928,4.3928,4.4405,4.4618,4.4618,4.4618,4.4669,4.4756,4.4756,4.4807,4.492,4.5409,4.561,4.566,4.6125,4.6313,4.6313,4.6313,4.6313,4.6313,4.6313,4.6313,4.6313,4.6313,4.6313,4.6313,4.6313,4.6313,4.6313,4.6313,4.5912,4.5485,4.5485,4.4995,4.438,4.3915,4.374,4.3539,4.3074,4.2974,4.2974,4.2974,4.2974,4.2974,4.2974,4.2974,4.2974,4.2974,4.2974,4.2974,4.2974,4.2974,4.2949,4.2861,4.2848,4.269,4.2137,4.2011,4.2169,4.28,4.2045,4.207,4.317,4.3218,4.3122,4.293,4.293,4.293,4.293,4.4396,4.5115,4.5161,4.6638,4.7309,2.0665,2.1782,2.241,2.1405,2.2636,2.3954,2.3452,2.3075,2.2924,2.3226,2.305,2.3339,2.4946,2.5285,2.6361,2.9377,3.1537,3.3658,3.6078,3.7575,3.9182,4.1062,4.2045,4.2703,4.2949,4.2974,4.2974,4.2974,4.2974,4.2974,4.2974,4.2974,4.2974,4.2974,4.2974,4.2974,4.2974,4.3225,4.3363,4.3363,4.3614,4.374,4.374,4.374,4.3903,4.4179,4.4179,4.4355,4.4644,4.4907,4.5208,4.551,4.5761,4.605,4.6313,4.6313,4.6313,4.6313,4.6313,4.6313,4.6313,4.6313,4.6313,4.6313,4.6313,4.6313,4.6313,4.6313,4.6125,4.5937,4.5937,4.551,4.502,4.4769,4.4468,4.4104,4.3539,4.3426,4.3338,4.3037,4.2974,4.2974,4.2974,4.2974,4.2974,4.2974,4.2974,4.324,4.4016,4.3449,4.3295,4.4016,4.3449,4.2873,4.2678,4.2389,4.2828,4.434,4.4276,4.4464,4.5044,4.4719,4.421,4.3504,4.3504,4.3504,4.3504,4.478,4.5403,4.5448,4.6726,4.7309,2.0326,2.1029,2.1681,2.2498,2.3879,2.5159,2.5674,2.4971,2.4456,2.5398,2.5159,2.5059,2.6,2.7002,2.8573,3.1364,3.3658,3.5491,3.6644,3.8127,3.9584,4.0924,4.163,4.2133,4.2559,4.2597,4.2647,4.2773,4.2785,4.2891,4.2974,4.2974,4.2974,4.2974,4.2974,4.2974,4.2974,4.2974,4.2974,4.2974,4.2974,4.2974,4.2974,4.2974,4.3212,4.3614,4.3614,4.3853,4.4254,4.438,4.4769,4.5296,4.5434,4.5824,4.6313,4.6313,4.6313,4.6313,4.6313,4.6313,4.6313,4.6313,4.6313,4.6313,4.6313,4.6313,4.6313,4.6313,4.6313,4.6313,4.6313,4.5999,4.5648,4.5522,4.5146,4.4669,4.4116,4.3991,4.3865,4.3438,4.3363,4.3363,4.3363,4.3263,4.3175,4.3175,4.3062,4.3492,4.4833,4.4113,4.4016,4.5356,4.4576,4.3962,4.3962,4.3875,4.4505,4.6103,4.65,4.6697,4.6828,4.6349,4.5547,4.4396,4.4396,4.4396,4.4396,4.5358,4.5824,4.5869,4.6829,4.7309,2.2293,2.2209,2.187,2.3477,2.359,2.3822,2.5959,2.5548,2.536,2.7444,2.7431,2.7231,2.7808,2.9628,3.1461,3.2797,3.4846,3.6621,3.7739,3.8894,3.9873,4.0501,4.1065,4.1363,4.1401,4.1401,4.1668,4.2238,4.2263,4.2489,4.2949,4.2974,4.2974,4.2974,4.2974,4.2974,4.2974,4.2974,4.2974,4.2974,4.2974,4.2974,4.2974,4.2974,4.2999,4.3037,4.3037,4.3062,4.3137,4.3652,4.4192,4.4731,4.5284,4.5824,4.6313,4.6313,4.6313,4.6313,4.6313,4.6313,4.6313,4.6313,4.6313,4.6313,4.6313,4.6313,4.6313,4.6313,4.6313,4.6313,4.6313,4.6276,4.6125,4.561,4.546,4.5259,4.4681,4.4568,4.4556,4.4518,4.4505,4.4505,4.4505,4.4079,4.374,4.374,4.3313,4.3492,4.4833,4.4941,4.5409,4.6785,4.6837,4.6785,4.6785,4.7982,4.8765,4.8919,4.7928,4.7593,4.8119,4.8148,4.7747,4.7033,4.7019,4.7019,4.7019,4.7121,4.7164,4.7164,4.7251,4.7309,2.0725,2.1267,2.1807,2.3138,2.4036,2.5159,2.7055,2.7431,2.806,3.067,3.0218,2.9415,2.9628,3.1185,3.2692,3.3458,3.573,3.7525,3.7952,3.8981,3.9898,4.045,4.0701,4.0912,4.125,4.1288,4.1363,4.163,4.1643,4.1743,4.1944,4.1957,4.2108,4.2514,4.2527,4.269,4.2974,4.2974,4.2974,4.2974,4.2974,4.2974,4.2974,4.2974,4.2974,4.2974,4.2974,4.2974,4.2999,4.32,4.3614,4.4204,4.5133,4.5824,4.6313,4.6313,4.6313,4.6313,4.6313,4.6313,4.6313,4.6313,4.6313,4.6313,4.6313,4.6313,4.6313,4.6313,4.6313,4.6313,4.6313,4.6313,4.6263,4.605,4.5999,4.5849,4.5284,4.5158,4.5058,4.4694,4.5387,4.6043,4.6043,4.6605,4.6972,4.6544,4.629,4.6541,4.7508,4.6837,4.6837,4.8275,4.7619,4.7094,4.7094,4.8389,4.921,4.921,4.915,4.926,4.9463,4.9105,4.8596,4.7923,4.7923,4.7713,4.7309,4.7309,4.7309,4.7309,4.7309,4.7309,2.0024,2.0639,2.1543,2.2782,2.4368,2.6126,2.8172,2.8938,3.0043,3.2993,3.2416,3.1336,3.116,3.234,3.3458,3.3847,3.6207,3.8002,3.8002,3.8981,3.9835,4.0212,4.0262,4.04,4.0777,4.0761,4.0902,4.1012,4.1025,4.11,4.1275,4.1288,4.1517,4.1882,4.2125,4.2389,4.271,4.2942,4.2974,4.2974,4.2974,4.2974,4.2974,4.2974,4.2974,4.2974,4.2974,4.2974,4.2974,4.2974,4.3313,4.3915,4.5045,4.5711,4.6075,4.625,4.6313,4.6313,4.6313,4.6313,4.6313,4.6313,4.6313,4.6313,4.6313,4.6313,4.6313,4.6313,4.6313,4.6313,4.6313,4.6313,4.6313,4.6313,4.6313,4.62,4.5824,4.5748,4.58,4.5839,4.669,4.7569,4.8045,4.8804,4.9176,4.8747,4.8526,4.8662,4.9437,4.8687,4.8516,4.9693,4.895,4.8389,4.8389,4.9259,4.9824,4.9824,5.0283,5.0405,5.0196,4.9808,4.9269,4.8655,4.864,4.8371,4.7923,4.7923,4.7923,4.7923,4.7923,4.7923,2.083,2.0691,2.1106,2.2706,2.4362,2.6364,2.9176,2.9817,3.0746,3.4048,3.3847,3.2918,3.234,3.3144,3.3909,3.3909,3.6207,3.8002,3.8002,3.8981,3.9685,3.9697,3.9697,3.9697,3.9697,3.9697,3.9923,4.0463,4.0513,4.0752,4.125,4.1263,4.1275,4.1275,4.1856,4.22,4.2213,4.2753,4.2974,4.2974,4.2974,4.2974,4.2974,4.2974,4.2974,4.2974,4.2974,4.2974,4.2974,4.2974,4.3313,4.3915,4.5033,4.5485,4.5547,4.61,4.6301,4.6313,4.6313,4.6313,4.6313,4.6313,4.6313,4.6313,4.6313,4.6313,4.6313,4.6313,4.6313,4.6313,4.6313,4.6313,4.6313,4.6313,4.6313,4.6313,4.6313,4.6313,4.6755,4.8197,4.8532,4.9022,5.0477,5.0311,4.9978,4.9964,4.9479,4.9424,5.0126,5.0191,5.0455,5.1133,5.1214,5.1214,5.1214,5.1214,5.1214,5.1214,5.1214,5.0883,5.0226,5.0196,4.9942,4.9329,4.9329,4.9329,4.9314,4.9314,4.9314,4.9314,4.9314,4.9314,1.9773,2.0652,2.2133,2.3427,2.6163,2.9063,3.1047,3.1499,3.2102,3.4286,3.4462,3.406,3.3508,3.3997,3.4474,3.4474,3.6144,3.7563,3.7952,3.8642,3.9258,3.9647,3.9697,3.9697,3.9697,3.9697,3.976,3.9923,3.9936,4.0011,4.0174,4.0174,4.0362,4.0752,4.0915,4.1367,4.22,4.2376,4.2652,4.2974,4.2974,4.2974,4.2974,4.2974,4.2974,4.2974,4.2974,4.2974,4.2974,4.2974,4.3313,4.3827,4.4166,4.4782,4.551,4.5673,4.5987,4.6313,4.6313,4.6313,4.6313,4.6313,4.6313,4.6313,4.6313,4.6313,4.6313,4.6313,4.6313,4.6313,4.6313,4.6313,4.6313,4.6313,4.6313,4.6313,4.6313,4.7146,4.7977,4.8429,5.0197,5.1795,5.2227,5.3068,5.3458,5.3004,5.2785,5.2423,5.1679,5.118,5.0983,5.1182,5.1214,5.1214,5.1214,5.1214,5.1214,5.1214,5.1214,5.1124,5.0883,5.0883,5.0616,4.9957,4.9942,4.9718,4.9314,4.9314,4.9314,4.9314,4.9314,4.9314,2.0425,2.1754,2.371,2.5511,2.7896,3.0394,3.2692,3.3382,3.3884,3.5127,3.5203,3.4906,3.4613,3.4781,3.5006,3.5006,3.6257,3.7299,3.7638,3.8165,3.873,3.9295,3.9371,3.9459,3.9672,3.9697,3.9697,3.9697,3.9697,3.9697,3.9697,3.9697,3.9848,4.0174,4.04,4.084,4.1505,4.1718,4.2108,4.2703,4.2703,4.276,4.2974,4.2974,4.2974,4.2974,4.2974,4.2974,4.2974,4.2974,4.3175,4.3489,4.3714,4.4217,4.4869,4.5321,4.5698,4.6012,4.6238,4.6313,4.6313,4.6313,4.6313,4.6313,4.6313,4.6313,4.6313,4.6313,4.6313,4.6313,4.6313,4.6313,4.6313,4.6313,4.6313,4.6481,4.7027,4.7873,4.8864,5.0029,5.1741,5.3189,5.3742,5.4626,5.5059,5.4655,5.4147,5.3503,5.2695,5.1783,5.1214,5.1214,5.1214,5.1214,5.1214,5.1214,5.1214,5.1214,5.1214,5.1214,5.1214,5.1214,5.0988,5.0584,5.0584,5.0436,5.0047,5.0047,5.0047,5.0047,5.0047,5.0047,2.202,2.3434,2.5452,2.8198,2.9515,3.0896,3.396,3.4994,3.5533,3.6279,3.5968,3.5571,3.5571,3.5571,3.5571,3.5571,3.6458,3.7123,3.7174,3.7613,3.8153,3.873,3.8844,3.9007,3.9559,3.9622,3.9634,3.9697,3.9697,3.9697,3.9697,3.9697,3.9697,3.9697,4.0174,4.0463,4.0513,4.0962,4.1543,4.2137,4.2137,4.2426,4.2898,4.2949,4.2974,4.2974,4.2974,4.2974,4.2974,4.2974,4.2974,4.3024,4.3526,4.3765,4.3928,4.4957,4.5397,4.556,4.6062,4.6276,4.6313,4.6313,4.6313,4.6313,4.6313,4.6313,4.6313,4.6313,4.6313,4.6313,4.6481,4.6481,4.6481,4.6481,4.6421,4.6695,4.8197,4.8589,4.9522,5.247,5.3136,5.3637,5.4962,5.5194,5.5194,5.5194,5.4102,5.3249,5.3189,5.2082,5.1289,5.1229,5.1214,5.1214,5.1214,5.1214,5.1214,5.1214,5.1214,5.1214,5.1214,5.1214,5.1214,5.1214,5.1214,5.1214,5.1214,5.1214,5.1214,5.1214,5.1214,5.1214,2.1018,2.2887,2.5452,2.8198,3.067,3.2667,3.3809,3.4173,3.465,3.6116,3.6317,3.6194,3.6194,3.6194,3.6194,3.6194,3.643,3.6732,3.7123,3.7287,3.7563,3.8128,3.8191,3.8417,3.8994,3.9044,3.9233,3.9659,3.9697,3.9697,3.9697,3.9697,3.9697,3.9697,3.981,4.0074,4.0513,4.0626,4.0965,4.1517,4.1517,4.1806,4.2401,4.2841,4.2974,4.2974,4.2974,4.2974,4.2974,4.2974,4.2974,4.2986,4.3112,4.3426,4.3827,4.4079,4.4731,4.551,4.5623,4.5949,4.6313,4.6313,4.6313,4.6313,4.6313,4.6313,4.6313,4.6313,4.6313,4.6588,4.7756,4.8035,4.8035,4.8035,4.7146,4.6695,4.8197,4.9395,5.0782,5.263,5.3912,5.486,5.5128,5.5194,5.5194,5.5194,5.4506,5.3788,5.3249,5.2486,5.1798,5.1274,5.1214,5.1214,5.1214,5.1214,5.1214,5.1214,5.1214,5.1214,5.1214,5.1214,5.1214,5.1214,5.1214,5.1214,5.1214,5.1214,5.1214,5.1214,5.1214,5.1214,2.1493,2.369,2.6389,2.964,3.2001,3.3545,3.3834,3.3897,3.4223,3.5341,3.5793,3.5968,3.5968,3.6194,3.6405,3.6405,3.6405,3.6505,3.6795,3.6832,3.6998,3.755,3.7613,3.7826,3.8404,3.8454,3.8693,3.9258,3.9295,3.9421,3.9685,3.9697,3.9697,3.9697,3.9697,3.9835,4.0124,4.0124,4.04,4.094,4.094,4.1379,4.2225,4.2778,4.2974,4.2974,4.2974,4.2974,4.2974,4.2974,4.2974,4.2974,4.2974,4.315,4.3438,4.3702,4.4179,4.4756,4.5296,4.5673,4.5962,4.6225,4.6313,4.6313,4.6313,4.6313,4.6313,4.6313,4.6313,4.6481,4.7252,4.7416,4.7416,4.7416,4.7429,4.7756,4.9224,5.0157,5.1372,5.3623,5.4692,5.5194,5.5194,5.5194,5.5194,5.5194,5.4625,5.3967,5.3279,5.2606,5.1947,5.1289,5.1214,5.1214,5.1214,5.1214,5.1214,5.1214,5.1214,5.1214,5.1214,5.1214,5.1214,5.1214,5.1214,5.1214,5.1214,5.1214,5.1214,5.1214,5.1214,5.1214,2.1866,2.4607,2.7656,3.1298,3.2993,3.3759,3.3759,3.3759,3.3884,3.4349,3.4906,3.5357,3.5357,3.578,3.6153,3.6207,3.6267,3.6304,3.6405,3.6405,3.6581,3.6985,3.7048,3.7262,3.7814,3.7864,3.8103,3.868,3.8718,3.8969,3.9521,3.9546,3.9597,3.9697,3.9697,3.9697,3.9697,3.9697,3.9923,4.0375,4.0475,4.099,4.1949,4.259,4.2886,4.2974,4.2974,4.2974,4.2974,4.2974,4.2974,4.2974,4.2974,4.2974,4.3037,4.3489,4.3714,4.3953,4.4982,4.5397,4.5585,4.6137,4.6313,4.6313,4.6313,4.6313,4.6361,4.6588,4.6481,4.6421,4.6921,4.6862,4.6755,4.6968,4.7964,4.9237,5.0435,5.092,5.1929,5.4677,5.5194,5.5194,5.5194,5.5194,5.5194,5.5194,5.473,5.4132,5.3443,5.2785,5.2112,5.1454,5.1289,5.1214,5.1214,5.1214,5.1214,5.1214,5.1214,5.1214,5.1214,5.1214,5.1214,5.1214,5.1214,5.1214,5.1214,5.1214,5.1214,5.1214,5.1214,5.1214,1.9899,2.3991,2.8574,3.1486,3.2704,3.3224,3.3224,3.3224,3.3206,3.3282,3.411,3.4826,3.4826,3.4889,3.5102,3.5533,3.5608,3.5818,3.6342,3.6405,3.643,3.6505,3.6518,3.6732,3.7236,3.7299,3.7525,3.8078,3.8115,3.8379,3.9007,3.9032,3.9195,3.9685,3.9697,3.9697,3.9697,3.9697,3.9735,3.981,4.0287,4.0588,4.0764,4.1794,4.2577,4.2974,4.2974,4.2974,4.2974,4.2974,4.2974,4.2974,4.2974,4.2974,4.2986,4.3062,4.3388,4.389,4.4518,4.507,4.5585,4.6137,4.6313,4.6313,4.6313,4.6313,4.6588,4.7873,4.7311,4.6862,4.9438,4.918,4.8532,4.9833,5.0268,5.0477,5.0644,5.1781,5.3189,5.4845,5.5194,5.5194,5.5194,5.5194,5.5194,5.5194,5.5119,5.482,5.4162,5.3473,5.28,5.2142,5.1558,5.1214,5.1214,5.1214,5.1214,5.1214,5.1214,5.1214,5.1214,5.1214,5.1214,5.1214,5.1214,5.1214,5.1214,5.1214,5.1214,5.1214,5.1214,5.1214,2.1732,2.5071,2.8373,3.1449,3.2403,3.2679,3.3006,3.3124,3.3124,3.3124,3.347,3.3897,3.4211,3.4512,3.4756,3.4994,3.5295,3.5583,3.5868,3.6169,3.6405,3.6405,3.6405,3.6505,3.6744,3.6769,3.6948,3.75,3.755,3.7789,3.8354,3.8693,3.8981,3.922,3.9534,3.9697,3.9697,3.9697,3.9697,3.9697,3.9936,4.0224,4.0538,4.1015,4.1706,4.259,4.2848,4.2974,4.2974,4.2974,4.2974,4.2974,4.2974,4.2974,4.2974,4.2974,4.3137,4.3426,4.3978,4.4531,4.5095,4.566,4.6062,4.6313,4.6313,4.6313,4.6588,4.8094,4.8035,4.7802,4.9123,4.8965,4.8634,4.9294,5.0101,5.092,5.1781,5.2509,5.3466,5.4911,5.5194,5.5194,5.5194,5.5194,5.5194,5.5194,5.5194,5.4955,5.4296,5.3937,5.3354,5.2306,5.1947,5.1618,5.1244,5.1214,5.1214,5.1214,5.1214,5.1214,5.1214,5.1214,5.1214,5.1214,5.1214,5.1214,5.1214,5.1214,5.1214,5.1214,5.1214,5.1214,2.2355,2.4757,2.6816,3.0131,3.1273,3.1813,3.2667,3.2855,3.2855,3.2855,3.2968,3.3156,3.342,3.3922,3.4349,3.4487,3.4818,3.5132,3.527,3.5805,3.6157,3.6157,3.6329,3.6405,3.6405,3.6405,3.6581,3.6996,3.6973,3.7211,3.7764,3.8203,3.8504,3.8642,3.9195,3.9484,3.9484,3.9622,3.9697,3.9697,3.9697,3.991,4.0312,4.045,4.104,4.1982,4.259,4.2848,4.2974,4.2974,4.2974,4.2974,4.2974,4.2974,4.2974,4.2974,4.2974,4.3062,4.3614,4.4166,4.4719,4.5296,4.5861,4.6313,4.6313,4.6313,4.6588,4.8094,4.8474,4.8474,4.8474,4.8806,4.908,4.908,5.0226,5.1713,5.3241,5.3571,5.386,5.4962,5.5194,5.5194,5.5194,5.5194,5.5194,5.5194,5.5194,5.5014,5.4521,5.4311,5.3817,5.2815,5.2561,5.2247,5.1753,5.1558,5.1468,5.1468,5.1304,5.1214,5.1214,5.1214,5.1214,5.1214,5.1214,5.1214,5.1214,5.1214,5.1214,5.1214,5.1214,5.1214,1.9422,2.1292,2.3376,2.6703,2.8737,3.0331,3.1901,3.2252,3.2252,3.2252,3.2692,3.2918,3.239,3.2767,3.3332,3.3859,3.3972,3.4173,3.4688,3.5194,3.5545,3.5545,3.6044,3.6405,3.6405,3.6405,3.6417,3.6455,3.6455,3.6694,3.7199,3.7262,3.7513,3.804,3.8617,3.8957,3.8957,3.9433,3.9697,3.9697,3.9697,3.971,3.9747,4.0275,4.0827,4.1363,4.1957,4.2552,4.2974,4.2974,4.2974,4.2974,4.2974,4.2974,4.2974,4.2974,4.2974,4.3062,4.3614,4.4166,4.4719,4.5296,4.5861,4.6313,4.6313,4.6313,4.6588,4.8094,4.8474,4.8474,4.8474,4.9508,5.0588,5.0588,5.1781,5.3294,5.4743,5.5078,5.5128,5.5194,5.5194,5.5194,5.5194,5.5194,5.5194,5.5194,5.5194,5.5179,5.5149,5.4596,5.4177,5.4117,5.3518,5.3114,5.3084,5.2501,5.2157,5.2157,5.1558,5.1214,5.1214,5.1214,5.1214,5.1214,5.1214,5.1214,5.1214,5.1214,5.1214,5.1214,5.1214,5.1214,1.9397,2.0765,2.2498,2.546,2.7205,2.8624,3.0281,3.1461,3.2114,3.1763,3.2127,3.2453,3.2252,3.2692,3.3144,3.3345,3.3671,3.3972,3.4161,3.4675,3.5107,3.5458,3.5671,3.5968,3.6367,3.6405,3.6405,3.6405,3.6405,3.6493,3.6694,3.6998,3.7274,3.7475,3.8027,3.8492,3.8919,3.9421,3.9697,3.9697,3.9697,3.9697,3.9697,3.9898,4.0287,4.084,4.1392,4.2145,4.2974,4.2974,4.2974,4.2974,4.2974,4.2974,4.2974,4.2974,4.2974,4.2999,4.32,4.3865,4.4656,4.4869,4.556,4.6313,4.6313,4.6313,4.6802,4.9224,4.989,5.0114,5.1126,5.1795,5.2173,5.2173,5.3346,5.4575,5.5078,5.5194,5.5194,5.5194,5.5194,5.5194,5.5194,5.5194,5.5044,5.4625,5.4925,5.5044,5.461,5.4715,5.4685,5.4266,5.3997,5.3668,5.3219,5.2965,5.283,5.283,5.2606,5.2291,5.1872,5.1843,5.1648,5.1229,5.1214,5.1214,5.1214,5.1214,5.1214,5.1214,5.1214,5.1214,1.8555,1.966,2.133,2.4079,2.5197,2.6352,2.9151,3.0331,3.0884,3.1085,3.1562,3.1989,3.2177,3.2378,3.2629,3.3061,3.3382,3.3621,3.3621,3.4098,3.4575,3.4906,3.5107,3.5433,3.6031,3.6094,3.6157,3.6392,3.6405,3.6405,3.6405,3.6757,3.6998,3.7174,3.7538,3.809,3.8906,3.9233,3.9509,3.9697,3.9697,3.9697,3.9697,3.9697,3.9998,4.0551,4.105,4.1856,4.2778,4.2898,4.2974,4.2974,4.2974,4.2974,4.2974,4.2974,4.2974,4.2974,4.2974,4.3702,4.4618,4.4618,4.5384,4.6313,4.6313,4.6313,4.6695,4.8678,4.9932,5.0809,5.1345,5.2241,5.3136,5.3637,5.4473,5.5194,5.5194,5.5194,5.5194,5.5194,5.5194,5.5194,5.5194,5.5194,5.5044,5.4596,5.491,5.5029,5.4596,5.4925,5.5029,5.4581,5.4536,5.4356,5.3892,5.3653,5.3533,5.3533,5.3309,5.298,5.2546,5.2321,5.1992,5.1558,5.1334,5.1214,5.1214,5.1214,5.1214,5.1214,5.1214,5.1214,0.0,0.0,0.0,2.2305,2.2594,2.3527,2.8448,2.875,2.8461,3.0168,3.0934,3.1474,3.2077,3.1763,3.1775,3.2905,3.3111,3.3056,3.3124,3.3533,3.3884,3.3897,3.4374,3.4868,3.542,3.5495,3.5768,3.6342,3.6405,3.6405,3.6405,3.6405,3.6656,3.7149,3.7174,3.7713,3.8881,3.8906,3.9145,3.9697,3.9697,3.9697,3.9697,3.9697,3.9986,4.0526,4.1025,4.163,4.2238,4.2748,4.2974,4.2974,4.2974,4.2974,4.2974,4.2974,4.2974,4.2974,4.2999,4.3714,4.4618,4.4644,4.5397,4.6313,4.6313,4.6313,4.6313,4.6361,4.8461,5.038,4.9022,5.0865,5.3413,5.486,5.5194,5.5194,5.5194,5.5194,5.5194,5.5194,5.5194,5.5194,5.5194,5.5194,5.5179,5.5164,5.5164,5.5164,5.5164,5.5164,5.5164,5.5194,5.5194,5.5194,5.5194,5.4596,5.4236,5.4236,5.3608,5.3234,5.3219,5.2591,5.2232,5.2202,5.1573,5.1244,5.1214,5.1214,5.1214,5.1214,5.1214,5.1214,1.73,0.0,0.0,0.0,0.0,0.0,2.3791,2.477,2.5724,2.7783,2.8637,2.9553,3.1298,3.1813,3.2215,3.2998,3.2717,3.2604,3.3061,3.3206,3.3458,3.3847,3.4035,3.4349,3.4856,3.527,3.5558,3.5768,3.6132,3.6405,3.6405,3.6405,3.648,3.6631,3.6973,3.7525,3.8241,3.8668,3.9145,3.9697,3.9697,3.9697,3.9697,3.9697,3.9772,3.9948,4.0513,4.1065,4.163,4.2585,4.2974,4.2974,4.2974,4.2974,4.2974,4.2974,4.2974,4.3037,4.3438,4.4028,4.4694,4.5121,4.5736,4.6313,4.6313,4.6313,4.6528,4.7593,4.9224,5.1098,5.291,5.3964,5.4692,5.5078,5.5194,5.5194,5.5194,5.5194,5.5194,5.5194,5.5194,5.5194,5.5194,5.5194,5.5029,5.4551,5.4476,5.4476,5.4476,5.4476,5.4655,5.5149,5.5194,5.5194,5.5194,5.5029,5.4925,5.4925,5.4745,5.4431,5.3937,5.3758,5.3189,5.2217,5.2022,5.1693,5.1214,5.1214,5.1214,5.1214,5.1214,5.1214,1.8279,1.8455,1.9058,1.9861,0.0,0.0,2.2422,2.3163,2.4054,2.6741,2.7544,2.8436,3.0658,3.0947,3.1185,3.2202,3.1913,3.1901,3.293,3.3124,3.3237,3.352,3.3558,3.3771,3.4324,3.4675,3.5006,3.547,3.5843,3.6119,3.6405,3.6405,3.6405,3.6405,3.6719,3.7098,3.7663,3.8228,3.8793,3.9358,3.9584,3.9697,3.9697,3.9697,3.9697,3.9722,4.0275,4.0774,4.1351,4.2271,4.2828,4.2974,4.2974,4.2974,4.2974,4.2974,4.2974,4.3062,4.3614,4.4166,4.4719,4.5296,4.5861,4.6313,4.6313,4.6313,4.6481,4.7311,4.9066,5.1372,5.4406,5.5194,5.5194,5.5194,5.5194,5.5194,5.5194,5.5194,5.5194,5.5194,5.5194,5.5194,5.5194,5.5194,5.5059,5.4685,5.4625,5.4625,5.4625,5.4625,5.476,5.5149,5.5194,5.5194,5.5194,5.5194,5.5194,5.5194,5.5194,5.5014,5.464,5.4356,5.3698,5.2636,5.2336,5.1872,5.1214,5.1214,5.1214,5.1214,5.1214,5.1214,1.9497,1.9597,2.02,2.1079,1.9974,0.0,2.2636,2.2723,2.2987,2.6013,2.6691,2.7406,2.9654,2.939,2.9302,3.0708,3.0796,3.121,3.2679,3.2893,3.2918,3.2968,3.298,3.3194,3.3759,3.3872,3.4311,3.5245,3.5433,3.5708,3.6292,3.6367,3.6405,3.6405,3.6405,3.6669,3.7174,3.7726,3.8304,3.8932,3.9433,3.9697,3.9697,3.9697,3.9697,3.9722,4.0212,4.0777,4.1326,4.1869,4.2476,4.2974,4.2974,4.2974,4.2974,4.2974,4.2974,4.3074,4.3677,4.4217,4.4731,4.5372,4.5912,4.6313,4.6313,4.6313,4.6313,4.6481,4.8563,5.1372,5.4237,5.5078,5.5194,5.5194,5.5194,5.5194,5.5194,5.5194,5.5194,5.5194,5.5194,5.5194,5.5194,5.5194,5.5194,5.5194,5.5134,5.5104,5.5179,5.5134,5.5104,5.5179,5.5194,5.5194,5.5194,5.5194,5.5194,5.5194,5.5194,5.5194,5.5194,5.4625,5.3967,5.3189,5.2456,5.1813,5.1214,5.1214,5.1214,5.1214,5.1214,5.1214,2.0553,2.0767,2.0991,2.03,2.0828,0.0,1.966,2.0188,2.132,2.2397,2.2975,2.3954,2.6176,2.7507,2.8222,2.8109,2.9867,3.1348,3.1675,3.1712,3.1888,3.2328,3.239,3.2604,3.3181,3.3633,3.3985,3.4211,3.4994,3.5545,3.5658,3.6119,3.6405,3.6405,3.6405,3.6669,3.7174,3.7726,3.8304,3.8932,3.9433,3.9697,3.9697,3.9697,3.9697,3.9697,3.981,4.0425,4.13,4.1401,4.2082,4.2974,4.2974,4.2974,4.2974,4.2974,4.2974,4.3124,4.4116,4.4531,4.4794,4.5824,4.6225,4.6313,4.6313,4.6313,4.6528,4.7756,4.9338,5.1153,5.2948,5.4304,5.5194,5.5194,5.5194,5.5194,5.5194,5.5194,5.5194,5.5194,5.5194,5.5194,5.5194,5.5194,5.5194,5.5194,5.4745,5.4596,5.5119,5.473,5.4596,5.5134,5.5194,5.5194,5.5194,5.5194,5.5194,5.5194,5.5194,5.5194,5.5194,5.5059,5.4431,5.3204,5.2007,5.1349,5.1214,5.1214,5.1214,5.1214,5.1214,5.1214,2.1794,2.1681,2.1832,2.1503,2.1267,0.0,0.0,2.0049,2.0313,2.197,2.187,2.2171,2.4381,2.5247,2.5799,2.6352,2.8072,2.934,2.934,3.1009,3.2328,3.2616,3.2641,3.2754,3.3056,3.3319,3.3608,3.3872,3.4663,3.5207,3.5483,3.5805,3.6081,3.6405,3.6405,3.6543,3.682,3.76,3.8153,3.8442,3.9295,3.9697,3.9697,3.9697,3.9697,3.9697,3.9697,4.0325,4.1288,4.1288,4.1982,4.2974,4.2974,4.2974,4.2974,4.2974,4.2974,4.3137,4.4242,4.4618,4.4807,4.5937,4.6313,4.6313,4.6313,4.6313,4.6588,4.8094,4.9565,5.1044,5.2615,5.4082,5.5194,5.5194,5.5194,5.5194,5.5194,5.5194,5.5194,5.5194,5.5194,5.5194,5.5194,5.5194,5.5194,5.5194,5.491,5.482,5.5149,5.491,5.482,5.5149,5.5194,5.5194,5.5194,5.5194,5.5194,5.5194,5.5194,5.5194,5.5194,5.5194,5.4551,5.3204,5.2217,5.1543,5.1214,5.1214,5.1214,5.1214,5.1214,5.1214,2.3502,2.3188,2.3251,2.3133,2.2096,2.1192,0.0,0.0,0.0,2.1942,2.1368,2.1081,2.2862,2.2899,2.307,2.4431,2.5862,2.6804,2.6804,2.9779,3.2001,3.2102,3.2403,3.2641,3.2742,3.2667,3.2867,3.352,3.3897,3.4367,3.5144,3.5382,3.5696,3.6194,3.6355,3.6405,3.6405,3.745,3.8002,3.8015,3.9157,3.9697,3.9697,3.9697,3.9697,3.9697,3.9697,4.0325,4.1288,4.1288,4.1982,4.2974,4.2974,4.2974,4.2974,4.2974,4.2974,4.3137,4.4242,4.4618,4.4807,4.5937,4.6313,4.6313,4.6313,4.6313,4.6528,4.7756,4.9338,5.0989,5.2227,5.3846,5.5194,5.5194,5.5194,5.5194,5.5194,5.5194,5.5194,5.5194,5.5194,5.5194,5.5194,5.5194,5.5194,5.5194,5.5194,5.5194,5.5194,5.5194,5.5194,5.5194,5.5194,5.5194,5.5194,5.5194,5.5194,5.5194,5.5194,5.5194,5.5194,5.5074,5.4491,5.3399,5.2606,5.1932,5.1409,5.1274,5.1214,5.1214,5.1214,5.1214,2.621,2.6386,2.6138,2.371,2.4431,2.4626,2.0337,0.0,2.1453,1.981,0.0,1.9974,2.0225,0.0,0.0,2.1219,2.3401,2.5064,2.5064,2.6741,2.8122,2.8612,2.998,3.1072,3.1537,3.116,3.1311,3.2328,3.2014,3.2453,3.401,3.4969,3.552,3.5596,3.6107,3.6405,3.6405,3.745,3.8002,3.8015,3.9157,3.9697,3.9697,3.9697,3.9697,3.9697,3.9697,4.0325,4.1288,4.1288,4.1982,4.2974,4.2974,4.2974,4.2974,4.2974,4.2974,4.3137,4.4242,4.4618,4.4807,4.5937,4.6313,4.6313,4.6313,4.6313,4.6313,4.6481,4.8563,5.0754,5.092,5.3054,5.5194,5.5194,5.5194,5.5194,5.5194,5.5194,5.5194,5.5194,5.5194,5.5194,5.5194,5.5194,5.5194,5.5194,5.5194,5.5194,5.5194,5.5194,5.5194,5.5194,5.5194,5.5194,5.5194,5.5194,5.5194,5.5194,5.5194,5.5194,5.5194,5.4625,5.4251,5.4102,5.2845,5.2157,5.2097,5.1498,5.1214,5.1214,5.1214,5.1214,2.6738,2.6663,2.6487,2.4933,2.4544,2.3904,2.1453,2.0638,2.0299,2.0037,0.0,0.0,0.0,0.0,0.0,0.0,2.1694,2.2774,2.2447,2.4117,2.605,2.7883,2.816,2.8674,2.9854,3.0068,3.0583,3.165,3.0947,3.1336,3.3319,3.4161,3.4843,3.5483,3.6081,3.6405,3.6405,3.745,3.8002,3.8015,3.9157,3.9697,3.9697,3.9697,3.9697,3.9697,3.9697,4.0325,4.1288,4.1288,4.1982,4.2974,4.2974,4.2974,4.2974,4.2974,4.2974,4.3137,4.4242,4.4618,4.4807,4.5937,4.6313,4.6313,4.6313,4.6313,4.6313,4.6313,4.8403,5.0699,5.0699,5.2934,5.5194,5.5194,5.5194,5.5194,5.5194,5.5194,5.5194,5.5194,5.5194,5.5194,5.5194,5.5194,5.5194,5.5194,5.5194,5.5194,5.5194,5.5194,5.5194,5.5194,5.5194,5.5194,5.5194,5.5194,5.5194,5.5194,5.5194,5.5194,5.5194,5.4925,5.4596,5.4221,5.3653,5.3174,5.277,5.2112,5.1783,5.1783,5.1394,5.1214,2.7857,2.753,2.709,2.5724,2.4481,2.3221,2.192,2.0725,2.0112,2.0779,2.0313,0.0,0.0,0.0,0.0,0.0,0.0,2.1242,2.0553,2.1832,2.3703,2.6025,2.6285,2.6816,2.8335,2.8574,2.9277,3.0834,2.9804,3.0193,3.2704,3.337,3.4173,3.5245,3.5855,3.6207,3.6405,3.745,3.8002,3.8015,3.9157,3.9697,3.9697,3.9697,3.9697,3.9697,3.9697,4.0325,4.1288,4.1288,4.1982,4.2974,4.2974,4.2974,4.2974,4.2974,4.2974,4.3137,4.4242,4.4819,4.5221,4.6037,4.6313,4.6313,4.6313,4.6313,4.6313,4.6313,4.8403,5.0699,5.0699,5.2934,5.5194,5.5194,5.5194,5.5194,5.5194,5.5194,5.5194,5.5194,5.5194,5.5194,5.5194,5.5194,5.5194,5.5194,5.5194,5.5194,5.5194,5.5194,5.5194,5.5194,5.5194,5.5194,5.5194,5.5194,5.5194,5.5194,5.5194,5.5194,5.5194,5.5194,5.497,5.4491,5.4296,5.3967,5.3458,5.28,5.2471,5.2441,5.1618,5.1214,3.0495,3.0093,2.8913,2.5661,2.4775,2.3873,2.0627,2.1091,2.2071,2.1556,2.2711,2.3653,2.3095,0.0,0.0,0.0,0.0,0.0,0.0,1.9899,2.0376,2.1556,2.4017,2.6076,2.7218,2.6364,2.6879,2.9628,2.831,2.8787,3.2064,3.2792,3.3608,3.4668,3.5245,3.583,3.6405,3.745,3.8002,3.8015,3.9157,3.9697,3.9697,3.9697,3.9697,3.9697,3.9697,4.0325,4.1288,4.1288,4.1982,4.2974,4.2974,4.2974,4.2974,4.2974,4.2974,4.3137,4.4242,4.5334,4.6263,4.6301,4.6313,4.6313,4.6313,4.6313,4.6313,4.6313,4.8403,5.0699,5.0699,5.2934,5.5194,5.5194,5.5194,5.5194,5.5194,5.5194,5.5194,5.5194,5.5194,5.5194,5.5194,5.5194,5.5194,5.5194,5.5194,5.5194,5.5194,5.5194,5.5194,5.5194,5.5194,5.5194,5.5194,5.5194,5.5194,5.5194,5.5194,5.5194,5.5194,5.5194,5.5179,5.5164,5.4536,5.4206,5.4177,5.3488,5.3144,5.3114,5.1813,5.1214,3.0708,3.0733,3.0231,2.7645,2.6163,2.4657,2.2058,2.1895,2.2159,2.1606,2.2824,2.3828,2.3208,0.0,0.0,0.0,0.0,0.0,0.0,1.843,1.8618,1.9723,2.2623,2.4393,2.4029,2.5343,2.6751,2.8034,2.7607,2.8411,3.1022,3.2014,3.3018,3.4148,3.5019,3.5805,3.6405,3.745,3.8002,3.8015,3.9157,3.9697,3.9697,3.9697,3.9697,3.971,4.0086,4.0664,4.1313,4.1731,4.2308,4.2974,4.2974,4.2974,4.2974,4.2974,4.3212,4.3677,4.4807,4.5686,4.6313,4.6313,4.6313,4.6313,4.6313,4.6313,4.6313,4.6313,4.7743,4.9451,5.0422,5.2213,5.3964,5.4962,5.5194,5.5194,5.5194,5.5194,5.5194,5.5194,5.5194,5.5194,5.5194,5.5194,5.5194,5.5194,5.5194,5.5194,5.5194,5.5194,5.5194,5.5194,5.5194,5.5194,5.5194,5.5194,5.5194,5.5194,5.5194,5.5194,5.5194,5.5194,5.5194,5.5194,5.497,5.4865,5.4865,5.4192,5.3862,5.3832,5.2486,5.1872,3.1273,3.1286,3.0909,2.89,2.7582,2.6151,2.3753,2.3653,2.3866,2.31,2.413,2.5109,2.4901,0.0,0.0,0.0,0.0,0.0,0.0,1.7903,1.8003,1.8895,2.1267,2.2836,2.2899,2.4023,2.5443,2.719,2.6741,2.7557,3.0181,3.1336,3.2528,3.3859,3.4776,3.5617,3.6405,3.745,3.8002,3.8015,3.9157,3.9697,3.9697,3.9697,3.9697,3.9722,4.0275,4.0774,4.1326,4.1932,4.2539,4.2974,4.2974,4.2974,4.2974,4.2974,4.3451,4.4229,4.5158,4.5849,4.6313,4.6313,4.6313,4.6313,4.6313,4.6313,4.6313,4.6313,4.737,4.8691,4.9678,5.1455,5.3241,5.4186,5.4794,5.5194,5.5194,5.5194,5.5194,5.5194,5.5194,5.5194,5.5194,5.5194,5.5194,5.5194,5.5194,5.5194,5.5194,5.5194,5.5194,5.5194,5.5194,5.5194,5.5194,5.5194,5.5194,5.5194,5.5194,5.5194,5.5194,5.5194,5.5194,5.5194,5.5194,5.5194,5.5194,5.476,5.4566,5.4536,5.3428,5.2905]}]]